GFSGL_850_dewp_030.txt.gz
Dewpoint
11 11 10 10 10 9 6 7 8 9 9 7 5 5 5 -3 1 -6 -9 -3 -3 -2 -1 -4 -4 -6 -7 -6 -6 -7 -7 -7 -8 -9 -10 -11 -9 -9 -10 -11 -12 -14 -15
10 11 10 9 9 9 9 9 9 9 8 8 6 6 2 -3 -3 -9 -6 -3 -1 0 -2 -4 -5 -6 -5 -5 -6 -6 -6 -7 -8 -9 -9 -10 -10 -10 -11 -11 -13 -15 -14
7 7 8 8 9 9 9 9 9 8 8 7 6 4 -2 -3 -9 -5 -6 -2 -0 -0 -3 -4 -5 -5 -5 -5 -5 -6 -7 -7 -8 -8 -9 -10 -10 -12 -12 -13 -14 -14 -14
8 8 8 9 9 9 9 9 8 8 8 7 5 1 -2 -8 -7 -6 -3 -0 -0 -2 -3 -4 -4 -4 -5 -4 -5 -5 -6 -7 -7 -8 -9 -10 -12 -13 -13 -14 -16 -15 -15
7 7 7 7 7 7 7 7 7 6 6 5 3 -3 -6 -8 -7 -2 -1 -1 -1 -2 -3 -3 -3 -4 -4 -5 -5 -6 -5 -6 -7 -9 -10 -11 -13 -14 -14 -14 -15 -14 -13
1 2 3 5 5 5 5 5 5 4 2 -1 -4 -4 -7 -4 -2 -0 -1 -1 -2 -2 -2 -3 -4 -4 -4 -7 -7 -6 -6 -5 -6 -8 -9 -11 -13 -13 -13 -14 -14 -13 -13
2 3 4 4 4 4 4 3 2 -0 -2 -3 -5 -4 -3 -5 -2 -1 -1 -2 -1 -3 -2 -4 -4 -6 -5 -4 -7 -6 -6 -5 -6 -8 -9 -11 -12 -12 -12 -14 -13 -13 -13
2 3 3 3 3 3 3 2 1 0 -1 -2 -3 -5 -6 -1 -1 -1 -1 -2 -2 -3 -4 -6 -6 -6 -6 -5 -5 -5 -5 -5 -6 -9 -11 -12 -12 -11 -12 -13 -12 -11 -12
2 2 2 1 1 0 -0 -1 -1 -2 -2 -3 -5 -4 -1 -1 -2 -1 -2 -5 -6 -7 -6 -7 -7 -7 -7 -6 -5 -5 -5 -5 -6 -9 -13 -14 -16 -16 -17 -15 -11 -11 -11
1 1 0 -0 -1 -1 -1 -1 -1 -1 -1 -2 -1 -1 -1 -2 -4 -7 -9 -10 -8 -6 -6 -6 -7 -9 -12 -8 -6 -5 -5 -5 -7 -9 -13 -15 -17 -17 -19 -18 -11 -11 -11
0 -0 -0 -0 -0 -0 -1 -1 -1 -1 -1 -2 -5 -8 -11 -11 -11 -13 -11 -10 -8 -6 -5 -6 -6 -6 -11 -8 -6 -5 -5 -5 -6 -9 -10 -10 -10 -12 -11 -10 -10 -11 -11
-2 -2 -2 -2 -3 -4 -4 -7 -8 -8 -10 -8 -10 -10 -7 -5 -5 -5 -7 -7 -7 -6 -6 -5 -5 -5 -6 -8 -6 -6 -5 -5 -6 -7 -8 -9 -9 -11 -11 -11 -12 -11 -11
-3 -6 -10 -13 -14 -15 -14 -12 -7 -6 -7 -7 -8 -6 -7 -7 -8 -8 -14 -19 -19 -16 -13 -8 -6 -6 -5 -5 -6 -6 -5 -5 -5 -6 -7 -7 -7 -8 -9 -10 -11 -11 -11
-12 -13 -14 -15 -15 -14 -13 -15 -14 -17 -20 -15 -11 -10 -10 -10 -10 -10 -19 -20 -17 -15 -13 -15 -23 -18 -7 -6 -6 -6 -6 -6 -6 -6 -7 -7 -7 -8 -8 -9 -10 -10 -10
-14 -15 -15 -16 -19 -22 -24 -29 -32 -29 -35 -34 -30 -27 -22 -16 -12 -22 -20 -18 -17 -18 -17 -16 -10 -10 -10 -10 -7 -7 -6 -6 -7 -6 -6 -7 -7 -8 -9 -9 -9 -10 -10
-15 -18 -22 -25 -27 -27 -25 -15 -28 -33 -33 -33 -31 -29 -28 -25 -23 -23 -22 -21 -19 -17 -15 -11 -10 -9 -8 -8 -9 -7 -6 -7 -7 -7 -7 -6 -7 -8 -8 -9 -9 -10 -10
-21 -24 -26 -29 -31 -32 -30 -25 -17 -14 -25 -27 -29 -28 -27 -26 -25 -24 -23 -22 -18 -14 -12 -12 -12 -11 -10 -10 -8 -8 -7 -7 -7 -7 -7 -7 -7 -8 -9 -9 -9 -9 -10
-25 -27 -30 -33 -32 -31 -30 -29 -23 -20 -18 -14 -18 -25 -26 -25 -24 -24 -23 -20 -14 -14 -14 -14 -13 -13 -13 -12 -11 -10 -7 -8 -8 -7 -8 -7 -8 -8 -9 -9 -9 -9 -10
-28 -31 -33 -33 -33 -32 -31 -29 -26 -22 -17 -17 -16 -16 -18 -23 -23 -18 -18 -15 -15 -15 -15 -15 -15 -15 -15 -14 -13 -11 -10 -8 -8 -8 -8 -8 -7 -8 -9 -9 -9 -10 -10
-31 -33 -32 -32 -31 -30 -29 -28 -25 -21 -18 -16 -15 -15 -21 -22 -17 -16 -16 -16 -17 -17 -17 -17 -17 -16 -16 -15 -14 -13 -9 -8 -8 -8 -8 -9 -8 -8 -8 -9 -9 -9 -10
-31 -31 -31 -30 -30 -29 -28 -27 -25 -22 -19 -18 -16 -17 -22 -22 -17 -17 -17 -17 -18 -18 -18 -18 -18 -17 -17 -16 -14 -13 -11 -8 -8 -8 -8 -8 -8 -8 -9 -9 -9 -9 -10
-30 -30 -29 -28 -28 -27 -27 -26 -24 -23 -21 -20 -18 -19 -23 -18 -18 -18 -18 -18 -19 -19 -19 -19 -18 -17 -17 -16 -15 -14 -12 -10 -8 -8 -8 -8 -8 -9 -9 -9 -9 -10 -10
-29 -28 -27 -26 -26 -26 -25 -24 -23 -22 -22 -22 -21 -20 -21 -20 -21 -19 -19 -19 -19 -21 -21 -19 -18 -16 -16 -15 -15 -15 -14 -12 -10 -10 -9 -9 -9 -9 -9 -9 -9 -10 -10
-28 -26 -26 -25 -25 -24 -24 -23 -22 -22 -22 -22 -22 -20 -20 -21 -21 -21 -21 -21 -23 -23 -22 -20 -18 -17 -16 -15 -15 -15 -14 -13 -12 -10 -9 -9 -9 -9 -9 -9 -9 -10 -10
-25 -25 -24 -24 -24 -23 -23 -22 -22 -21 -22 -23 -22 -21 -21 -22 -22 -21 -21 -22 -23 -22 -21 -20 -18 -17 -16 -16 -15 -15 -14 -13 -13 -11 -9 -9 -9 -9 -10 -9 -9 -10 -10
-23 -23 -23 -23 -22 -22 -22 -22 -22 -22 -23 -23 -23 -22 -22 -22 -22 -22 -22 -22 -22 -22 -20 -19 -18 -17 -17 -16 -16 -15 -14 -13 -13 -12 -10 -10 -10 -10 -10 -9 -9 -9 -10

GFSGL_850_dewp_033.txt.gz
Dewpoint
11 11 11 11 11 11 10 9 9 9 9 8 8 6 4 3 4 4 0 0 -1 -1 -1 0 0 -1 -3 -5 -6 -6 -6 -7 -7 -8 -8 -9 -9 -9 -9 -8 -9 -10 -11
11 11 11 11 11 11 10 10 10 9 8 8 7 7 6 3 4 2 -1 -0 -2 -1 -3 1 0 -2 -4 -5 -5 -6 -5 -5 -6 -7 -8 -8 -9 -9 -9 -9 -10 -11 -12
10 10 11 11 11 10 10 9 8 8 8 7 7 6 5 3 2 -1 -0 -3 -2 -2 0 -0 -1 -3 -3 -5 -5 -4 -4 -5 -6 -6 -6 -8 -9 -10 -10 -11 -11 -12 -13
10 10 10 10 10 10 10 8 8 8 8 7 6 5 3 3 -1 -2 -4 -2 -2 -0 -0 -0 -1 -2 -3 -3 -4 -3 -4 -4 -4 -5 -6 -8 -9 -10 -10 -12 -12 -14 -14
9 9 10 9 9 8 8 7 6 6 6 6 6 4 3 -1 -2 -3 -2 -1 -2 -1 -1 -1 -1 -2 -2 -3 -3 -4 -4 -4 -4 -5 -6 -7 -10 -10 -11 -13 -13 -13 -14
7 7 7 7 6 6 6 5 6 5 5 4 3 2 0 -3 -4 -2 -3 -2 -1 -1 -1 -1 -1 -1 -2 -3 -4 -4 -4 -4 -5 -5 -5 -6 -9 -10 -11 -12 -12 -13 -14
5 5 5 4 4 4 4 4 3 2 0 -1 -1 -2 -4 -4 -3 -4 -2 -2 -1 -1 -1 -2 -2 -3 -4 -5 -6 -6 -6 -6 -6 -5 -4 -5 -6 -9 -10 -11 -11 -12 -14
3 3 3 3 3 2 2 2 1 0 -1 -2 -3 -4 -2 -1 -1 -2 -2 -1 -2 -2 -2 -2 -4 -5 -6 -6 -7 -6 -6 -5 -5 -6 -5 -6 -5 -8 -11 -11 -11 -12 -12
2 2 2 2 2 1 1 1 0 0 0 0 -0 -1 -2 -4 -3 -1 -1 -2 -3 -3 -4 -5 -5 -5 -6 -6 -6 -6 -6 -6 -5 -5 -6 -5 -5 -9 -15 -12 -12 -12 -12
2 2 1 1 1 1 0 0 1 -0 -0 -1 -2 -2 -2 -2 -3 -3 -5 -7 -8 -5 -5 -5 -5 -5 -5 -5 -5 -6 -7 -6 -5 -4 -5 -5 -7 -8 -13 -15 -14 -12 -11
1 1 1 1 0 0 -1 -1 -2 -3 -4 -4 -4 -3 -3 -4 -4 -4 -6 -7 -8 -9 -9 -8 -6 -6 -5 -5 -5 -4 -5 -7 -5 -4 -4 -6 -8 -9 -11 -11 -11 -14 -11
-0 -1 -1 -2 -4 -3 -3 -4 -6 -5 -5 -4 -4 -4 -4 -4 -4 -5 -6 -10 -13 -15 -23 -24 -19 -22 -28 -23 -11 -7 -6 -5 -6 -5 -4 -5 -6 -7 -9 -10 -10 -10 -10
-2 -4 -5 -6 -6 -6 -6 -6 -7 -6 -6 -6 -9 -8 -8 -8 -8 -9 -11 -19 -31 -32 -28 -27 -31 -30 -28 -24 -20 -19 -14 -6 -6 -6 -6 -6 -6 -8 -8 -7 -9 -10 -10
-4 -5 -6 -7 -8 -9 -10 -12 -11 -10 -15 -15 -11 -10 -10 -11 -10 -15 -27 -34 -31 -27 -25 -28 -27 -19 -11 -9 -9 -9 -9 -10 -9 -6 -6 -6 -6 -6 -7 -7 -8 -8 -9
-7 -8 -10 -13 -12 -12 -15 -18 -23 -28 -35 -36 -29 -30 -26 -28 -18 -29 -28 -27 -27 -25 -24 -22 -12 -11 -11 -11 -11 -10 -9 -8 -8 -7 -6 -6 -6 -6 -6 -7 -8 -8 -9
-10 -11 -14 -17 -16 -14 -14 -15 -22 -26 -31 -34 -34 -33 -32 -31 -28 -27 -27 -27 -26 -22 -14 -12 -12 -12 -12 -12 -12 -11 -10 -10 -9 -7 -7 -6 -7 -6 -7 -7 -8 -8 -9
-11 -18 -24 -20 -17 -18 -19 -16 -13 -13 -22 -22 -23 -27 -30 -29 -27 -26 -26 -26 -21 -13 -13 -13 -13 -13 -14 -13 -13 -13 -12 -11 -10 -8 -7 -7 -6 -6 -7 -7 -8 -8 -9
-21 -23 -16 -15 -19 -23 -17 -21 -15 -13 -12 -11 -12 -14 -18 -25 -26 -25 -25 -21 -13 -13 -13 -14 -14 -14 -14 -14 -14 -14 -13 -13 -11 -11 -7 -8 -7 -7 -7 -8 -8 -8 -9
-17 -18 -25 -29 -33 -33 -30 -23 -18 -14 -13 -13 -13 -14 -13 -19 -24 -18 -14 -14 -14 -14 -14 -15 -15 -15 -15 -15 -15 -15 -14 -14 -13 -11 -9 -7 -8 -7 -7 -7 -8 -8 -9
-27 -31 -32 -28 -26 -25 -22 -19 -15 -14 -13 -13 -13 -13 -14 -23 -22 -14 -15 -15 -15 -15 -16 -16 -16 -16 -17 -17 -16 -15 -15 -14 -13 -11 -9 -8 -8 -8 -8 -8 -8 -9 -9
-21 -30 -32 -28 -24 -25 -26 -23 -20 -16 -14 -14 -14 -14 -17 -22 -17 -15 -15 -16 -16 -17 -17 -17 -18 -18 -18 -17 -17 -17 -16 -15 -14 -13 -10 -8 -8 -8 -8 -8 -8 -8 -9
-30 -30 -29 -28 -27 -25 -26 -25 -20 -15 -15 -15 -15 -15 -16 -17 -16 -17 -17 -17 -18 -18 -18 -19 -19 -19 -19 -19 -18 -17 -16 -15 -15 -14 -12 -10 -8 -9 -8 -8 -8 -8 -9
-29 -29 -27 -26 -26 -25 -20 -17 -16 -15 -16 -16 -16 -16 -17 -17 -18 -18 -18 -19 -19 -19 -20 -20 -20 -19 -18 -18 -17 -17 -16 -16 -15 -14 -13 -11 -10 -9 -9 -9 -9 -9 -9
-28 -27 -25 -23 -21 -23 -17 -17 -16 -17 -17 -17 -17 -17 -18 -18 -18 -19 -19 -19 -20 -20 -21 -20 -20 -19 -19 -17 -17 -16 -16 -16 -15 -14 -13 -12 -10 -9 -9 -9 -9 -9 -9
-26 -24 -20 -18 -17 -17 -17 -17 -17 -18 -18 -18 -18 -19 -19 -19 -19 -20 -20 -21 -21 -21 -21 -21 -20 -19 -18 -18 -17 -17 -16 -16 -15 -14 -13 -12 -10 -9 -9 -9 -9 -9 -9
-19 -17 -17 -17 -17 -18 -18 -18 -19 -19 -19 -19 -20 -20 -20 -20 -21 -21 -21 -22 -22 -21 -22 -20 -20 -19 -19 -18 -18 -17 -16 -16 -15 -14 -13 -12 -11 -9 -9 -9 -9 -9 -9

GFSGL_850_dewp_039.txt.gz
Dewpoint
9 8 8 8 8 9 9 9 8 8 8 8 9 9 8 8 7 8 8 6 4 3 3 3 2 2 1 1 -0 0 0 -1 -3 -4 -5 -5 -6 -7 -7 -8 -8 -8 -8
3 9 9 9 9 10 10 10 10 8 10 10 9 9 8 8 8 7 6 5 3 2 3 2 1 1 1 0 0 1 0 -1 -2 -3 -5 -6 -5 -6 -6 -6 -7 -7 -8
7 6 10 9 9 5 8 8 8 10 10 10 9 8 8 7 8 6 6 4 2 2 2 1 1 0 -0 -0 -0 -0 -1 -1 -1 -2 -3 -3 -4 -4 -4 -4 -5 -5 -6
10 10 9 10 9 10 10 10 10 10 9 8 8 7 7 6 6 5 4 3 2 2 1 1 0 -0 -1 -1 -1 -2 -2 -2 -2 -1 -1 -2 -2 -3 -3 -2 -2 -4 -4
9 10 10 10 11 11 10 10 9 9 8 7 7 7 6 6 5 4 3 2 2 1 -0 -1 -1 -1 -2 -2 -1 -2 -2 -3 -3 -2 -2 -2 -3 -3 -4 -5 -4 -5 -5
9 9 10 11 11 10 9 9 7 7 6 6 6 6 5 5 4 3 2 1 0 -0 -1 -1 -1 -2 -2 -2 -4 -4 -3 -3 -3 -4 -4 -4 -4 -4 -4 -4 -4 -4 -4
10 10 10 9 9 8 5 4 5 5 5 5 5 4 4 3 2 -0 -1 -1 -2 -2 -2 -2 -3 -2 -3 -4 -6 -5 -4 -5 -5 -5 -5 -5 -5 -5 -5 -4 -5 -4 -4
9 9 9 8 6 4 5 5 5 5 4 2 1 0 -1 -1 -2 -2 -2 -2 -2 -3 -3 -2 -3 -4 -5 -5 -5 -6 -6 -7 -6 -5 -5 -5 -4 -5 -4 -4 -5 -4 -4
8 6 4 3 3 3 3 3 3 2 1 -1 -2 -3 -3 -3 -2 -2 -2 -2 -3 -3 -3 -3 -4 -5 -6 -8 -12 -18 -26 -32 -35 -36 -36 -35 -34 -27 -12 -6 -5 -5 -5
3 3 2 2 2 1 2 1 0 -1 -1 -1 -1 -1 -1 -2 -2 -2 -2 -2 -3 -3 -5 -8 -14 -25 -33 -37 -37 -37 -36 -30 -24 -25 -19 -14 -12 -11 -17 -30 -17 -5 -5
2 1 1 1 1 1 1 0 -0 -0 -1 -1 -1 -1 -2 -2 -3 -3 -4 -4 -5 -7 -15 -28 -35 -38 -38 -37 -31 -20 -14 -14 -16 -13 -11 -10 -11 -10 -9 -10 -8 -9 -5
2 1 1 1 1 1 -1 -1 -3 -2 -2 -4 -4 -4 -3 -4 -4 -5 -5 -6 -9 -21 -29 -37 -38 -38 -36 -29 -18 -14 -15 -18 -18 -17 -15 -11 -10 -10 -9 -8 -9 -8 -7
1 1 1 1 -1 -4 -5 -3 -3 -4 -6 -6 -4 -4 -4 -4 -5 -6 -9 -15 -21 -30 -37 -37 -36 -34 -27 -22 -17 -17 -20 -20 -19 -17 -15 -12 -12 -12 -11 -9 -7 -8 -10
1 0 -2 -3 -4 -4 -5 -5 -5 -5 -5 -4 -4 -7 -8 -10 -11 -12 -18 -29 -36 -37 -38 -36 -32 -27 -23 -20 -21 -22 -21 -19 -18 -17 -16 -15 -15 -14 -14 -13 -9 -7 -7
-1 -3 -5 -5 -5 -5 -5 -7 -7 -7 -9 -13 -16 -17 -18 -19 -24 -32 -35 -35 -35 -35 -33 -29 -26 -24 -24 -22 -21 -20 -20 -20 -20 -18 -15 -15 -15 -13 -13 -12 -9 -8 -7
-4 -5 -6 -7 -9 -10 -11 -14 -17 -20 -23 -28 -32 -34 -34 -33 -32 -34 -34 -33 -32 -30 -28 -21 -18 -17 -18 -18 -19 -19 -19 -20 -19 -17 -15 -15 -15 -14 -13 -11 -9 -7 -7
-5 -6 -9 -11 -12 -13 -14 -16 -16 -16 -15 -19 -21 -23 -26 -26 -27 -27 -28 -30 -28 -26 -18 -17 -17 -17 -17 -18 -19 -20 -21 -20 -19 -17 -16 -16 -15 -14 -13 -11 -9 -7 -8
-7 -8 -11 -13 -14 -14 -15 -16 -17 -17 -17 -19 -19 -17 -19 -20 -20 -17 -21 -22 -18 -19 -19 -18 -17 -17 -19 -20 -20 -21 -22 -21 -19 -17 -17 -16 -15 -15 -13 -11 -9 -8 -7
-12 -14 -14 -15 -18 -21 -22 -25 -26 -25 -23 -19 -15 -14 -14 -14 -14 -14 -18 -20 -16 -16 -17 -17 -17 -18 -19 -19 -20 -21 -22 -21 -18 -17 -17 -16 -16 -15 -14 -12 -10 -9 -7
-16 -19 -18 -12 -9 -8 -9 -15 -24 -23 -20 -18 -15 -14 -13 -13 -14 -18 -20 -17 -16 -16 -16 -17 -17 -19 -19 -21 -22 -22 -21 -20 -18 -18 -17 -17 -17 -15 -14 -13 -11 -9 -8
-7 -7 -7 -8 -10 -12 -13 -13 -16 -21 -24 -20 -17 -16 -16 -15 -16 -18 -17 -16 -17 -17 -17 -18 -19 -20 -21 -22 -22 -21 -21 -20 -18 -18 -18 -18 -17 -15 -14 -13 -12 -9 -8
-8 -9 -10 -11 -10 -10 -12 -19 -24 -24 -21 -19 -16 -15 -15 -16 -16 -16 -17 -17 -18 -18 -19 -19 -19 -21 -22 -22 -21 -20 -20 -19 -19 -19 -19 -18 -17 -16 -15 -14 -12 -10 -9
-10 -10 -11 -12 -13 -15 -19 -22 -19 -17 -17 -17 -16 -17 -17 -17 -17 -17 -17 -18 -18 -19 -19 -20 -21 -23 -23 -22 -21 -20 -20 -20 -20 -20 -19 -18 -17 -16 -15 -14 -13 -10 -9
-12 -13 -14 -14 -16 -18 -18 -17 -16 -17 -16 -16 -17 -17 -17 -18 -18 -18 -19 -19 -19 -20 -20 -21 -23 -24 -22 -21 -20 -20 -20 -20 -20 -19 -19 -18 -17 -16 -15 -14 -13 -11 -9
-13 -14 -15 -16 -17 -17 -16 -16 -17 -17 -17 -17 -18 -18 -18 -19 -19 -20 -20 -20 -20 -21 -21 -23 -25 -23 -22 -20 -20 -20 -20 -20 -20 -19 -19 -18 -17 -16 -15 -14 -13 -11 -9
-17 -17 -17 -17 -17 -17 -18 -18 -18 -18 -19 -19 -19 -20 -20 -21 -21 -21 -21 -22 -22 -23 -23 -24 -25 -23 -21 -20 -20 -20 -20 -20 -19 -19 -18 -17 -17 -16 -15 -14 -13 -11 -9

GFSGL_850_dewp_042.txt.gz
Dewpoint
8 8 7 7 8 8 8 9 9 8 9 8 8 7 7 6 8 9 8 8 8 8 6 5 3 2 3 3 2 2 1 1 0 0 -1 -1 -2 -3 -5 -6 -6 -7 -7
7 8 9 10 10 10 10 9 9 10 9 4 6 8 8 9 9 8 8 8 7 7 5 3 2 3 2 2 2 1 0 0 1 -0 -1 -1 -2 -3 -5 -5 -5 -5 -6
9 9 8 7 6 9 8 8 8 10 9 5 6 10 9 8 8 8 8 7 6 5 4 3 3 2 2 1 1 -0 -0 -0 -0 -1 -1 -2 -2 -3 -3 -2 -2 -2 -2
8 8 7 6 3 6 9 9 8 8 9 9 9 9 8 8 7 7 6 5 5 3 3 2 2 1 1 0 -1 -1 -1 -2 -3 -3 -3 -3 -3 -3 -2 -3 -4 -4 -4
7 7 8 7 6 8 9 9 9 9 10 9 9 8 7 6 5 5 5 5 4 3 2 1 1 0 0 -0 -2 -2 -2 -2 -3 -3 -3 -3 -3 -4 -5 -5 -5 -5 -5
8 9 9 9 9 8 8 10 10 9 9 8 7 7 6 5 6 5 4 4 3 2 1 0 -0 -1 -1 -2 -2 -2 -3 -3 -4 -4 -4 -4 -4 -4 -4 -4 -4 -4 -4
9 10 10 10 9 10 10 9 8 8 7 6 6 5 5 5 5 4 3 2 1 0 -0 -0 -1 -2 -3 -3 -3 -4 -6 -6 -5 -4 -5 -5 -6 -8 -10 -9 -8 -6 -5
10 10 10 10 10 9 9 8 8 6 4 5 5 5 5 4 3 2 -0 -1 -1 -1 -1 -2 -3 -3 -3 -3 -5 -9 -11 -13 -18 -25 -31 -36 -33 -28 -19 -15 -13 -11 -20
10 10 9 9 8 7 6 5 5 5 5 3 2 2 1 0 -1 -2 -2 -2 -2 -2 -2 -3 -3 -4 -5 -7 -11 -22 -34 -38 -38 -37 -32 -28 -26 -18 -11 -10 -10 -8 -9
9 9 8 7 6 5 4 3 3 3 1 0 -1 -2 -2 -3 -3 -2 -2 -2 -2 -3 -3 -3 -3 -6 -13 -29 -37 -38 -39 -34 -29 -29 -30 -31 -28 -26 -18 -13 -10 -9 -8
7 7 5 4 2 1 1 1 1 -0 -1 -1 -1 -2 -1 -1 -1 -1 -2 -2 -3 -3 -4 -6 -14 -29 -37 -38 -39 -35 -25 -26 -26 -29 -30 -30 -30 -28 -24 -18 -14 -11 -9
4 3 2 1 1 1 0 0 -0 -1 -2 -2 -1 -1 -2 -2 -2 -2 -3 -3 -4 -5 -10 -23 -34 -37 -37 -37 -32 -25 -25 -27 -27 -28 -29 -29 -29 -28 -24 -21 -18 -18 -14
2 1 1 1 1 1 0 -0 -1 -0 -1 -1 -1 -1 -2 -3 -4 -4 -5 -5 -8 -13 -26 -35 -37 -36 -33 -28 -23 -25 -25 -25 -25 -26 -26 -25 -24 -23 -19 -18 -15 -15 -14
2 2 1 1 1 1 0 -2 -3 -3 -4 -5 -5 -5 -4 -4 -5 -6 -8 -10 -18 -32 -35 -34 -33 -31 -26 -24 -24 -22 -22 -23 -23 -23 -23 -23 -22 -19 -17 -15 -14 -13 -11
2 2 1 0 -2 -3 -3 -2 -2 -3 -4 -4 -4 -5 -6 -8 -9 -10 -15 -29 -34 -34 -34 -32 -27 -24 -24 -23 -22 -22 -23 -24 -26 -24 -22 -21 -18 -17 -16 -15 -14 -12 -11
1 0 -1 -2 -3 -4 -5 -5 -5 -6 -7 -8 -9 -10 -11 -14 -22 -29 -31 -31 -31 -32 -29 -24 -21 -21 -20 -21 -22 -24 -24 -25 -26 -25 -21 -19 -17 -17 -16 -15 -14 -12 -11
-1 -4 -6 -6 -7 -8 -9 -11 -14 -17 -19 -20 -22 -23 -24 -22 -22 -23 -22 -23 -26 -26 -22 -22 -21 -20 -20 -21 -22 -23 -23 -24 -24 -24 -21 -18 -17 -17 -16 -15 -14 -12 -11
-5 -7 -8 -9 -11 -12 -13 -14 -16 -16 -17 -16 -13 -12 -14 -20 -20 -17 -16 -16 -18 -21 -21 -20 -20 -19 -19 -20 -21 -22 -24 -25 -25 -24 -20 -18 -17 -17 -17 -15 -14 -13 -12
-7 -9 -10 -11 -13 -14 -16 -14 -12 -10 -8 -9 -11 -13 -13 -13 -12 -14 -14 -16 -20 -18 -18 -18 -18 -18 -18 -20 -22 -24 -24 -24 -23 -22 -20 -18 -18 -18 -17 -16 -15 -14 -12
-6 -6 -9 -12 -9 -8 -9 -8 -9 -10 -11 -11 -12 -12 -12 -13 -13 -14 -16 -19 -19 -17 -17 -18 -18 -18 -19 -21 -23 -24 -23 -23 -22 -20 -19 -19 -18 -18 -17 -16 -15 -14 -13
-8 -8 -7 -8 -8 -9 -9 -10 -11 -11 -12 -12 -13 -13 -14 -14 -15 -16 -17 -17 -17 -17 -18 -18 -18 -19 -20 -22 -23 -23 -23 -21 -20 -19 -19 -19 -19 -18 -18 -16 -15 -14 -13
-8 -8 -9 -9 -10 -10 -11 -11 -12 -13 -14 -14 -14 -15 -15 -15 -16 -16 -17 -17 -17 -18 -18 -19 -19 -20 -21 -23 -23 -23 -22 -20 -20 -20 -20 -19 -19 -19 -18 -17 -15 -14 -14
-9 -10 -10 -11 -12 -12 -13 -14 -14 -15 -15 -15 -16 -16 -16 -17 -17 -17 -18 -18 -19 -19 -19 -20 -20 -20 -23 -24 -24 -21 -20 -20 -20 -20 -20 -20 -19 -19 -18 -17 -16 -15 -14
-11 -12 -13 -14 -14 -15 -15 -16 -16 -17 -16 -16 -17 -17 -18 -18 -18 -19 -19 -20 -20 -20 -20 -21 -21 -22 -23 -25 -23 -21 -21 -21 -20 -20 -20 -20 -19 -18 -17 -17 -16 -15 -14
-13 -14 -14 -15 -17 -18 -17 -17 -17 -18 -18 -18 -19 -19 -19 -20 -20 -21 -21 -21 -22 -22 -22 -22 -23 -24 -24 -25 -22 -21 -20 -20 -20 -20 -20 -20 -19 -18 -17 -17 -16 -15 -14
-18 -18 -19 -19 -18 -18 -18 -18 -18 -19 -19 -20 -20 -20 -21 -21 -22 -22 -23 -23 -23 -23 -23 -24 -25 -25 -25 -24 -22 -20 -20 -20 -20 -20 -20 -19 -19 -18 -17 -17 -16 -15 -14

GFSGL_850_dewp_045.txt.gz
Dewpoint
2 1 1 1 3 4 4 5 5 6 7 8 9 9 7 8 9 9 9 8 8 9 8 7 7 7 6 4 3 3 3 2 1 1 1 0 0 0 -1 -1 -2 -3 -5
5 5 4 4 4 5 6 6 7 8 8 7 8 9 3 6 7 8 9 8 9 8 8 7 7 5 5 3 3 3 2 2 1 0 -0 -0 -1 -1 -1 -2 -3 -3 -3
7 7 7 7 7 7 7 5 6 8 9 9 6 5 6 5 6 7 9 9 9 8 7 6 5 4 3 3 3 2 1 1 -0 -1 -1 -2 -2 -3 -4 -4 -4 -5 -5
7 8 8 8 8 8 8 8 8 9 9 6 8 4 5 5 6 9 8 8 7 6 6 5 4 3 3 2 1 1 1 -1 -1 -2 -3 -3 -3 -3 -4 -4 -4 -6 -7
6 7 8 8 9 9 9 9 8 10 10 9 8 8 8 9 9 8 8 7 6 5 4 4 3 2 1 1 1 0 -0 -2 -3 -3 -3 -3 -4 -5 -6 -6 -5 -6 -8
5 5 7 8 9 9 9 8 8 10 10 10 9 9 9 9 8 7 6 5 4 5 4 3 2 1 1 -0 -0 -1 -2 -3 -3 -4 -5 -6 -8 -9 -9 -11 -17 -22 -25
5 6 7 8 9 9 9 8 8 9 10 10 9 9 8 7 6 5 5 5 4 4 3 1 1 0 -0 -1 -2 -3 -3 -3 -4 -7 -9 -12 -21 -32 -31 -29 -20 -17 -17
7 8 8 9 9 9 9 10 10 9 9 9 8 7 6 6 5 5 5 4 3 2 1 0 -0 -0 -1 -2 -3 -4 -5 -7 -10 -19 -34 -35 -30 -28 -27 -25 -22 -19 -21
8 8 8 9 10 10 10 10 9 9 8 7 6 5 5 4 4 4 3 2 1 0 0 -1 -1 -2 -3 -4 -6 -7 -12 -26 -36 -37 -36 -33 -35 -36 -32 -30 -27 -11 -12
9 9 9 8 10 10 10 9 8 7 6 4 4 4 3 3 2 1 0 -1 -1 -1 -1 -2 -3 -4 -4 -4 -10 -24 -36 -37 -37 -33 -35 -36 -34 -32 -30 -27 -22 -19 -18
10 10 10 10 9 9 8 7 6 5 4 3 1 1 1 0 -0 -1 -1 -2 -2 -2 -3 -4 -4 -4 -8 -22 -35 -37 -33 -31 -30 -31 -32 -31 -30 -29 -28 -26 -23 -18 -17
9 9 9 8 7 6 6 5 4 3 1 0 -1 -1 -1 -2 -2 -2 -2 -3 -3 -3 -3 -4 -7 -18 -32 -37 -36 -30 -28 -27 -28 -28 -28 -28 -28 -27 -26 -25 -23 -20 -16
7 6 5 4 3 2 2 1 0 -1 -1 -1 -1 -1 -2 -2 -2 -2 -3 -3 -4 -4 -6 -12 -25 -35 -36 -32 -26 -24 -26 -27 -28 -29 -29 -28 -28 -26 -25 -25 -24 -20 -17
5 4 3 2 1 1 0 -0 -0 -0 -1 -1 -1 -2 -3 -3 -3 -3 -4 -5 -6 -9 -18 -32 -34 -33 -30 -25 -24 -25 -26 -27 -28 -28 -29 -29 -28 -27 -26 -23 -23 -19 -16
3 2 2 1 1 0 -0 -0 -1 -1 -1 -2 -2 -2 -3 -3 -4 -5 -7 -10 -15 -28 -32 -31 -28 -25 -23 -23 -25 -26 -26 -27 -27 -28 -28 -28 -28 -28 -24 -21 -19 -17 -15
2 2 2 1 0 -0 -1 -2 -2 -3 -3 -4 -4 -4 -4 -6 -8 -9 -15 -25 -28 -28 -28 -26 -24 -22 -22 -22 -23 -24 -25 -25 -25 -27 -28 -27 -26 -24 -21 -20 -18 -17 -15
2 1 0 -1 -2 -3 -3 -3 -4 -6 -7 -8 -10 -11 -13 -18 -22 -21 -20 -19 -19 -19 -20 -20 -20 -19 -19 -20 -20 -21 -22 -23 -25 -26 -26 -25 -24 -22 -20 -19 -18 -17 -15
0 -1 -2 -4 -6 -7 -10 -12 -11 -12 -15 -16 -13 -12 -10 -9 -10 -11 -11 -11 -12 -13 -17 -18 -17 -16 -16 -18 -19 -20 -22 -24 -25 -25 -24 -23 -22 -20 -19 -18 -18 -16 -15
-7 -9 -9 -9 -8 -6 -6 -7 -10 -10 -8 -8 -9 -10 -10 -11 -12 -12 -12 -13 -14 -14 -15 -15 -15 -17 -18 -19 -20 -21 -23 -24 -24 -24 -23 -22 -21 -20 -19 -18 -18 -17 -15
-4 -5 -5 -6 -7 -7 -8 -8 -8 -9 -9 -10 -11 -12 -12 -13 -13 -13 -14 -14 -15 -15 -16 -16 -17 -18 -19 -19 -20 -22 -25 -25 -25 -23 -22 -21 -20 -20 -19 -19 -18 -17 -16
-6 -7 -8 -8 -8 -8 -9 -9 -10 -11 -12 -12 -13 -13 -13 -14 -14 -15 -15 -16 -16 -17 -17 -17 -18 -19 -19 -20 -21 -23 -25 -25 -23 -21 -21 -21 -21 -20 -20 -19 -18 -17 -16
-8 -8 -9 -9 -10 -11 -11 -12 -12 -13 -13 -14 -14 -15 -15 -15 -16 -16 -17 -17 -18 -18 -18 -19 -19 -20 -20 -21 -21 -23 -25 -24 -22 -21 -21 -21 -20 -20 -20 -19 -18 -17 -16
-9 -10 -10 -11 -12 -12 -13 -13 -14 -15 -15 -16 -16 -16 -17 -17 -17 -18 -18 -19 -19 -20 -20 -20 -21 -21 -21 -21 -22 -23 -25 -23 -21 -21 -21 -20 -20 -20 -19 -19 -18 -17 -17
-11 -12 -12 -13 -13 -14 -15 -15 -16 -17 -17 -17 -18 -18 -19 -19 -19 -20 -21 -21 -22 -22 -22 -22 -22 -22 -23 -23 -24 -24 -24 -22 -21 -21 -21 -20 -20 -20 -19 -19 -18 -18 -17
-13 -14 -15 -18 -19 -19 -19 -19 -19 -19 -19 -19 -19 -20 -20 -21 -21 -22 -22 -23 -23 -23 -23 -23 -23 -23 -24 -25 -25 -25 -24 -22 -21 -21 -20 -20 -20 -20 -19 -19 -18 -17 -17
-22 -22 -22 -21 -21 -20 -20 -20 -20 -20 -21 -21 -22 -22 -22 -22 -22 -23 -23 -23 -24 -24 -24 -25 -25 -25 -25 -25 -25 -25 -23 -21 -20 -20 -20 -20 -20 -20 -19 -19 -18 -17 -16

GFSGL_850_dewp_048.txt.gz
Dewpoint
-0 -1 0 1 1 1 1 0 1 1 0 1 2 2 4 6 7 9 9 7 6 9 9 9 8 8 8 6 6 6 5 4 3 3 2 2 2 1 -0 -1 -1 -1 -2
4 1 0 -0 -0 1 2 2 3 4 3 2 3 5 6 6 8 8 9 7 7 8 8 8 8 8 7 6 6 5 4 3 3 2 1 1 1 -1 -2 -2 -3 -3 -4
5 5 4 2 2 1 0 1 2 4 4 6 6 7 8 6 7 8 6 7 5 7 8 8 8 7 6 6 5 4 3 3 2 1 1 0 -1 -2 -3 -3 -4 -6 -7
5 5 6 5 5 4 4 4 3 4 5 6 7 7 8 8 8 5 5 6 7 8 8 7 6 6 5 5 4 3 2 2 1 1 -0 -2 -3 -3 -4 -6 -10 -16 -22
4 5 4 5 6 6 6 7 7 7 7 8 8 9 9 8 7 4 5 7 8 8 7 6 6 5 4 3 3 2 1 1 0 -0 -1 -3 -4 -6 -11 -15 -22 -34 -36
2 2 3 5 6 7 8 8 8 8 8 9 10 9 10 9 10 9 7 9 8 7 6 5 4 3 3 2 1 1 0 -0 -2 -2 -4 -5 -8 -12 -19 -35 -36 -37 -35
2 3 4 5 6 8 8 9 9 9 9 10 9 10 9 9 9 9 8 7 7 6 5 4 4 2 2 1 0 -0 -1 -2 -3 -3 -5 -9 -16 -33 -36 -36 -36 -38 -37
4 4 5 6 7 8 9 9 10 10 10 10 9 9 8 9 8 7 7 6 5 4 4 3 2 1 1 -0 -1 -1 -2 -3 -5 -7 -14 -30 -36 -34 -34 -36 -36 -36 -36
4 5 6 7 8 9 10 10 10 9 9 8 8 8 8 7 7 6 6 5 4 3 2 1 1 0 -0 -1 -2 -3 -4 -7 -13 -28 -36 -35 -31 -34 -34 -34 -32 -29 -32
6 6 8 8 9 10 9 9 8 8 8 8 7 6 6 5 5 5 4 4 3 2 1 0 -0 -1 -2 -3 -3 -5 -8 -24 -35 -35 -32 -32 -34 -34 -32 -30 -28 -27 -26
8 8 9 10 10 9 9 9 8 8 7 6 5 4 4 4 3 3 2 2 1 0 -0 -1 -2 -3 -3 -4 -5 -15 -31 -36 -35 -34 -34 -35 -34 -33 -32 -30 -28 -26 -25
9 10 10 9 9 9 8 8 7 6 5 4 4 3 2 2 1 0 -0 -1 -1 -2 -2 -3 -4 -4 -5 -9 -24 -35 -35 -34 -31 -31 -32 -32 -32 -32 -31 -30 -29 -27 -24
10 10 10 9 8 7 6 6 5 4 3 3 1 1 0 -0 -0 -1 -1 -2 -3 -4 -4 -4 -4 -7 -16 -32 -32 -30 -29 -27 -28 -29 -29 -30 -30 -30 -30 -29 -28 -26 -25
9 9 8 7 6 5 4 4 3 3 1 0 -1 -1 -1 -1 -2 -2 -2 -3 -4 -4 -4 -7 -15 -28 -32 -30 -27 -25 -25 -27 -28 -28 -28 -29 -29 -29 -29 -29 -28 -27 -26
7 6 5 4 3 2 1 0 -0 -1 -1 -1 -1 -1 -2 -2 -3 -3 -4 -4 -5 -7 -13 -25 -30 -25 -23 -24 -23 -24 -25 -26 -26 -26 -27 -28 -29 -29 -29 -28 -26 -25 -22
4 3 2 2 1 1 1 0 -0 -1 -1 -1 -2 -2 -3 -4 -4 -5 -5 -7 -11 -21 -27 -26 -24 -24 -23 -23 -23 -23 -21 -18 -20 -24 -26 -27 -28 -28 -28 -27 -24 -22 -21
2 2 1 1 1 0 -0 -1 -1 -3 -4 -4 -4 -5 -6 -6 -6 -8 -15 -22 -22 -20 -12 -11 -11 -13 -13 -14 -14 -14 -16 -19 -22 -24 -26 -26 -26 -26 -25 -24 -23 -21 -20
1 1 -0 -1 -2 -3 -4 -4 -5 -5 -5 -6 -7 -8 -12 -14 -13 -10 -10 -12 -12 -12 -12 -13 -14 -14 -15 -15 -16 -16 -18 -21 -22 -24 -25 -25 -24 -23 -22 -21 -21 -20 -19
-1 -2 -3 -4 -4 -5 -6 -6 -7 -7 -8 -8 -9 -10 -10 -11 -11 -12 -12 -12 -13 -14 -14 -15 -15 -16 -16 -17 -17 -19 -20 -21 -24 -25 -24 -24 -22 -21 -21 -21 -21 -20 -19
-5 -5 -5 -6 -6 -7 -7 -8 -8 -9 -10 -11 -11 -12 -12 -12 -13 -13 -14 -14 -15 -16 -16 -16 -17 -17 -18 -18 -19 -20 -20 -21 -24 -25 -24 -22 -21 -21 -21 -21 -20 -20 -19
-6 -7 -7 -8 -8 -8 -9 -9 -10 -11 -11 -12 -13 -13 -14 -14 -15 -15 -16 -16 -17 -17 -17 -18 -18 -19 -19 -19 -20 -20 -21 -22 -24 -24 -23 -22 -21 -21 -21 -20 -20 -19 -19
-8 -8 -9 -9 -10 -10 -11 -11 -12 -12 -13 -14 -14 -15 -15 -16 -16 -17 -17 -17 -18 -18 -19 -19 -20 -20 -20 -21 -21 -21 -22 -23 -24 -24 -22 -21 -21 -21 -20 -20 -20 -19 -19
-9 -10 -10 -11 -12 -12 -13 -13 -14 -15 -15 -16 -16 -17 -17 -18 -19 -19 -20 -20 -21 -21 -22 -22 -22 -22 -23 -22 -23 -23 -23 -24 -24 -24 -22 -21 -21 -21 -20 -20 -20 -19 -19
-11 -12 -12 -13 -14 -15 -17 -18 -19 -19 -19 -19 -19 -20 -20 -21 -21 -21 -22 -22 -23 -23 -24 -24 -24 -24 -24 -24 -25 -25 -25 -25 -24 -23 -22 -22 -21 -21 -21 -20 -20 -19 -19
-19 -21 -22 -22 -22 -21 -21 -21 -20 -21 -21 -21 -22 -22 -23 -23 -22 -23 -23 -23 -24 -24 -24 -25 -25 -25 -26 -26 -25 -25 -25 -25 -24 -22 -22 -22 -21 -21 -21 -20 -20 -19 -19
-26 -26 -26 -25 -25 -24 -24 -24 -24 -24 -24 -24 -24 -25 -24 -24 -24 -25 -25 -25 -26 -26 -25 -25 -25 -25 -25 -25 -25 -25 -25 -25 -23 -22 -22 -21 -21 -21 -21 -20 -20 -19 -19

GFSGL_850_dewp_051.txt.gz
Dewpoint
-1 -2 0 1 2 2 2 2 1 2 2 2 2 3 3 3 3 3 2 2 7 7 5 7 7 7 7 8 8 8 7 6 6 5 4 3 3 2 2 2 1 -2 -2
4 1 -1 -1 0 1 -0 0 1 2 2 3 2 1 1 2 2 1 1 5 8 7 7 8 7 7 7 8 8 7 6 6 5 4 3 3 2 1 1 0 -2 -3 -3
5 5 3 1 -0 -1 -1 -1 0 0 0 2 4 3 4 3 2 3 6 7 8 6 7 7 6 7 8 7 7 6 6 4 4 3 3 2 1 1 -0 -2 -3 -4 -7
5 5 5 5 4 3 1 1 0 -0 1 1 2 3 4 5 5 6 8 8 9 7 6 6 8 8 7 7 6 5 4 3 3 2 1 1 0 -0 -1 -3 -7 -13 -20
5 5 4 5 5 5 4 3 2 2 2 2 1 2 3 4 5 6 8 9 9 9 8 6 8 7 6 5 5 4 3 3 2 1 0 -0 -1 -3 -5 -8 -14 -29 -36
1 1 3 4 5 5 6 6 6 5 4 4 4 5 6 6 7 8 9 9 9 7 7 8 7 6 5 4 4 3 2 1 1 0 -1 -2 -3 -6 -9 -18 -34 -33 -21
-3 -1 1 3 3 4 5 7 7 7 8 8 7 8 8 9 9 9 9 9 8 8 8 6 6 5 4 3 2 1 0 -0 -0 -1 -2 -3 -7 -13 -30 -35 -33 -30 -22
-2 -2 0 2 2 4 6 7 8 9 9 9 9 9 9 9 9 9 8 8 7 7 6 5 5 4 3 2 1 0 -0 -1 -2 -2 -7 -11 -22 -35 -35 -34 -35 -35 -29
-1 -0 1 3 4 5 6 7 9 9 10 10 9 9 9 9 9 8 8 7 6 5 4 4 3 3 2 1 -1 -1 -2 -3 -4 -8 -16 -31 -35 -34 -34 -35 -32 -24 -22
-0 2 3 4 6 6 8 9 9 9 9 9 9 9 8 7 7 6 6 5 5 4 4 3 1 1 -0 -1 -2 -3 -3 -4 -10 -25 -33 -32 -33 -32 -35 -34 -33 -32 -25
3 5 6 7 8 9 9 9 9 9 8 8 7 7 6 5 5 4 4 4 3 3 2 0 -1 -1 -2 -3 -3 -4 -6 -15 -31 -34 -33 -32 -32 -34 -34 -34 -33 -31 -30
7 8 9 9 9 9 9 9 8 8 7 6 5 4 3 3 3 2 2 1 1 1 -1 -1 -2 -3 -3 -4 -5 -9 -23 -34 -33 -31 -30 -31 -33 -34 -34 -34 -33 -33 -32
9 9 9 9 9 9 8 8 7 6 4 4 3 3 2 1 1 -0 -1 -1 -1 -2 -2 -3 -4 -4 -5 -8 -16 -31 -30 -25 -26 -25 -27 -30 -31 -31 -28 -24 -29 -32 -32
9 9 8 8 8 7 6 5 4 4 3 3 2 1 1 -0 -1 -1 -2 -2 -2 -3 -3 -4 -5 -8 -17 -28 -24 -17 -19 -23 -26 -27 -28 -28 -24 -18 -20 -29 -30 -31 -30
8 8 7 6 6 5 4 3 2 2 1 0 -0 -0 -1 -1 -2 -2 -3 -3 -4 -5 -5 -7 -13 -22 -28 -24 -22 -21 -22 -22 -24 -21 -15 -13 -13 -16 -24 -28 -28 -27 -23
7 6 4 4 3 2 1 -0 -1 -1 -1 -1 -1 -2 -2 -3 -3 -4 -4 -5 -6 -6 -9 -19 -24 -19 -16 -13 -12 -13 -13 -13 -13 -14 -14 -14 -16 -23 -26 -27 -25 -20 -18
4 2 2 1 1 0 -0 -1 -1 -4 -3 -4 -4 -5 -5 -6 -6 -6 -7 -9 -15 -16 -11 -10 -10 -11 -12 -13 -14 -14 -15 -15 -15 -16 -16 -21 -24 -24 -25 -22 -19 -18 -18
2 2 -0 -2 -2 -3 -3 -3 -4 -4 -5 -6 -7 -7 -7 -7 -8 -9 -9 -9 -10 -11 -11 -12 -13 -14 -14 -15 -15 -16 -16 -17 -17 -20 -22 -23 -24 -23 -21 -19 -19 -19 -18
-2 -2 -3 -4 -5 -4 -5 -5 -5 -6 -7 -7 -8 -9 -10 -10 -11 -11 -11 -12 -13 -13 -14 -15 -15 -16 -16 -16 -17 -17 -18 -20 -20 -21 -22 -24 -23 -22 -20 -20 -20 -20 -20
-4 -4 -4 -5 -6 -6 -6 -7 -7 -8 -9 -10 -11 -11 -12 -12 -13 -13 -14 -14 -15 -15 -16 -16 -17 -17 -18 -18 -19 -19 -20 -20 -21 -21 -21 -21 -21 -21 -21 -21 -21 -20 -20
-6 -6 -6 -7 -7 -8 -8 -9 -10 -10 -11 -12 -12 -13 -13 -14 -14 -15 -16 -16 -17 -17 -18 -18 -18 -19 -19 -20 -20 -20 -21 -22 -22 -22 -22 -22 -23 -22 -22 -22 -22 -21 -21
-8 -8 -8 -8 -9 -10 -10 -11 -12 -12 -13 -13 -14 -15 -15 -16 -16 -17 -18 -18 -19 -19 -20 -20 -21 -22 -22 -23 -23 -23 -23 -23 -23 -24 -23 -23 -23 -23 -23 -22 -22 -22 -21
-10 -10 -10 -11 -11 -12 -12 -13 -14 -14 -15 -16 -17 -18 -19 -20 -21 -21 -22 -22 -22 -23 -23 -24 -24 -24 -24 -24 -24 -25 -25 -25 -25 -25 -24 -24 -24 -24 -23 -23 -22 -22 -22
-11 -12 -13 -14 -15 -18 -20 -21 -21 -21 -21 -22 -22 -23 -23 -23 -23 -23 -23 -24 -24 -25 -25 -25 -25 -25 -25 -25 -26 -25 -25 -25 -25 -25 -24 -24 -23 -22 -23 -23 -23 -22 -22
-25 -25 -25 -25 -25 -26 -25 -25 -25 -25 -25 -25 -25 -25 -25 -25 -25 -25 -26 -26 -26 -26 -26 -26 -26 -25 -26 -26 -25 -25 -25 -25 -25 -25 -24 -23 -22 -22 -22 -21 -21 -22 -22
-30 -30 -29 -29 -28 -28 -27 -26 -26 -26 -26 -26 -26 -26 -26 -26 -26 -26 -26 -25 -25 -25 -26 -26 -26 -26 -26 -25 -25 -25 -25 -25 -25 -23 -22 -22 -22 -22 -21 -21 -21 -21 -22

GFSGL_850_dewp_054.txt.gz
Dewpoint
8 8 9 8 9 9 8 8 8 6 5 5 4 3 4 3 3 5 6 6 6 5 7 3 3 6 7 7 7 6 7 6 7 6 6 5 5 4 3 3 2 2 2
7 8 7 8 8 8 7 5 5 6 7 6 6 5 5 6 6 6 7 6 7 8 4 2 5 7 6 7 7 7 7 8 7 6 5 5 4 3 3 3 2 2 -0
8 7 5 5 6 4 2 3 5 6 7 7 7 7 7 6 7 5 4 5 7 5 3 4 5 7 5 7 7 7 8 7 6 5 5 4 3 3 2 2 1 0 -0
8 8 7 4 1 -1 -1 2 2 1 3 2 4 5 5 4 5 5 4 5 7 3 4 8 8 8 5 7 7 8 7 7 5 4 4 3 3 2 1 0 -1 -1 -4
8 8 6 5 5 4 3 2 1 2 1 2 4 5 5 7 6 8 8 6 6 6 7 9 9 8 7 7 7 7 6 5 4 3 3 2 2 1 -0 -1 -4 -6 -9
5 4 6 7 6 5 6 6 6 4 3 4 5 7 7 7 4 4 5 5 5 7 9 9 9 8 9 7 7 6 5 4 4 3 2 1 0 -1 -2 -5 -7 -11 -13
3 5 6 6 6 6 6 6 7 8 8 8 8 8 8 8 8 6 5 6 8 9 9 9 8 8 7 7 5 4 4 3 2 2 1 -0 -1 -4 -5 -8 -11 -11 -12
3 5 6 5 5 7 7 7 8 8 8 9 9 8 9 9 9 9 9 9 9 9 8 8 8 7 6 5 4 3 2 2 0 -0 -1 -2 -3 -7 -16 -23 -22 -20 -17
4 1 2 5 7 8 7 8 9 9 9 9 9 9 9 9 9 9 9 9 9 8 7 7 5 5 4 3 3 2 1 -0 -1 -2 -2 -4 -12 -28 -34 -33 -27 -13 -12
3 6 6 6 8 8 9 9 7 8 9 9 9 9 9 9 9 8 8 8 7 6 5 4 3 3 3 1 -0 -0 -1 -2 -3 -3 -6 -22 -33 -34 -34 -34 -25 -17 -13
5 4 6 8 9 8 7 8 8 9 9 9 9 8 8 8 7 6 6 5 5 5 4 3 1 0 -1 -1 -2 -3 -3 -4 -6 -15 -29 -30 -30 -30 -30 -30 -27 -21 -14
3 4 5 6 7 7 8 9 9 9 9 8 8 7 6 5 4 3 3 3 3 3 2 0 -1 -2 -2 -3 -3 -4 -5 -8 -19 -30 -28 -26 -22 -20 -18 -15 -23 -23 -19
6 8 8 8 9 9 9 9 8 8 7 7 5 4 3 2 1 1 1 1 0 0 -1 -2 -3 -3 -4 -4 -5 -8 -19 -26 -21 -19 -14 -12 -13 -12 -19 -25 -19 -15 -14
8 9 9 9 8 8 8 7 7 6 5 4 3 3 2 1 0 -0 -1 -2 -2 -2 -3 -3 -4 -5 -6 -8 -11 -18 -17 -15 -12 -12 -12 -12 -14 -17 -13 -13 -13 -15 -18
8 7 7 7 7 5 5 4 3 2 2 2 1 1 0 -1 -2 -2 -2 -3 -3 -4 -5 -6 -7 -9 -10 -12 -15 -19 -17 -12 -12 -13 -13 -14 -14 -14 -14 -15 -15 -16 -15
5 4 3 3 3 3 2 1 -0 -0 -0 -1 -1 -1 -2 -2 -3 -4 -5 -5 -6 -6 -7 -8 -9 -10 -11 -11 -12 -13 -13 -14 -14 -14 -14 -15 -16 -16 -16 -16 -16 -15 -15
2 2 1 1 0 -1 -1 -2 -3 -4 -4 -4 -4 -4 -5 -6 -7 -7 -6 -6 -7 -8 -10 -10 -11 -12 -12 -13 -13 -14 -15 -16 -15 -17 -17 -17 -17 -17 -17 -16 -16 -16 -16
-2 -1 -1 -2 -3 -3 -4 -4 -5 -5 -6 -8 -7 -7 -7 -7 -8 -8 -9 -10 -10 -11 -12 -12 -13 -14 -14 -15 -15 -16 -17 -17 -17 -18 -18 -18 -18 -18 -17 -17 -17 -17 -17
-2 -3 -4 -4 -5 -6 -6 -6 -7 -7 -8 -9 -10 -10 -11 -11 -11 -11 -11 -12 -13 -13 -14 -14 -15 -16 -16 -17 -17 -18 -18 -18 -19 -19 -19 -19 -19 -19 -19 -18 -18 -18 -18
-4 -5 -5 -5 -6 -6 -7 -7 -8 -9 -9 -10 -11 -12 -12 -13 -12 -13 -13 -14 -15 -15 -16 -16 -17 -18 -18 -18 -19 -19 -19 -19 -19 -20 -20 -20 -20 -20 -20 -19 -19 -19 -18
-6 -6 -6 -7 -7 -8 -8 -9 -10 -10 -11 -12 -12 -13 -13 -14 -15 -15 -16 -17 -17 -17 -18 -18 -19 -19 -19 -20 -20 -20 -21 -21 -21 -21 -21 -21 -21 -21 -21 -20 -20 -20 -19
-7 -8 -8 -9 -9 -10 -11 -12 -13 -13 -14 -15 -15 -15 -15 -16 -17 -17 -18 -19 -20 -19 -20 -20 -20 -21 -21 -21 -22 -22 -22 -22 -22 -22 -22 -22 -22 -22 -22 -21 -21 -20 -20
-10 -11 -11 -12 -12 -12 -13 -14 -15 -15 -16 -16 -17 -17 -18 -18 -19 -19 -20 -20 -20 -22 -25 -26 -26 -26 -24 -25 -25 -23 -23 -23 -24 -24 -24 -23 -23 -23 -23 -22 -22 -21 -21
-14 -15 -16 -18 -17 -16 -16 -17 -19 -20 -18 -18 -18 -19 -19 -20 -20 -22 -25 -26 -27 -26 -26 -27 -27 -26 -26 -26 -26 -25 -24 -24 -24 -25 -25 -25 -24 -24 -23 -23 -22 -22 -21
-28 -27 -26 -21 -19 -19 -19 -19 -19 -19 -19 -19 -20 -20 -20 -21 -21 -21 -24 -26 -26 -26 -26 -26 -26 -26 -26 -26 -26 -26 -25 -25 -25 -25 -25 -24 -24 -25 -24 -23 -23 -22 -22
-31 -30 -27 -25 -24 -21 -20 -21 -23 -23 -23 -23 -22 -22 -23 -23 -23 -27 -27 -27 -27 -27 -26 -25 -26 -26 -26 -26 -25 -25 -25 -25 -25 -25 -24 -22 -22 -24 -24 -23 -23 -23 -22

GFSGL_850_dewp_057.txt.gz
Dewpoint
8 9 9 9 9 9 9 8 8 8 7 7 6 5 5 6 6 7 6 5 6 6 6 7 7 7 7 7 7 7 7 7 7 6 6 6 6 6 6 6 5 5 4
7 8 9 9 9 9 9 9 9 9 8 8 7 6 6 6 7 7 7 7 7 7 7 7 7 6 7 7 6 6 5 4 7 7 6 7 6 6 5 5 5 3 3
7 8 8 8 9 9 8 9 9 9 9 8 8 8 7 7 7 7 7 7 7 7 7 8 8 7 8 7 6 6 6 4 5 7 7 6 5 5 4 4 3 3 3
8 8 8 7 5 5 7 8 8 9 9 9 9 8 8 8 8 8 8 8 7 7 8 8 7 9 6 6 7 8 7 7 7 7 6 5 5 4 3 3 3 2 2
9 8 8 7 7 8 9 9 8 8 8 8 8 8 8 8 8 8 8 7 7 7 7 8 7 7 7 9 8 8 6 7 7 7 5 4 4 3 3 3 2 1 -0
9 9 8 9 9 9 9 9 9 8 9 8 8 8 8 8 8 7 7 7 7 7 7 8 8 8 7 8 9 8 7 8 7 6 4 4 3 3 2 1 0 -1 -4
8 9 9 9 9 9 9 9 9 8 9 8 8 8 8 8 8 7 7 7 8 8 8 8 7 7 9 8 8 8 7 7 5 4 3 3 3 1 0 -1 -2 -4 -7
7 8 8 9 9 9 9 9 9 9 9 8 9 8 8 8 8 8 8 8 8 8 8 8 8 9 8 8 7 6 4 4 3 2 2 1 -0 -1 -2 -3 -5 -10 -11
5 7 8 8 8 8 9 9 9 9 9 9 9 9 9 9 8 8 8 9 9 9 8 8 7 7 7 7 5 4 3 2 1 1 -0 -2 -2 -3 -5 -10 -15 -19 -14
2 6 7 8 8 8 8 8 9 9 9 9 9 9 9 9 9 9 9 9 9 8 8 7 6 5 5 4 3 2 2 0 -1 -2 -3 -3 -5 -10 -14 -20 -31 -24 -16
2 3 7 8 8 8 8 9 9 9 9 9 9 9 9 9 9 8 8 7 7 6 5 4 2 1 1 1 0 -0 -1 -2 -3 -4 -5 -7 -10 -17 -22 -25 -25 -22 -17
6 5 6 7 8 9 9 9 9 10 9 9 8 8 8 7 8 6 4 4 4 4 2 0 -1 -1 -1 -2 -3 -3 -3 -4 -5 -7 -11 -17 -17 -15 -13 -13 -11 -11 -12
8 7 7 8 9 9 9 10 9 9 9 8 7 6 6 4 4 4 1 2 1 1 -0 -1 -2 -3 -3 -3 -4 -4 -4 -6 -8 -10 -9 -9 -9 -10 -10 -11 -12 -13 -13
7 7 8 8 8 9 8 8 8 7 6 6 5 4 3 1 1 1 0 0 -1 -1 -2 -3 -4 -4 -4 -5 -5 -6 -7 -8 -9 -10 -10 -11 -11 -12 -12 -12 -13 -13 -13
4 4 5 5 5 4 5 4 4 3 4 3 1 1 -0 -2 -2 -3 -2 -3 -3 -4 -4 -4 -5 -6 -8 -9 -9 -10 -11 -11 -12 -12 -12 -13 -13 -13 -14 -14 -14 -14 -14
0 -0 0 1 0 -1 -1 -2 -2 -1 -0 -0 -1 -2 -3 -4 -5 -5 -4 -5 -5 -6 -6 -7 -8 -9 -10 -11 -11 -12 -12 -13 -13 -14 -14 -15 -15 -15 -15 -15 -15 -15 -14
-3 -3 -4 -2 -4 -5 -4 -4 -6 -6 -5 -5 -4 -4 -5 -6 -6 -7 -7 -7 -7 -8 -9 -10 -11 -11 -12 -13 -13 -13 -14 -15 -15 -15 -16 -16 -16 -16 -16 -15 -15 -15 -15
-5 -3 -3 -3 -4 -4 -6 -5 -5 -5 -6 -8 -8 -8 -7 -7 -8 -8 -9 -9 -10 -10 -11 -12 -13 -13 -14 -14 -14 -15 -16 -16 -16 -17 -17 -17 -17 -17 -17 -17 -17 -17 -16
-6 -5 -5 -5 -5 -5 -6 -6 -7 -7 -9 -10 -10 -10 -11 -10 -10 -11 -11 -11 -12 -13 -14 -14 -14 -15 -15 -16 -16 -16 -17 -17 -18 -18 -18 -18 -18 -18 -18 -18 -18 -18 -18
-6 -6 -6 -6 -7 -7 -8 -8 -8 -9 -10 -11 -12 -12 -12 -12 -12 -13 -13 -13 -14 -15 -15 -15 -16 -17 -17 -17 -17 -18 -18 -18 -18 -19 -19 -19 -19 -19 -19 -19 -19 -19 -18
-9 -8 -8 -9 -9 -10 -10 -11 -11 -11 -12 -12 -13 -13 -13 -14 -14 -15 -16 -16 -16 -17 -17 -17 -17 -18 -18 -19 -19 -19 -20 -20 -20 -20 -20 -20 -20 -20 -20 -20 -20 -20 -19
-9 -10 -10 -11 -12 -12 -12 -12 -13 -13 -14 -14 -15 -15 -15 -15 -16 -16 -17 -18 -18 -19 -19 -19 -19 -20 -20 -21 -21 -21 -21 -21 -21 -21 -22 -22 -22 -21 -21 -21 -21 -20 -20
-11 -12 -13 -13 -13 -14 -14 -14 -14 -14 -15 -15 -16 -16 -17 -17 -18 -18 -19 -19 -20 -20 -20 -20 -21 -21 -21 -23 -23 -22 -22 -22 -23 -23 -23 -23 -23 -22 -22 -22 -22 -21 -21
-14 -15 -15 -15 -15 -15 -15 -15 -16 -16 -16 -16 -17 -18 -18 -19 -19 -19 -20 -20 -22 -21 -22 -24 -25 -25 -26 -26 -25 -25 -24 -24 -25 -25 -24 -23 -24 -24 -23 -23 -22 -22 -21
-16 -16 -16 -16 -16 -16 -16 -17 -17 -17 -18 -18 -18 -18 -19 -19 -20 -20 -21 -21 -27 -27 -26 -26 -25 -25 -26 -26 -26 -26 -25 -25 -25 -25 -25 -25 -24 -24 -24 -23 -22 -22 -21
-17 -18 -17 -17 -18 -18 -18 -18 -18 -19 -19 -19 -19 -20 -20 -20 -21 -21 -21 -22 -27 -27 -25 -24 -26 -26 -26 -26 -24 -25 -25 -25 -25 -26 -25 -23 -22 -24 -24 -23 -23 -23 -22

GFSGL_850_dewp_060.txt.gz
Dewpoint
9 8 9 9 10 9 9 9 8 8 7 7 6 5 5 7 7 7 7 6 4 5 5 6 6 5 5 6 6 6 6 6 7 7 6 5 5 5 5 5 5 6 6
8 8 7 6 9 9 8 8 8 8 7 6 6 6 5 4 4 4 6 6 6 6 7 7 6 7 7 7 8 8 7 5 7 7 6 5 4 5 6 6 6 6 6
8 8 8 7 6 6 7 8 8 8 8 8 7 6 7 5 4 4 5 6 6 7 6 7 7 7 7 7 7 7 7 6 7 7 7 6 5 6 7 7 6 5 5
8 8 9 8 7 3 4 7 8 8 8 8 8 8 8 7 7 7 7 7 7 7 7 7 7 7 7 7 7 8 8 8 6 7 8 7 6 6 7 6 5 5 4
9 8 8 9 9 9 9 7 7 8 9 9 10 9 9 9 8 7 7 8 8 8 8 8 8 8 8 8 7 8 8 8 7 8 7 7 7 7 7 5 4 4 2
9 9 9 8 9 9 10 10 10 10 9 10 10 10 10 9 8 8 8 8 8 8 8 8 8 8 8 7 8 8 8 8 8 8 7 7 7 7 5 4 3 2 1
8 8 9 9 9 9 9 10 10 10 10 10 10 10 10 9 9 9 9 9 9 9 8 8 8 8 7 7 9 9 8 8 8 7 6 6 5 3 3 2 1 0 -1
2 7 8 9 9 9 9 10 9 9 10 10 10 10 9 9 9 9 9 9 9 8 8 8 9 8 8 8 9 9 8 7 6 5 4 3 3 2 1 0 -1 -2 -3
3 1 5 8 9 9 9 10 10 10 10 10 10 10 10 9 9 9 9 9 8 8 8 8 8 9 9 8 8 8 6 5 3 1 1 0 0 -0 -0 -2 -3 -4 -7
6 6 4 2 7 9 9 9 10 10 10 10 10 10 9 9 9 8 9 9 8 8 8 8 8 8 8 7 6 4 4 1 -0 -2 -3 -3 -3 -3 -3 -4 -5 -7 -11
7 7 5 3 4 8 8 9 9 9 10 10 9 9 9 9 9 9 9 9 9 9 8 7 6 6 4 3 2 1 -1 -3 -4 -3 -3 -4 -4 -4 -5 -7 -9 -11 -14
6 7 7 7 5 8 8 8 9 9 9 10 9 9 9 8 9 9 9 8 8 7 6 4 1 0 0 -1 -2 -2 -3 -4 -4 -4 -5 -6 -7 -9 -10 -10 -10 -9 -9
5 5 5 7 7 8 8 8 8 9 9 9 9 8 7 5 6 5 4 3 2 3 1 -1 -1 -3 -3 -3 -4 -4 -5 -5 -6 -6 -7 -8 -9 -9 -9 -10 -10 -11 -11
3 2 3 4 6 7 8 8 8 9 9 8 7 5 3 2 0 -1 -1 -1 -1 -1 -3 -5 -5 -5 -5 -5 -5 -6 -6 -7 -8 -9 -9 -10 -10 -11 -11 -12 -13 -13 -14
-1 -2 -1 -1 -0 1 3 3 5 3 4 4 2 -1 -1 -3 -3 -3 -3 -4 -4 -5 -5 -5 -5 -6 -6 -7 -8 -8 -9 -9 -10 -11 -11 -12 -13 -14 -14 -14 -14 -14 -15
-3 -3 -4 -5 -6 -7 -5 -4 -5 -2 -2 -3 -3 -3 -4 -5 -6 -5 -4 -5 -5 -6 -6 -6 -8 -8 -9 -10 -11 -12 -12 -12 -12 -14 -15 -15 -15 -15 -16 -17 -16 -15 -15
-6 -6 -5 -6 -7 -8 -9 -9 -8 -7 -6 -7 -8 -7 -7 -7 -7 -7 -6 -6 -7 -7 -7 -9 -10 -10 -11 -11 -12 -13 -13 -14 -15 -16 -16 -17 -17 -17 -17 -17 -18 -17 -17
-6 -7 -7 -6 -6 -7 -9 -10 -10 -9 -9 -10 -8 -8 -9 -10 -9 -9 -8 -8 -8 -9 -10 -11 -12 -12 -13 -14 -14 -15 -16 -16 -16 -18 -18 -18 -18 -18 -19 -19 -19 -18 -18
-7 -7 -8 -8 -9 -9 -9 -10 -10 -11 -11 -11 -11 -11 -11 -11 -11 -10 -10 -10 -11 -12 -13 -13 -14 -15 -15 -16 -17 -17 -18 -17 -18 -18 -18 -19 -19 -19 -20 -20 -20 -20 -20
-7 -8 -9 -9 -9 -9 -9 -10 -10 -11 -12 -12 -13 -13 -12 -11 -11 -13 -13 -14 -14 -14 -15 -16 -17 -18 -19 -18 -18 -18 -19 -19 -19 -19 -20 -20 -20 -20 -20 -20 -20 -20 -20
-9 -9 -9 -10 -11 -11 -11 -12 -12 -12 -13 -13 -14 -14 -14 -14 -15 -16 -17 -18 -19 -19 -18 -17 -18 -19 -19 -20 -20 -21 -21 -21 -20 -20 -20 -21 -21 -21 -21 -21 -21 -21 -21
-11 -11 -11 -12 -12 -12 -13 -13 -13 -14 -14 -14 -15 -15 -15 -16 -17 -18 -19 -20 -21 -22 -22 -20 -20 -21 -23 -25 -25 -23 -21 -21 -21 -22 -23 -23 -23 -22 -22 -21 -22 -22 -22
-13 -13 -13 -13 -14 -14 -14 -14 -14 -15 -15 -16 -16 -17 -18 -18 -18 -19 -20 -20 -21 -22 -25 -25 -25 -25 -26 -26 -26 -25 -24 -24 -24 -25 -26 -26 -25 -23 -23 -23 -22 -22 -22
-16 -15 -15 -16 -16 -16 -15 -16 -16 -16 -16 -17 -17 -18 -18 -19 -19 -19 -21 -23 -24 -23 -25 -26 -25 -25 -26 -26 -26 -26 -26 -26 -25 -25 -25 -25 -26 -25 -24 -23 -23 -22 -22
-17 -16 -16 -16 -16 -17 -17 -17 -17 -17 -18 -18 -18 -19 -19 -19 -20 -20 -21 -24 -26 -27 -27 -25 -25 -26 -26 -26 -26 -26 -25 -25 -25 -25 -26 -26 -25 -24 -23 -23 -23 -23 -22
-20 -19 -18 -18 -18 -18 -18 -18 -18 -19 -19 -19 -19 -20 -20 -20 -21 -21 -22 -26 -26 -27 -26 -26 -26 -26 -26 -25 -25 -25 -25 -25 -26 -26 -26 -25 -24 -22 -22 -23 -23 -23 -23

GFSGL_850_dewp_063.txt.gz
Dewpoint
5 8 9 9 9 8 9 8 8 7 7 4 3 3 3 3 4 4 4 5 5 5 5 4 4 3 4 4 4 5 5 4 5 6 6 5 6 6 6 6 5 4 5
7 7 7 9 9 9 9 9 8 8 8 7 6 4 4 3 3 4 4 5 6 5 5 5 4 4 4 3 4 5 5 5 6 6 6 5 6 7 7 7 5 5 6
9 8 8 8 8 9 9 9 9 9 8 8 8 7 6 4 4 5 4 4 6 6 6 6 4 5 5 4 5 6 6 6 7 7 7 8 7 5 5 6 7 6 6
9 8 8 7 7 7 7 10 10 9 9 8 8 8 7 7 7 6 4 4 5 6 6 5 4 5 5 5 6 6 6 7 7 8 7 8 8 7 5 7 7 7 6
9 8 8 8 7 7 8 7 8 9 9 9 8 8 7 7 6 6 5 5 6 6 6 5 5 5 6 6 7 7 7 8 8 8 8 8 8 8 7 7 7 7 6
9 10 9 9 8 8 8 8 8 7 6 9 8 8 9 8 7 7 7 7 7 7 7 7 7 8 7 7 7 8 8 8 8 8 8 8 8 8 7 7 6 5 3
6 7 10 9 9 9 8 8 9 9 8 8 8 9 9 9 9 9 9 9 8 8 8 8 8 7 7 7 8 9 9 9 9 8 8 8 8 7 7 5 4 3 3
3 5 6 9 10 9 9 9 9 9 10 10 9 9 10 9 10 10 10 9 9 8 8 8 8 8 8 8 8 8 8 9 8 8 8 7 6 4 3 2 2 1 -0
3 4 5 5 5 8 10 9 9 9 9 10 10 10 10 10 10 10 10 10 9 9 9 9 9 8 8 8 8 8 8 8 8 7 5 4 2 1 0 -0 -1 -2 -2
2 4 5 5 5 5 6 9 10 10 9 10 10 10 10 10 10 10 10 10 10 9 9 9 9 9 9 9 9 9 7 3 -0 -0 0 -1 -1 -1 -2 -2 -3 -3 -4
2 2 3 5 5 6 6 5 9 10 10 10 10 10 10 10 10 10 10 10 10 9 9 9 8 8 8 8 7 3 2 -0 -1 -1 -2 -3 -3 -3 -3 -3 -3 -4 -5
0 1 2 4 5 6 6 7 9 10 10 10 10 10 10 10 10 10 9 9 9 9 8 6 5 3 2 1 0 -1 -2 -3 -3 -4 -4 -4 -5 -6 -6 -7 -7 -8 -8
-1 -1 -0 2 4 5 5 6 7 8 9 9 9 9 8 7 6 7 8 8 7 5 3 0 -2 -3 -4 -3 -4 -5 -5 -5 -5 -5 -6 -7 -7 -8 -9 -9 -9 -10 -10
-3 -3 -3 -2 -0 2 3 3 3 4 5 4 3 5 3 3 -0 -2 -0 0 1 -1 -4 -5 -5 -4 -5 -6 -6 -6 -5 -6 -6 -7 -8 -9 -9 -10 -10 -11 -12 -13 -14
-4 -4 -4 -4 -4 -3 -2 -2 -2 -2 -2 -2 -3 -5 -4 -4 -5 -4 -4 -4 -5 -5 -5 -5 -5 -6 -6 -6 -7 -8 -8 -9 -9 -10 -10 -11 -12 -13 -15 -15 -16 -18 -18
-6 -6 -6 -7 -7 -7 -6 -6 -7 -6 -5 -5 -5 -6 -7 -7 -6 -6 -6 -6 -6 -6 -6 -6 -8 -8 -10 -10 -10 -10 -10 -11 -12 -13 -15 -16 -17 -19 -21 -22 -22 -20 -19
-7 -7 -8 -8 -9 -9 -9 -9 -7 -7 -7 -8 -8 -8 -8 -9 -8 -7 -6 -6 -7 -7 -8 -9 -10 -10 -11 -12 -12 -13 -14 -14 -16 -17 -22 -23 -22 -22 -22 -23 -22 -21 -21
-7 -7 -8 -8 -8 -9 -8 -9 -9 -9 -9 -9 -9 -8 -9 -9 -9 -9 -8 -8 -8 -9 -10 -11 -12 -13 -13 -14 -15 -16 -17 -20 -23 -25 -24 -23 -22 -23 -24 -23 -22 -21 -21
-8 -8 -8 -8 -8 -8 -9 -9 -10 -10 -11 -11 -11 -10 -11 -10 -9 -9 -9 -9 -10 -11 -12 -13 -14 -15 -16 -17 -20 -21 -22 -21 -21 -21 -23 -25 -25 -24 -23 -22 -21 -21 -21
-8 -9 -9 -10 -10 -10 -10 -10 -11 -11 -11 -12 -12 -12 -12 -11 -11 -11 -12 -12 -13 -14 -15 -17 -19 -20 -22 -22 -22 -22 -22 -22 -24 -24 -25 -25 -24 -23 -22 -21 -21 -21 -21
-10 -10 -9 -9 -10 -11 -12 -12 -12 -12 -13 -13 -14 -14 -15 -16 -17 -18 -20 -20 -20 -19 -20 -21 -22 -24 -24 -25 -26 -27 -27 -27 -26 -26 -25 -25 -25 -25 -24 -22 -21 -22 -22
-11 -11 -12 -12 -13 -13 -14 -14 -14 -14 -15 -15 -15 -16 -17 -20 -21 -22 -23 -24 -22 -22 -22 -23 -24 -25 -27 -28 -28 -28 -27 -27 -26 -26 -26 -26 -26 -26 -25 -24 -24 -24 -23
-15 -15 -15 -14 -14 -14 -15 -15 -16 -17 -17 -18 -19 -19 -20 -21 -22 -23 -24 -25 -25 -25 -26 -27 -28 -28 -28 -27 -27 -27 -26 -26 -26 -26 -26 -26 -26 -26 -26 -25 -24 -23 -23
-18 -18 -18 -17 -17 -17 -17 -17 -17 -17 -17 -18 -18 -19 -19 -21 -22 -23 -24 -26 -26 -27 -28 -28 -28 -27 -27 -27 -27 -26 -26 -26 -26 -26 -26 -27 -27 -26 -24 -23 -23 -23 -23
-19 -18 -18 -18 -18 -18 -18 -18 -18 -18 -18 -19 -19 -19 -19 -20 -22 -23 -24 -24 -26 -26 -26 -26 -26 -26 -27 -27 -26 -26 -26 -26 -26 -26 -26 -27 -26 -24 -23 -23 -23 -23 -23
-21 -20 -20 -19 -19 -19 -19 -19 -19 -20 -20 -20 -20 -20 -20 -20 -22 -24 -24 -25 -26 -27 -27 -27 -27 -27 -26 -26 -26 -26 -26 -26 -26 -26 -26 -26 -25 -23 -23 -22 -22 -23 -23

GFSGL_850_dewp_066.txt.gz
Dewpoint
7 4 7 9 8 8 8 8 8 7 6 5 4 3 2 2 2 1 2 3 2 5 5 5 4 5 5 6 5 5 5 5 5 5 5 4 4 3 3 4 5 5 5
8 7 4 5 8 8 8 8 8 8 7 5 4 4 3 2 3 2 2 2 4 5 6 6 6 6 6 5 4 4 4 4 5 5 4 4 4 4 5 6 6 6 5
9 9 8 6 5 6 7 8 9 9 8 8 6 4 3 3 3 3 3 4 4 3 3 3 3 5 5 5 5 4 4 4 5 5 5 5 6 6 6 7 7 7 7
10 9 9 9 8 6 6 5 6 8 9 8 8 8 8 7 6 4 3 3 3 4 4 4 4 4 3 5 6 5 5 6 5 6 7 7 8 8 8 8 8 7 7
10 10 10 9 9 9 8 8 7 6 6 8 9 9 8 8 8 7 6 5 4 5 4 4 5 4 3 4 6 6 6 7 7 7 8 8 8 8 8 8 8 8 8
7 9 10 10 10 9 9 9 9 8 8 7 7 9 9 7 7 8 8 8 8 7 7 7 7 6 5 4 5 7 7 8 8 8 8 8 8 7 8 8 8 8 7
4 6 8 9 9 9 10 10 9 9 9 9 8 8 9 8 5 6 7 8 8 8 7 7 7 6 6 6 7 7 8 8 8 8 8 8 8 8 8 8 8 8 6
0 2 4 5 6 8 9 9 10 10 10 9 9 9 9 8 8 7 7 8 8 8 8 8 8 8 8 7 7 7 8 8 8 8 8 8 8 8 8 7 6 5 2
-1 0 1 1 3 4 5 6 7 9 9 10 10 10 10 9 9 9 9 9 9 9 9 9 9 9 8 8 8 8 8 9 9 9 8 8 8 7 6 5 2 1 0
-2 -1 0 1 1 2 3 4 4 5 6 10 10 10 10 10 10 10 10 10 10 10 10 10 9 9 9 9 9 9 9 9 8 7 5 4 3 1 0 -0 -0 -1 -1
-1 -1 -0 0 1 2 3 3 4 5 5 6 9 10 10 10 10 10 10 10 10 10 10 10 9 9 9 9 9 8 8 6 2 -1 -1 -1 -2 -2 -3 -3 -3 -3 -3
-2 -2 -2 -1 -0 1 2 3 4 4 6 7 9 9 9 9 9 10 10 10 10 10 10 9 6 5 4 3 4 4 1 -1 -3 -3 -4 -5 -5 -5 -5 -5 -5 -5 -6
-4 -4 -4 -3 -3 -1 -0 1 2 3 4 4 4 4 3 2 4 5 6 8 9 7 4 -3 -5 -1 -1 -3 -4 -5 -6 -4 -4 -4 -4 -5 -7 -7 -8 -7 -8 -8 -9
-5 -5 -5 -5 -5 -4 -3 -3 -2 -2 -1 -1 -1 -1 -2 -2 -3 -2 -2 -2 -0 -0 -4 -5 -4 -5 -5 -5 -5 -5 -5 -6 -7 -7 -8 -9 -9 -9 -9 -9 -10 -11 -13
-6 -6 -6 -7 -7 -8 -8 -8 -8 -7 -5 -5 -5 -5 -5 -5 -6 -5 -5 -5 -5 -5 -5 -5 -5 -5 -6 -7 -7 -8 -8 -8 -8 -9 -10 -10 -10 -10 -12 -14 -17 -21 -24
-6 -7 -7 -8 -8 -8 -9 -9 -9 -9 -8 -8 -8 -7 -8 -8 -7 -6 -6 -6 -5 -5 -5 -6 -7 -7 -8 -8 -9 -9 -9 -9 -10 -10 -11 -13 -17 -21 -24 -24 -25 -26 -26
-7 -7 -7 -8 -8 -8 -9 -9 -9 -9 -9 -9 -9 -9 -8 -8 -8 -7 -6 -7 -7 -6 -6 -8 -9 -10 -10 -11 -11 -11 -12 -12 -14 -22 -24 -24 -25 -25 -25 -26 -25 -25 -25
-7 -7 -7 -8 -8 -8 -8 -8 -8 -8 -9 -9 -9 -9 -9 -9 -8 -9 -9 -8 -8 -8 -10 -11 -12 -12 -12 -13 -13 -15 -18 -22 -22 -22 -24 -25 -26 -26 -26 -26 -26 -26 -26
-8 -8 -8 -8 -8 -8 -8 -8 -9 -9 -10 -10 -10 -10 -10 -10 -10 -9 -9 -9 -11 -12 -13 -13 -13 -14 -15 -18 -19 -19 -19 -20 -21 -24 -26 -27 -27 -27 -28 -27 -25 -25 -25
-9 -9 -9 -9 -10 -10 -10 -10 -10 -10 -10 -11 -11 -12 -12 -11 -11 -12 -12 -13 -14 -15 -17 -19 -19 -19 -20 -21 -22 -24 -25 -25 -26 -28 -28 -28 -28 -27 -26 -26 -26 -26 -25
-10 -10 -10 -10 -11 -11 -12 -12 -12 -13 -13 -14 -15 -16 -21 -22 -21 -21 -21 -19 -19 -19 -20 -22 -22 -24 -25 -27 -28 -28 -28 -27 -27 -26 -26 -27 -27 -27 -27 -27 -26 -26 -25
-12 -12 -12 -13 -13 -13 -14 -14 -15 -15 -17 -18 -19 -20 -22 -24 -25 -25 -26 -25 -24 -23 -24 -25 -26 -27 -28 -28 -28 -27 -27 -27 -27 -27 -27 -27 -27 -27 -27 -27 -26 -24 -23
-17 -16 -15 -15 -15 -16 -17 -18 -19 -20 -21 -21 -22 -23 -24 -25 -26 -26 -26 -27 -27 -28 -29 -28 -28 -28 -29 -29 -28 -28 -28 -27 -26 -27 -27 -27 -27 -27 -26 -25 -24 -23 -23
-19 -20 -20 -18 -18 -19 -19 -19 -19 -20 -21 -22 -22 -23 -23 -24 -25 -27 -28 -29 -30 -30 -30 -30 -29 -29 -28 -28 -27 -26 -26 -26 -26 -26 -26 -26 -27 -26 -25 -24 -23 -23 -23
-20 -20 -20 -20 -20 -20 -20 -20 -20 -20 -21 -21 -22 -22 -23 -24 -25 -26 -26 -27 -28 -28 -28 -28 -28 -27 -27 -26 -26 -25 -26 -26 -26 -26 -27 -27 -26 -25 -24 -23 -23 -23 -23
-24 -23 -22 -22 -22 -22 -22 -21 -21 -22 -23 -22 -22 -23 -23 -24 -25 -25 -25 -25 -26 -26 -27 -27 -27 -26 -26 -26 -26 -26 -26 -26 -26 -26 -26 -26 -26 -25 -24 -23 -23 -23 -23

GFSGL_850_dewp_069.txt.gz
Dewpoint
8 8 7 7 8 8 8 7 8 8 8 9 8 7 7 7 6 6 5 4 4 4 4 3 1 1 3 5 5 5 6 6 6 5 5 4 5 5 4 3 3 4 4
9 8 7 7 8 8 8 8 7 7 7 7 7 7 7 7 6 5 4 3 3 2 3 4 3 3 5 5 6 5 5 5 6 6 5 4 3 3 3 4 4 4 5
10 9 9 8 7 7 8 8 8 8 8 8 8 8 6 5 5 4 4 3 2 2 2 3 3 2 2 4 5 5 5 5 6 6 5 4 4 4 5 5 5 5 5
10 10 10 10 9 8 8 8 7 7 8 8 8 8 7 7 5 5 4 3 3 3 2 2 2 3 3 3 4 4 4 5 5 5 6 6 6 6 6 6 7 6 7
9 9 9 9 10 10 9 9 8 8 8 8 8 8 8 8 7 7 6 4 4 3 4 4 3 3 3 3 4 4 5 5 5 6 7 8 8 8 7 7 7 6 6
8 9 9 9 9 9 9 9 9 9 9 9 9 8 8 8 8 8 8 8 7 7 7 7 6 5 5 4 4 5 6 7 7 7 7 7 7 7 8 6 6 7 7
2 3 5 7 8 9 9 9 9 9 9 9 9 9 9 9 8 8 8 8 8 8 8 8 8 7 7 7 7 7 7 7 8 8 8 8 8 8 8 8 8 7 8
-4 -3 -1 0 2 4 7 8 8 8 8 8 8 9 9 9 10 10 9 9 8 9 8 8 8 8 8 8 7 8 8 8 8 8 8 8 8 8 8 8 8 7 7
-4 -4 -4 -3 -2 -0 0 2 4 6 7 7 8 8 8 8 9 9 9 9 9 9 9 9 9 8 8 8 8 8 8 8 8 8 8 8 8 8 8 8 7 6 4
-3 -3 -3 -2 -2 -1 -1 -0 1 1 2 4 5 5 6 8 9 9 9 9 9 9 9 9 8 8 9 9 8 9 9 8 8 8 7 7 6 5 3 3 3 2 1
-3 -3 -3 -3 -3 -2 -1 -0 1 2 3 3 4 4 5 6 7 9 9 9 9 8 8 9 8 9 8 8 8 7 7 6 5 3 -0 -2 -2 -2 -2 -3 -3 -3 -3
-4 -4 -4 -4 -4 -3 -2 -1 1 1 2 2 2 2 2 2 2 4 6 8 8 8 6 5 5 4 8 7 6 4 2 -2 -2 -4 -5 -5 -5 -5 -5 -4 -5 -4 -4
-5 -5 -5 -5 -5 -4 -3 -2 -1 0 0 -1 -1 -2 -2 -2 -2 -1 -1 1 3 3 -0 -1 -4 -3 -1 -2 -2 -1 -3 -3 -5 -5 -5 -6 -6 -7 -6 -6 -6 -6 -6
-6 -6 -6 -6 -6 -6 -6 -6 -5 -5 -4 -4 -5 -5 -6 -6 -5 -5 -4 -4 -3 -3 -4 -5 -4 -4 -4 -5 -5 -5 -5 -5 -5 -6 -6 -7 -8 -8 -8 -8 -8 -8 -9
-7 -7 -7 -7 -7 -8 -8 -8 -8 -8 -7 -7 -8 -8 -9 -9 -9 -7 -6 -6 -6 -6 -6 -6 -6 -6 -7 -7 -8 -8 -8 -7 -7 -9 -9 -9 -9 -9 -9 -12 -22 -28 -29
-7 -8 -8 -8 -8 -8 -8 -9 -9 -9 -9 -9 -8 -8 -8 -8 -7 -7 -7 -7 -7 -6 -6 -7 -8 -8 -9 -9 -9 -9 -9 -10 -10 -10 -10 -13 -22 -29 -31 -32 -32 -32 -31
-7 -8 -8 -8 -8 -9 -8 -8 -8 -8 -8 -8 -8 -8 -8 -7 -7 -7 -7 -7 -7 -7 -7 -9 -10 -10 -10 -11 -10 -10 -11 -13 -22 -29 -30 -30 -30 -31 -30 -31 -31 -30 -29
-8 -8 -8 -8 -8 -8 -8 -8 -8 -8 -9 -9 -9 -9 -9 -9 -9 -9 -9 -8 -8 -9 -10 -11 -11 -12 -12 -13 -17 -22 -24 -26 -28 -29 -29 -29 -29 -28 -28 -27 -27 -27 -26
-8 -9 -9 -8 -8 -9 -9 -9 -9 -9 -10 -10 -10 -10 -10 -10 -9 -9 -9 -9 -10 -11 -12 -13 -14 -18 -21 -23 -25 -26 -27 -29 -28 -29 -29 -28 -28 -27 -27 -27 -26 -26 -27
-9 -9 -9 -10 -10 -10 -10 -10 -10 -11 -11 -12 -12 -13 -13 -12 -12 -14 -17 -18 -21 -23 -23 -24 -24 -24 -25 -26 -27 -28 -27 -27 -27 -27 -27 -27 -27 -27 -27 -27 -27 -28 -28
-10 -11 -11 -11 -11 -12 -12 -13 -13 -14 -16 -19 -22 -23 -25 -28 -27 -26 -24 -24 -23 -23 -24 -25 -25 -26 -27 -27 -27 -27 -27 -27 -27 -27 -27 -27 -27 -27 -28 -28 -28 -27 -26
-14 -13 -13 -14 -14 -14 -15 -17 -20 -22 -23 -24 -24 -25 -26 -28 -28 -28 -27 -27 -26 -26 -26 -27 -28 -28 -28 -28 -28 -28 -27 -27 -27 -27 -27 -27 -28 -28 -28 -28 -27 -26 -24
-20 -19 -18 -17 -18 -19 -20 -21 -22 -22 -23 -23 -24 -25 -26 -27 -28 -28 -28 -28 -28 -29 -29 -29 -29 -29 -29 -28 -28 -28 -27 -27 -27 -27 -27 -27 -28 -28 -27 -27 -25 -24 -23
-21 -21 -21 -20 -20 -20 -21 -22 -22 -22 -23 -23 -24 -24 -25 -26 -27 -28 -28 -29 -29 -29 -29 -28 -28 -29 -29 -28 -28 -27 -27 -27 -27 -27 -27 -27 -27 -27 -26 -25 -23 -23 -23
-23 -22 -22 -22 -21 -21 -21 -22 -22 -22 -23 -24 -24 -25 -25 -26 -26 -27 -28 -28 -28 -28 -28 -28 -28 -28 -27 -27 -26 -26 -26 -26 -26 -26 -27 -27 -27 -27 -25 -23 -23 -22 -23
-25 -25 -25 -25 -25 -24 -24 -24 -24 -24 -25 -25 -25 -25 -27 -27 -28 -28 -27 -27 -27 -27 -28 -27 -27 -26 -26 -26 -26 -26 -26 -26 -26 -26 -27 -26 -26 -26 -24 -23 -23 -23 -23

GFSGL_850_dewp_072.txt.gz
Dewpoint
7 6 6 6 7 8 8 8 8 9 9 9 9 9 9 8 8 9 9 8 7 6 7 7 7 5 5 4 2 3 3 3 5 4 5 5 5 5 5 4 3 3 3
8 8 8 7 6 6 7 8 8 8 8 8 9 9 8 8 7 7 7 8 8 8 7 6 6 5 5 3 3 3 2 2 5 5 4 5 5 4 5 5 4 3 3
10 9 9 9 8 7 6 6 7 7 7 8 8 8 9 8 8 7 7 7 7 7 6 5 5 5 4 4 5 5 2 2 4 5 5 5 5 5 4 5 4 4 4
9 10 9 10 10 9 8 8 7 6 7 7 7 7 7 7 8 8 7 7 7 7 6 5 5 4 4 3 3 3 3 3 3 6 7 6 5 4 5 4 4 3 3
9 8 9 9 9 9 9 9 9 8 8 7 7 7 7 8 8 8 8 8 6 6 6 5 4 4 3 3 3 3 3 3 4 6 7 6 6 6 6 4 6 5 5
8 8 8 8 8 8 8 8 8 9 9 9 9 9 9 9 8 8 8 8 8 8 7 6 5 5 4 3 3 3 4 6 6 6 6 6 6 7 7 7 7 7 7
4 6 7 7 8 8 8 8 8 8 8 8 8 8 8 8 8 9 9 9 8 8 8 8 8 8 7 7 7 7 7 7 6 6 7 7 7 7 7 7 7 7 7
-3 -3 -2 -1 1 3 6 7 7 7 8 8 8 8 8 8 8 8 8 8 8 8 8 8 8 8 8 8 8 8 8 8 8 8 8 8 7 7 7 8 8 8 7
-3 -3 -4 -4 -3 -2 -1 -0 1 3 5 6 7 7 7 7 8 8 8 8 8 8 8 8 8 8 8 8 8 8 8 7 7 7 7 8 8 8 8 8 7 7 6
-3 -3 -3 -3 -3 -3 -3 -2 -1 0 1 2 2 3 3 4 5 5 6 6 7 7 7 7 7 7 7 8 8 7 8 7 7 7 6 6 4 2 5 5 4 3 1
-4 -4 -4 -4 -4 -3 -3 -2 -1 0 1 1 1 1 1 2 2 3 3 4 5 5 6 5 6 6 7 7 7 7 6 5 5 3 0 -3 -2 -1 0 -0 -1 -2 -2
-5 -5 -5 -5 -4 -4 -3 -3 -2 -2 -1 -1 -1 -0 -1 -1 -2 -2 -1 0 1 3 2 1 -0 -1 -0 2 3 3 3 2 -1 -3 -4 -4 -4 -4 -5 -5 -4 -4 -4
-5 -5 -6 -6 -6 -6 -5 -5 -4 -4 -4 -4 -4 -4 -4 -5 -5 -5 -4 -3 -2 -1 -3 -4 -4 -3 -3 -3 -3 -4 -4 -4 -5 -4 -5 -6 -6 -7 -7 -7 -7 -7 -7
-6 -6 -6 -6 -7 -7 -7 -7 -7 -7 -7 -7 -8 -8 -7 -7 -6 -6 -6 -5 -5 -5 -5 -5 -6 -6 -7 -7 -6 -6 -7 -7 -7 -8 -8 -9 -9 -8 -8 -9 -9 -9 -10
-7 -7 -7 -7 -7 -7 -7 -8 -8 -8 -8 -8 -8 -7 -7 -7 -7 -7 -7 -7 -7 -7 -7 -7 -7 -7 -7 -8 -8 -9 -9 -9 -9 -9 -9 -9 -9 -9 -11 -15 -25 -34 -35
-8 -8 -8 -8 -8 -8 -8 -8 -8 -8 -8 -8 -8 -8 -8 -8 -7 -7 -7 -7 -7 -6 -7 -7 -8 -8 -8 -9 -9 -9 -9 -10 -10 -11 -12 -18 -28 -33 -33 -33 -34 -35 -33
-8 -8 -8 -8 -8 -8 -8 -8 -8 -8 -8 -8 -9 -8 -8 -8 -8 -8 -8 -7 -8 -7 -8 -9 -9 -10 -10 -10 -11 -13 -16 -21 -28 -31 -31 -32 -31 -31 -32 -32 -31 -30 -30
-8 -8 -8 -8 -8 -8 -9 -9 -9 -9 -9 -9 -9 -9 -9 -9 -9 -9 -9 -9 -9 -9 -10 -10 -11 -15 -22 -26 -28 -29 -30 -30 -32 -31 -31 -31 -30 -30 -30 -30 -29 -29 -29
-9 -9 -9 -9 -9 -9 -9 -10 -10 -10 -10 -11 -11 -11 -11 -11 -10 -10 -11 -13 -16 -19 -22 -24 -25 -27 -27 -28 -29 -29 -30 -31 -30 -30 -30 -30 -30 -29 -28 -28 -28 -28 -28
-10 -10 -10 -10 -11 -11 -11 -12 -13 -14 -15 -19 -21 -23 -25 -24 -27 -29 -28 -28 -28 -27 -27 -28 -28 -28 -29 -29 -29 -29 -29 -29 -29 -29 -28 -28 -28 -28 -28 -28 -28 -28 -28
-12 -12 -13 -13 -13 -14 -15 -17 -21 -24 -26 -27 -29 -29 -28 -30 -30 -30 -29 -29 -28 -28 -29 -29 -29 -29 -29 -29 -28 -28 -28 -28 -28 -28 -28 -28 -28 -28 -28 -28 -28 -27 -26
-17 -16 -16 -17 -18 -19 -22 -23 -24 -25 -26 -26 -27 -28 -28 -29 -30 -30 -30 -30 -30 -30 -30 -29 -29 -29 -29 -29 -29 -28 -28 -28 -27 -27 -27 -27 -28 -28 -28 -28 -27 -26 -25
-21 -21 -21 -21 -21 -21 -22 -23 -23 -24 -25 -26 -26 -27 -27 -29 -29 -29 -30 -30 -30 -30 -30 -29 -29 -29 -29 -28 -28 -28 -27 -27 -27 -27 -27 -27 -27 -28 -28 -27 -26 -24 -24
-23 -22 -22 -22 -22 -22 -23 -24 -24 -25 -25 -26 -26 -26 -27 -27 -27 -28 -28 -28 -28 -28 -28 -28 -28 -28 -27 -27 -27 -27 -27 -27 -27 -27 -27 -27 -27 -27 -27 -26 -25 -24 -23
-24 -24 -24 -24 -24 -25 -25 -26 -26 -26 -26 -27 -27 -27 -28 -28 -28 -28 -28 -27 -27 -27 -27 -27 -27 -27 -26 -26 -26 -26 -26 -26 -26 -27 -27 -27 -27 -27 -27 -26 -25 -24 -23
-26 -26 -27 -27 -28 -28 -28 -28 -27 -27 -27 -28 -28 -29 -29 -29 -28 -28 -28 -28 -27 -27 -27 -27 -27 -26 -26 -26 -26 -26 -26 -26 -27 -27 -27 -27 -27 -27 -26 -26 -24 -23 -23

GFSGL_850_dewp_075.txt.gz
Dewpoint
6 5 5 6 7 8 8 8 8 8 8 8 8 8 9 9 9 9 8 9 6 3 5 6 4 4 5 3 6 6 6 6 6 4 4 3 4 2 3 4 4 5 5
8 7 6 6 7 7 8 8 8 8 8 8 8 8 8 9 9 9 8 8 8 8 8 7 7 7 7 6 7 6 5 6 5 5 3 3 5 3 2 4 3 4 4
9 9 9 8 8 7 7 7 8 8 8 8 8 8 8 9 8 8 8 8 7 8 8 8 8 7 7 7 7 6 5 5 5 4 3 5 5 6 6 3 2 3 4
9 9 9 9 9 9 9 8 8 8 8 8 8 8 8 8 8 7 7 7 7 7 7 7 7 7 7 7 6 6 6 5 6 6 6 5 6 6 6 6 6 6 5
9 9 9 9 9 9 9 9 9 9 8 8 8 8 7 7 7 7 7 7 7 7 8 8 7 7 7 6 6 5 5 6 7 7 7 7 6 7 7 7 7 6 6
8 8 8 8 8 9 9 9 9 9 9 8 8 8 9 8 8 8 8 8 8 8 8 8 8 8 7 7 6 6 6 7 7 7 7 7 7 7 7 7 7 7 7
5 7 7 7 7 8 8 8 8 8 8 8 8 8 8 8 8 8 8 8 8 8 8 8 8 8 8 8 8 8 7 7 7 7 7 7 7 7 7 7 7 7 7
-0 0 2 3 5 6 6 7 7 7 7 7 7 7 7 7 8 8 8 8 8 8 8 8 7 7 7 7 8 8 8 8 8 8 7 7 7 7 7 7 7 7 7
-3 -3 -3 -3 -3 -2 -1 0 2 3 5 5 6 6 6 6 6 7 7 7 7 7 7 7 7 7 7 7 7 7 7 7 7 7 7 7 7 7 7 7 6 6 3
-4 -4 -4 -4 -3 -3 -2 -2 -1 0 0 1 1 1 1 1 1 1 2 2 3 3 4 5 5 6 6 6 7 7 6 6 6 6 5 5 4 4 2 1 2 3 2
-5 -5 -5 -4 -4 -3 -2 -2 -1 -1 -1 -1 -1 -1 -1 -1 -2 -2 -1 0 2 2 2 2 2 2 2 4 5 5 5 4 2 1 0 -1 -1 -1 -1 -1 -1 -0 -1
-6 -5 -5 -5 -5 -4 -4 -3 -2 -2 -2 -2 -3 -3 -5 -5 -6 -5 -4 -3 -2 -1 -1 -2 -2 -3 -3 -2 -1 0 1 -1 -2 -3 -4 -4 -4 -5 -5 -6 -5 -5 -5
-6 -6 -6 -6 -6 -6 -6 -6 -6 -6 -6 -7 -6 -6 -7 -7 -7 -6 -6 -6 -6 -5 -5 -6 -6 -6 -6 -5 -6 -5 -5 -5 -6 -6 -7 -8 -9 -9 -8 -8 -8 -8 -8
-7 -7 -7 -7 -7 -7 -7 -8 -8 -8 -8 -8 -8 -7 -7 -7 -7 -7 -7 -7 -7 -7 -7 -7 -7 -7 -7 -7 -7 -7 -7 -7 -7 -8 -8 -9 -9 -9 -8 -9 -9 -9 -11
-8 -8 -8 -8 -8 -8 -8 -8 -8 -8 -8 -8 -8 -8 -8 -7 -7 -7 -7 -7 -7 -7 -7 -7 -8 -8 -8 -8 -8 -8 -8 -8 -8 -9 -9 -9 -9 -10 -11 -13 -18 -28 -34
-8 -8 -8 -8 -8 -8 -8 -8 -8 -8 -8 -8 -8 -8 -8 -8 -8 -7 -7 -7 -7 -7 -8 -8 -9 -9 -9 -9 -10 -10 -10 -10 -11 -14 -18 -23 -29 -32 -33 -33 -33 -33 -31
-8 -8 -8 -8 -8 -8 -8 -8 -8 -9 -9 -9 -9 -9 -9 -9 -9 -8 -8 -8 -8 -9 -9 -10 -10 -13 -17 -23 -28 -30 -31 -32 -31 -34 -34 -33 -33 -32 -32 -31 -30 -27 -28
-8 -8 -8 -8 -8 -9 -9 -9 -9 -9 -9 -9 -9 -10 -10 -9 -9 -9 -10 -9 -9 -10 -13 -17 -22 -27 -28 -30 -31 -31 -31 -31 -32 -32 -31 -31 -31 -31 -30 -30 -30 -30 -28
-9 -9 -9 -10 -10 -10 -10 -10 -11 -11 -12 -13 -14 -15 -18 -17 -16 -15 -16 -21 -28 -30 -30 -29 -29 -30 -30 -30 -30 -30 -30 -30 -30 -30 -30 -30 -29 -29 -29 -29 -29 -29 -29
-12 -11 -11 -12 -12 -12 -13 -14 -16 -20 -24 -27 -28 -29 -28 -27 -28 -30 -30 -31 -31 -31 -30 -30 -30 -30 -30 -30 -30 -29 -29 -29 -29 -29 -29 -29 -29 -29 -29 -29 -29 -28 -27
-17 -16 -15 -15 -15 -17 -19 -23 -25 -26 -28 -29 -30 -30 -30 -31 -31 -31 -31 -31 -30 -30 -30 -30 -30 -30 -30 -30 -30 -30 -30 -29 -29 -28 -28 -28 -28 -28 -29 -28 -28 -27 -26
-21 -20 -19 -20 -21 -23 -24 -25 -26 -27 -27 -28 -28 -29 -29 -30 -31 -31 -31 -31 -31 -31 -31 -30 -30 -30 -30 -30 -29 -29 -28 -28 -28 -28 -27 -27 -28 -28 -28 -27 -27 -26 -25
-24 -23 -23 -22 -23 -23 -24 -25 -25 -26 -27 -27 -27 -27 -28 -29 -29 -29 -30 -30 -29 -29 -29 -29 -29 -29 -29 -28 -28 -28 -27 -27 -27 -27 -27 -27 -27 -27 -27 -27 -26 -25 -24
-24 -23 -23 -23 -23 -23 -24 -25 -25 -26 -26 -27 -27 -28 -28 -28 -28 -28 -28 -28 -28 -28 -28 -28 -28 -28 -27 -27 -27 -27 -27 -26 -27 -27 -27 -27 -27 -27 -27 -26 -25 -25 -24
-25 -24 -24 -24 -24 -25 -25 -25 -25 -26 -26 -27 -27 -27 -28 -28 -28 -28 -28 -28 -28 -28 -28 -27 -27 -27 -27 -26 -26 -26 -26 -26 -27 -27 -27 -27 -27 -27 -27 -26 -25 -24 -24
-26 -26 -27 -27 -27 -27 -27 -27 -27 -27 -27 -28 -28 -28 -28 -28 -28 -28 -28 -28 -27 -27 -27 -27 -26 -26 -26 -26 -26 -26 -26 -26 -26 -27 -27 -27 -27 -27 -26 -26 -25 -24 -24

GFSGL_850_dewp_078.txt.gz
Dewpoint
6 9 10 9 8 8 8 8 8 7 8 8 8 8 9 9 9 8 7 8 8 6 -0 -1 -1 1 1 3 4 5 6 6 7 7 6 5 5 6 5 3 2 3 3
8 9 8 8 8 8 8 8 8 8 8 8 8 8 8 9 9 9 9 9 9 8 5 1 0 2 4 5 4 4 5 5 5 4 5 5 5 4 5 6 6 6 5
10 9 8 9 7 7 8 8 8 8 8 8 8 8 8 8 9 9 9 9 9 8 8 8 3 3 4 5 5 5 6 6 6 7 7 6 5 6 6 6 6 6 7
8 9 9 9 9 8 9 8 8 8 8 8 8 8 8 8 8 9 9 9 8 8 8 7 8 8 8 8 8 8 8 8 7 8 7 7 7 6 6 6 6 6 7
9 9 9 9 9 9 9 8 8 8 8 8 8 8 8 8 8 8 8 8 8 7 7 7 7 7 7 8 8 8 8 8 8 8 8 7 7 7 7 7 7 7 7
8 8 8 9 9 9 9 9 9 9 8 8 8 8 8 8 8 8 7 8 8 8 8 8 8 8 8 8 8 8 7 8 8 8 8 8 7 6 7 7 7 7 7
7 7 6 7 8 8 8 8 8 8 8 8 8 8 8 8 8 8 8 8 8 8 7 7 7 7 8 8 8 8 8 8 8 7 7 8 8 8 7 7 7 7 7
2 3 2 4 6 6 6 6 7 7 7 7 7 7 7 7 7 7 7 7 7 7 7 7 7 7 7 7 7 7 7 7 7 7 7 7 7 7 7 7 7 7 7
-3 -3 -3 -3 -2 -0 1 3 5 5 5 5 5 5 5 5 6 6 6 5 6 6 6 6 6 6 6 6 6 6 6 6 6 6 6 6 5 5 6 5 5 4 4
-4 -4 -4 -3 -3 -2 -1 -1 -0 0 1 1 1 1 1 1 0 0 0 1 2 3 2 2 2 3 3 4 4 4 4 4 4 3 3 3 1 1 0 0 1 1 1
-3 -4 -3 -4 -3 -2 -2 -2 -2 -1 -1 -1 -1 -2 -4 -4 -4 -3 -2 -0 0 0 0 0 -0 -1 -2 -1 -0 -0 1 1 -1 -2 -2 -2 -2 -2 -3 -3 -3 -2 -2
-5 -5 -5 -4 -4 -4 -3 -3 -3 -3 -4 -5 -6 -6 -6 -7 -6 -6 -6 -5 -4 -4 -5 -6 -6 -6 -6 -5 -4 -4 -4 -4 -3 -4 -4 -5 -5 -6 -6 -6 -6 -6 -6
-5 -6 -6 -6 -6 -6 -6 -7 -6 -6 -6 -7 -7 -7 -7 -7 -7 -7 -7 -7 -7 -7 -7 -7 -7 -7 -7 -7 -6 -6 -6 -6 -7 -7 -7 -8 -8 -8 -8 -8 -8 -8 -7
-7 -7 -8 -8 -8 -8 -8 -8 -8 -8 -8 -8 -8 -8 -7 -7 -7 -7 -7 -7 -7 -7 -7 -8 -8 -8 -8 -8 -8 -8 -7 -8 -8 -8 -8 -9 -9 -9 -9 -9 -10 -11 -15
-8 -8 -8 -8 -8 -8 -8 -8 -8 -8 -8 -8 -8 -8 -8 -8 -7 -7 -7 -7 -7 -8 -8 -8 -8 -8 -9 -9 -9 -9 -9 -9 -9 -10 -11 -12 -13 -16 -18 -18 -17 -16 -16
-8 -8 -8 -8 -9 -9 -9 -8 -8 -8 -8 -8 -8 -8 -8 -8 -8 -8 -8 -8 -8 -8 -9 -9 -10 -11 -13 -15 -17 -20 -23 -25 -25 -21 -19 -19 -17 -21 -16 -19 -15 -15 -16
-8 -8 -8 -8 -9 -9 -10 -10 -10 -9 -9 -9 -9 -9 -9 -9 -9 -9 -9 -9 -9 -10 -10 -11 -13 -15 -16 -18 -19 -22 -25 -32 -28 -24 -20 -20 -16 -15 -16 -16 -15 -16 -16
-9 -9 -9 -9 -9 -9 -9 -9 -10 -10 -10 -11 -11 -12 -12 -11 -11 -10 -10 -11 -13 -19 -25 -20 -17 -17 -18 -19 -22 -24 -28 -27 -29 -28 -28 -27 -20 -17 -16 -16 -18 -18 -17
-10 -10 -11 -11 -11 -11 -12 -13 -14 -15 -17 -20 -22 -25 -28 -30 -30 -29 -29 -30 -28 -25 -23 -23 -21 -19 -19 -19 -22 -26 -30 -31 -31 -29 -28 -26 -24 -18 -19 -18 -17 -21 -20
-15 -15 -14 -14 -15 -15 -16 -18 -22 -26 -28 -30 -31 -32 -30 -29 -32 -33 -34 -33 -31 -27 -23 -23 -22 -25 -26 -25 -28 -30 -23 -27 -27 -25 -27 -28 -26 -20 -18 -19 -18 -17 -18
-18 -19 -19 -18 -20 -22 -24 -25 -27 -27 -27 -29 -31 -32 -33 -30 -32 -33 -33 -33 -32 -30 -29 -27 -28 -30 -27 -28 -26 -29 -30 -28 -29 -28 -28 -28 -28 -24 -21 -19 -19 -18 -18
-15 -16 -18 -19 -20 -21 -23 -24 -25 -25 -25 -25 -27 -30 -31 -31 -30 -31 -31 -32 -32 -31 -30 -30 -28 -30 -30 -30 -29 -28 -28 -28 -28 -28 -28 -28 -27 -20 -20 -20 -20 -19 -19
-20 -20 -20 -22 -24 -23 -21 -21 -20 -20 -22 -23 -25 -27 -28 -29 -29 -28 -30 -30 -29 -30 -30 -29 -29 -29 -29 -29 -28 -28 -27 -27 -27 -27 -27 -27 -25 -23 -21 -20 -20 -20 -20
-19 -17 -18 -18 -18 -17 -17 -17 -24 -26 -24 -21 -21 -24 -28 -29 -29 -29 -29 -29 -29 -29 -29 -29 -29 -28 -28 -28 -27 -27 -27 -27 -27 -27 -27 -27 -27 -25 -23 -21 -21 -21 -21
-19 -19 -19 -18 -19 -19 -18 -19 -20 -20 -21 -21 -21 -22 -26 -27 -28 -29 -29 -29 -29 -29 -28 -28 -28 -27 -27 -27 -27 -26 -26 -26 -27 -27 -27 -27 -27 -27 -26 -24 -25 -22 -22
-25 -25 -23 -22 -22 -20 -19 -19 -21 -23 -24 -24 -26 -27 -28 -27 -28 -29 -29 -28 -28 -28 -27 -27 -27 -26 -26 -26 -26 -26 -26 -26 -26 -26 -26 -27 -27 -26 -25 -23 -23 -22 -22

GFSGL_850_dewp_081.txt.gz
Dewpoint
11 10 10 9 10 9 9 9 8 9 9 8 8 8 9 9 9 9 8 8 7 4 2 2 3 3 3 2 4 3 3 6 6 6 5 5 5 5 4 6 6 6 3
11 10 9 9 9 9 9 9 8 8 8 8 8 8 9 9 9 9 9 9 9 8 6 5 6 4 2 1 2 0 4 5 3 5 3 4 5 4 4 4 4 4 5
9 9 9 9 9 8 8 8 8 7 7 8 8 9 9 9 9 9 9 9 8 8 9 9 9 7 3 3 1 1 2 3 4 5 4 4 4 5 5 5 6 5 4
9 9 8 9 9 9 9 9 8 8 8 7 8 8 9 9 8 9 9 9 9 9 9 9 8 8 8 7 4 2 3 5 6 7 7 7 8 7 7 7 7 7 6
9 8 8 8 8 8 8 8 9 9 9 9 8 8 8 8 8 8 8 9 9 9 9 8 8 8 8 8 8 8 7 8 8 8 8 8 8 8 8 7 7 7 7
8 8 8 8 8 8 8 8 8 7 8 8 9 9 9 8 8 8 8 9 9 8 8 8 8 8 8 8 8 8 8 8 8 8 8 8 8 8 8 8 8 8 8
6 6 6 7 7 7 8 8 8 8 8 8 8 8 8 8 8 8 8 8 8 8 8 8 8 8 8 8 8 8 8 8 8 8 8 8 7 7 8 8 8 8 7
2 3 3 5 5 4 5 7 6 6 6 6 7 7 7 7 7 8 7 7 7 7 7 7 7 7 7 7 7 7 7 7 7 7 7 7 7 7 7 7 6 6 6
-1 -2 -1 1 3 3 2 5 4 4 4 4 4 4 5 5 5 5 6 5 5 5 5 4 5 5 4 5 5 5 5 5 5 5 5 4 3 3 3 3 2 2 2
-3 -3 -3 -2 -2 -1 -1 0 1 1 1 2 2 2 2 2 1 1 1 2 2 2 2 2 2 2 1 1 1 1 2 2 1 1 0 -0 -0 -1 -1 -1 -2 -2 -2
-4 -4 -4 -3 -2 -2 -2 -1 -2 -2 -1 -1 -2 -4 -5 -4 -4 -2 -1 -0 -0 -0 -0 -2 -4 -6 -5 -4 -3 -2 -1 -2 -2 -2 -3 -3 -4 -5 -5 -6 -6 -5 -5
-3 -3 -3 -3 -3 -3 -3 -3 -3 -4 -5 -6 -6 -6 -6 -6 -6 -6 -6 -5 -5 -6 -7 -7 -7 -7 -7 -7 -6 -5 -5 -5 -6 -6 -6 -7 -7 -7 -7 -7 -7 -7 -7
-4 -3 -2 -3 -3 -4 -4 -6 -6 -6 -6 -6 -6 -7 -7 -7 -7 -7 -7 -7 -7 -8 -8 -8 -8 -8 -8 -8 -7 -7 -7 -7 -8 -8 -8 -8 -8 -8 -8 -9 -9 -10 -10
-7 -7 -7 -7 -7 -7 -6 -6 -6 -7 -7 -7 -7 -7 -7 -7 -7 -7 -7 -7 -7 -8 -8 -8 -8 -8 -8 -8 -8 -8 -8 -8 -8 -9 -9 -9 -10 -11 -14 -15 -13 -13 -12
-7 -8 -8 -8 -8 -8 -8 -8 -8 -8 -8 -8 -8 -8 -8 -8 -8 -8 -8 -8 -8 -8 -8 -8 -9 -9 -10 -10 -11 -11 -12 -12 -12 -12 -12 -12 -14 -13 -13 -14 -14 -13 -13
-8 -8 -8 -8 -8 -8 -9 -9 -9 -9 -9 -9 -9 -9 -8 -8 -8 -8 -8 -8 -9 -9 -9 -9 -10 -11 -12 -12 -13 -13 -21 -20 -16 -14 -13 -13 -13 -14 -13 -13 -13 -13 -14
-8 -8 -8 -8 -9 -9 -9 -9 -9 -10 -10 -10 -10 -10 -10 -10 -9 -9 -10 -10 -10 -11 -11 -12 -12 -12 -13 -13 -14 -14 -14 -18 -17 -14 -14 -14 -14 -14 -14 -14 -14 -14 -15
-9 -8 -8 -9 -9 -9 -9 -9 -10 -10 -11 -15 -20 -23 -21 -16 -15 -14 -16 -13 -14 -18 -13 -13 -13 -14 -14 -14 -15 -15 -15 -19 -16 -15 -16 -15 -15 -15 -15 -15 -15 -17 -16
-10 -11 -11 -11 -11 -11 -11 -12 -12 -12 -12 -12 -13 -14 -25 -28 -31 -30 -29 -18 -14 -14 -15 -15 -15 -15 -15 -15 -16 -16 -16 -17 -18 -16 -16 -17 -16 -16 -16 -16 -16 -16 -17
-15 -16 -12 -11 -11 -11 -12 -12 -12 -12 -13 -16 -25 -26 -15 -14 -15 -20 -24 -19 -16 -15 -15 -16 -16 -16 -17 -17 -17 -17 -17 -17 -19 -17 -17 -17 -18 -17 -17 -17 -16 -16 -17
-12 -13 -13 -12 -12 -12 -12 -13 -13 -13 -14 -16 -31 -32 -32 -15 -15 -16 -16 -17 -17 -17 -17 -17 -17 -18 -18 -18 -18 -18 -18 -18 -19 -20 -19 -19 -19 -18 -18 -17 -17 -17 -17
-12 -12 -13 -13 -13 -13 -14 -14 -14 -14 -14 -15 -16 -21 -25 -16 -16 -17 -17 -18 -20 -19 -19 -18 -19 -20 -26 -25 -23 -20 -19 -21 -22 -26 -28 -24 -19 -19 -19 -18 -18 -18 -18
-13 -13 -13 -14 -14 -14 -14 -14 -14 -15 -15 -16 -16 -17 -17 -17 -18 -18 -19 -21 -19 -23 -29 -26 -24 -26 -29 -27 -24 -23 -24 -27 -28 -28 -28 -28 -22 -20 -20 -19 -19 -19 -20
-14 -14 -14 -15 -15 -15 -15 -15 -16 -19 -17 -17 -17 -17 -18 -18 -19 -19 -21 -27 -29 -24 -28 -29 -29 -29 -29 -28 -27 -26 -28 -27 -27 -28 -28 -27 -23 -21 -23 -21 -20 -20 -20
-15 -15 -15 -16 -16 -16 -16 -16 -17 -17 -17 -18 -18 -18 -19 -19 -19 -20 -20 -24 -29 -28 -27 -28 -28 -28 -28 -28 -27 -27 -27 -27 -27 -27 -27 -27 -22 -24 -22 -22 -21 -22 -21
-17 -17 -17 -17 -17 -17 -17 -17 -18 -18 -18 -19 -19 -19 -20 -20 -20 -21 -21 -24 -27 -28 -27 -25 -25 -27 -27 -26 -26 -27 -26 -26 -26 -27 -27 -27 -23 -22 -22 -23 -22 -22 -21

GFSGL_850_dewp_084.txt.gz
Dewpoint
11 11 10 10 9 9 9 10 9 9 9 9 9 9 9 9 9 9 9 9 8 8 9 8 7 6 3 5 7 4 5 5 5 3 4 3 3 3 3 4 6 6 6
11 10 10 10 9 9 9 8 8 9 8 8 9 8 9 9 9 9 9 9 9 9 7 5 4 4 5 5 5 5 4 4 4 3 3 5 6 5 5 5 5 5 5
10 9 9 9 9 8 8 8 8 8 7 8 8 9 8 8 9 9 9 9 9 8 8 7 6 5 6 6 6 6 4 4 5 2 1 2 2 3 4 4 5 5 5
10 9 9 8 9 9 8 8 8 7 7 8 8 9 9 9 9 9 9 9 9 9 9 9 9 9 9 8 8 7 6 4 3 2 1 2 3 6 7 7 7 7 6
9 9 9 9 9 9 9 9 8 8 8 8 8 8 8 9 8 8 9 8 9 9 9 9 9 9 8 8 8 8 8 7 7 7 7 7 8 8 8 9 9 9 9
9 9 8 8 7 8 8 8 9 8 8 9 8 8 8 8 8 8 8 9 9 9 9 8 9 9 8 8 8 8 8 8 8 8 8 8 8 8 8 8 7 8 8
6 7 7 7 8 8 8 8 8 7 8 8 8 8 8 8 8 8 8 8 8 8 8 8 8 8 8 8 7 8 8 8 8 8 8 7 7 7 7 7 7 6 6
2 3 3 5 5 5 6 7 6 7 7 7 7 7 7 7 8 8 8 8 7 7 7 7 7 7 7 7 6 6 6 6 6 6 6 5 5 4 4 4 4 4 4
-0 -0 -0 1 1 2 3 3 4 4 5 4 3 4 4 5 5 6 6 6 6 6 5 5 5 5 5 5 5 4 3 3 3 3 2 2 1 1 2 2 1 1 0
-2 -1 -1 -1 -0 -2 -1 -1 0 2 2 3 2 2 1 2 1 2 2 3 3 3 2 2 2 2 2 1 1 1 1 0 -0 -0 -1 -1 -1 -3 -4 -4 -5 -5 -4
-1 -2 -1 -2 -1 -1 -2 -3 -2 -1 -1 -1 -4 -5 -4 -3 -2 -1 -1 -0 -0 -0 -1 -3 -6 -6 -5 -4 -3 -2 -2 -2 -3 -3 -3 -5 -6 -6 -7 -7 -7 -7 -7
-2 -1 -2 -3 -4 -3 -3 -3 -3 -3 -4 -5 -5 -6 -6 -6 -6 -6 -5 -5 -5 -6 -7 -7 -7 -7 -7 -7 -7 -6 -6 -6 -7 -7 -7 -8 -8 -8 -8 -8 -8 -8 -9
-5 -5 -5 -5 -4 -4 -3 -4 -4 -5 -5 -6 -6 -6 -6 -6 -7 -7 -7 -7 -8 -8 -8 -8 -8 -8 -8 -8 -8 -8 -8 -8 -8 -8 -8 -9 -9 -11 -13 -13 -14 -13 -13
-6 -6 -6 -4 -4 -4 -4 -4 -4 -4 -4 -5 -5 -5 -5 -5 -6 -6 -7 -7 -7 -7 -8 -8 -8 -8 -9 -9 -9 -9 -9 -10 -10 -10 -11 -13 -15 -16 -19 -19 -15 -16 -16
-7 -8 -8 -8 -8 -7 -7 -7 -7 -7 -7 -7 -8 -8 -8 -8 -8 -8 -8 -8 -8 -8 -8 -9 -9 -10 -11 -12 -13 -16 -17 -17 -17 -17 -17 -16 -18 -22 -21 -22 -20 -16 -14
-7 -7 -7 -8 -9 -9 -9 -9 -9 -9 -9 -9 -9 -9 -8 -8 -8 -8 -9 -9 -9 -9 -10 -11 -14 -17 -19 -21 -23 -26 -29 -30 -27 -25 -24 -22 -19 -19 -16 -19 -19 -15 -15
-8 -8 -8 -8 -8 -8 -9 -9 -10 -10 -10 -10 -11 -11 -11 -11 -10 -10 -10 -11 -11 -14 -18 -18 -18 -17 -18 -19 -20 -20 -23 -24 -22 -22 -24 -23 -18 -16 -17 -15 -17 -24 -18
-8 -8 -8 -9 -8 -9 -9 -10 -10 -10 -16 -20 -26 -28 -25 -18 -17 -17 -18 -17 -21 -21 -18 -16 -15 -15 -15 -16 -16 -18 -22 -24 -22 -18 -20 -22 -19 -15 -17 -17 -16 -17 -17
-10 -10 -11 -12 -11 -11 -11 -11 -11 -12 -12 -14 -14 -16 -21 -23 -30 -27 -21 -18 -16 -16 -16 -16 -16 -16 -16 -17 -19 -17 -17 -21 -21 -18 -19 -22 -21 -17 -16 -17 -17 -17 -16
-14 -11 -11 -11 -11 -11 -11 -12 -12 -13 -16 -22 -27 -20 -14 -14 -17 -21 -21 -18 -17 -17 -15 -16 -18 -18 -18 -18 -17 -19 -18 -19 -22 -20 -20 -22 -21 -17 -18 -17 -18 -17 -17
-11 -12 -11 -12 -12 -12 -12 -12 -13 -13 -15 -20 -31 -26 -17 -15 -16 -17 -19 -20 -20 -19 -18 -17 -20 -22 -23 -22 -20 -20 -21 -22 -24 -25 -25 -24 -21 -18 -18 -18 -18 -18 -18
-12 -13 -13 -13 -14 -14 -13 -14 -14 -14 -14 -15 -16 -20 -18 -17 -17 -18 -21 -23 -24 -24 -23 -21 -21 -24 -26 -26 -25 -24 -24 -26 -27 -28 -28 -28 -23 -19 -20 -19 -19 -19 -19
-13 -13 -13 -14 -14 -13 -14 -14 -14 -14 -15 -15 -16 -16 -17 -18 -19 -19 -22 -24 -24 -26 -28 -27 -28 -28 -28 -28 -26 -28 -28 -28 -28 -28 -28 -28 -26 -23 -23 -20 -20 -20 -20
-14 -14 -14 -16 -15 -14 -14 -15 -16 -17 -17 -16 -16 -17 -18 -18 -19 -19 -22 -26 -28 -26 -28 -28 -30 -30 -29 -28 -28 -28 -28 -27 -27 -27 -27 -27 -26 -24 -25 -23 -21 -21 -21
-15 -15 -15 -15 -15 -15 -16 -16 -16 -16 -17 -17 -17 -18 -18 -18 -19 -19 -20 -24 -28 -28 -28 -28 -28 -27 -28 -27 -28 -27 -27 -27 -27 -27 -27 -27 -27 -24 -22 -22 -21 -22 -21
-16 -16 -16 -16 -16 -16 -16 -16 -17 -17 -18 -18 -18 -18 -19 -19 -20 -20 -20 -22 -25 -26 -27 -24 -24 -26 -26 -27 -27 -26 -26 -27 -26 -26 -26 -26 -27 -26 -26 -26 -26 -24 -22

GFSGL_850_dewp_087.txt.gz
Dewpoint
12 11 11 10 9 9 9 9 9 9 9 9 9 9 9 10 9 9 9 9 9 9 9 8 9 8 7 7 6 7 7 7 6 4 6 6 6 4 4 5 5 5 5
12 11 11 10 9 9 9 8 8 8 8 9 9 9 9 9 9 9 9 9 9 8 7 8 8 8 7 7 6 3 3 4 5 6 5 6 5 3 3 3 5 6 6
11 11 10 9 8 9 9 8 8 8 8 7 8 8 9 9 9 9 9 9 8 8 8 8 9 7 7 4 3 5 6 6 6 6 5 4 3 1 1 3 4 4 6
11 10 10 9 10 9 9 9 9 8 7 8 8 9 8 8 9 9 9 9 9 9 9 9 8 8 7 6 6 7 8 7 7 7 5 5 4 4 3 4 7 8 8
10 9 9 9 9 9 9 9 8 7 7 8 8 9 9 8 9 9 9 9 9 9 8 8 8 8 8 8 8 8 8 7 8 8 7 7 8 7 7 8 8 8 8
9 9 9 8 8 7 8 8 7 7 7 8 8 8 9 9 9 9 8 9 9 8 8 8 8 8 8 8 8 8 8 7 8 8 8 8 8 8 7 8 8 8 8
5 7 8 8 8 8 8 8 9 9 8 8 8 8 8 8 8 8 8 8 8 8 8 8 8 7 7 8 8 8 8 8 8 7 7 7 7 7 7 7 6 6 5
2 3 4 6 7 7 7 7 7 7 7 7 7 7 8 8 8 8 8 8 8 8 7 7 7 7 7 7 7 6 6 6 6 6 5 4 4 4 4 4 4 3 3
0 0 -0 1 1 3 4 4 4 4 4 4 4 4 6 6 6 5 5 6 7 7 6 6 6 5 5 4 5 4 4 3 2 2 1 1 1 1 1 -0 -1 -1 -0
-0 -0 -0 0 -0 -0 -0 0 0 0 1 1 1 2 3 3 1 2 2 3 4 3 3 3 3 3 3 2 1 1 -0 -0 -1 -1 -1 -1 -2 -3 -4 -4 -5 -5 -6
-2 -1 -1 -1 -1 -0 -2 -0 -0 -1 -2 -1 -1 -1 -1 0 -0 -0 0 1 1 1 1 -2 -5 -5 -4 -3 -3 -3 -2 -2 -2 -3 -4 -6 -7 -7 -7 -8 -8 -8 -8
-3 -2 -2 -3 -2 -3 -2 -3 -2 -2 -2 -5 -5 -4 -4 -2 -2 -2 -2 -1 -3 -5 -7 -7 -7 -7 -8 -8 -8 -7 -7 -7 -7 -8 -8 -8 -8 -9 -9 -9 -9 -10 -10
-4 -4 -4 -4 -4 -4 -4 -3 -4 -3 -4 -3 -5 -5 -6 -6 -6 -6 -7 -7 -8 -8 -8 -8 -8 -8 -8 -8 -8 -8 -8 -8 -9 -9 -9 -10 -11 -13 -15 -16 -17 -17 -18
-5 -5 -5 -4 -4 -5 -5 -5 -5 -5 -5 -5 -6 -6 -6 -6 -6 -5 -5 -5 -5 -5 -6 -6 -7 -8 -9 -10 -10 -10 -10 -11 -11 -12 -14 -16 -18 -20 -21 -23 -21 -17 -16
-8 -8 -7 -6 -6 -6 -6 -6 -6 -6 -6 -5 -5 -6 -6 -6 -6 -6 -6 -6 -7 -7 -8 -8 -9 -10 -12 -13 -15 -17 -18 -18 -19 -19 -20 -21 -21 -23 -24 -23 -21 -19 -18
-7 -8 -8 -9 -9 -9 -8 -8 -9 -8 -8 -8 -8 -8 -8 -8 -8 -9 -9 -9 -9 -10 -12 -15 -19 -21 -23 -26 -27 -27 -29 -29 -28 -26 -25 -24 -24 -23 -24 -25 -24 -22 -20
-8 -8 -8 -8 -8 -9 -10 -11 -11 -12 -11 -10 -10 -9 -10 -10 -10 -10 -10 -11 -12 -16 -21 -21 -21 -22 -24 -25 -26 -26 -29 -29 -28 -30 -28 -27 -27 -26 -23 -26 -25 -25 -23
-8 -8 -8 -8 -9 -9 -10 -11 -13 -17 -22 -25 -25 -17 -13 -12 -13 -17 -20 -20 -21 -21 -22 -21 -21 -21 -22 -23 -25 -27 -27 -28 -31 -32 -30 -27 -25 -23 -22 -22 -23 -21 -20
-11 -12 -12 -11 -12 -12 -12 -13 -14 -16 -19 -21 -22 -24 -28 -28 -25 -24 -22 -23 -24 -23 -22 -22 -21 -23 -24 -24 -25 -28 -29 -27 -28 -30 -31 -26 -24 -22 -19 -19 -19 -18 -18
-12 -11 -11 -11 -12 -12 -12 -14 -15 -17 -20 -24 -21 -18 -21 -21 -24 -24 -23 -22 -22 -23 -23 -23 -23 -23 -24 -25 -24 -24 -26 -25 -25 -27 -27 -26 -25 -23 -20 -19 -19 -19 -18
-12 -12 -13 -12 -13 -13 -14 -15 -17 -18 -21 -30 -23 -18 -22 -25 -25 -25 -25 -26 -24 -24 -26 -27 -25 -25 -25 -24 -26 -28 -28 -29 -29 -29 -29 -27 -26 -24 -21 -18 -18 -19 -19
-13 -14 -14 -14 -13 -13 -14 -14 -14 -15 -16 -18 -21 -21 -19 -21 -22 -22 -24 -26 -26 -25 -24 -25 -27 -27 -27 -29 -30 -30 -29 -29 -30 -29 -29 -28 -27 -26 -23 -20 -20 -20 -20
-13 -13 -13 -15 -14 -14 -14 -14 -15 -15 -15 -16 -16 -17 -19 -19 -20 -21 -23 -26 -28 -28 -29 -29 -29 -29 -30 -30 -30 -29 -29 -28 -29 -28 -28 -28 -28 -27 -26 -24 -22 -21 -21
-14 -15 -15 -16 -14 -14 -15 -16 -16 -16 -16 -16 -17 -17 -18 -19 -21 -23 -23 -24 -26 -29 -30 -30 -30 -30 -28 -29 -29 -29 -29 -28 -28 -28 -27 -27 -27 -27 -27 -26 -24 -23 -22
-15 -15 -15 -15 -15 -16 -15 -16 -16 -16 -17 -17 -17 -18 -18 -18 -19 -20 -22 -24 -25 -27 -28 -29 -30 -29 -29 -29 -28 -28 -28 -27 -27 -27 -27 -27 -27 -27 -26 -25 -25 -24 -23
-17 -16 -16 -16 -16 -16 -16 -17 -17 -17 -17 -18 -18 -18 -19 -19 -19 -20 -21 -23 -25 -25 -27 -28 -29 -28 -29 -28 -28 -28 -28 -27 -27 -27 -26 -26 -26 -26 -26 -27 -26 -26 -25

GFSGL_850_dewp_090.txt.gz
Dewpoint
8 9 11 10 10 10 9 9 8 8 8 9 9 9 9 8 9 9 10 9 9 10 9 9 9 8 6 9 8 7 7 7 6 6 6 6 5 5 6 6 6 5 5
10 9 11 10 10 9 8 8 8 8 8 8 9 10 9 9 9 9 9 9 9 9 9 9 9 8 8 8 9 7 7 7 7 6 6 5 4 6 7 6 4 5 6
8 11 11 10 9 9 8 8 9 9 8 8 8 9 9 9 9 9 9 9 9 9 9 8 8 8 9 9 8 7 7 5 4 4 4 4 5 6 5 4 3 1 2
10 11 11 10 9 9 9 9 9 9 9 8 8 8 8 9 9 9 9 9 9 9 9 8 8 8 8 7 8 8 7 5 4 7 7 7 6 6 6 6 5 6 6
10 10 10 10 9 10 9 9 8 9 8 7 7 8 8 8 8 9 9 9 9 9 8 8 8 8 8 8 8 7 6 7 8 7 7 7 7 7 7 7 8 7 8
8 9 9 10 9 8 8 8 8 8 7 7 8 9 9 8 9 9 9 9 9 9 9 9 8 8 8 8 8 8 8 7 7 7 7 7 7 6 7 7 7 7 7
5 6 8 9 9 9 9 9 8 8 8 8 8 8 9 9 8 8 8 9 9 8 8 8 8 8 8 8 8 8 8 8 7 7 7 7 7 7 7 7 6 6 6
2 3 4 6 7 7 8 8 8 8 8 7 7 8 8 8 8 8 8 8 8 8 8 8 7 7 7 7 7 7 7 7 7 6 6 6 5 5 5 4 4 4 3
1 1 1 1 1 2 4 4 4 5 5 6 6 6 6 7 6 6 7 7 7 7 6 6 6 6 6 6 6 5 5 5 4 3 3 2 2 1 1 1 -0 -1 -0
-1 -0 0 0 0 1 -0 -0 1 2 2 1 3 2 1 2 2 3 4 5 5 5 4 3 3 3 3 3 2 3 3 2 1 0 -0 -1 -1 -1 -2 -4 -4 -5 -5
-3 -2 -1 -0 -0 0 -0 -1 -0 -1 -0 -1 -1 -1 -1 -1 -0 1 1 2 2 2 1 -0 -0 -1 -2 -1 -1 -1 -2 -2 -2 -2 -3 -4 -5 -7 -7 -8 -8 -8 -9
-3 -3 -2 -2 -1 -2 -1 -2 -2 -1 -2 -2 -1 -1 -2 -2 -2 -1 -1 -0 -0 -0 -3 -5 -4 -4 -4 -6 -4 -5 -6 -6 -6 -7 -8 -8 -8 -9 -9 -10 -10 -11 -12
-4 -4 -4 -4 -4 -4 -3 -4 -4 -4 -4 -4 -4 -4 -4 -4 -4 -4 -4 -4 -4 -5 -5 -6 -7 -7 -8 -8 -8 -8 -8 -8 -8 -9 -9 -10 -12 -13 -15 -16 -16 -16 -17
-5 -5 -5 -4 -5 -5 -4 -5 -5 -5 -5 -5 -4 -5 -5 -6 -6 -6 -5 -5 -5 -5 -5 -6 -6 -7 -7 -7 -8 -8 -9 -11 -12 -14 -15 -17 -19 -21 -22 -24 -24 -24 -25
-7 -6 -6 -6 -5 -5 -5 -5 -5 -6 -5 -5 -5 -5 -5 -6 -7 -6 -6 -6 -6 -6 -6 -6 -7 -10 -13 -15 -15 -16 -18 -20 -22 -25 -25 -28 -29 -28 -27 -26 -23 -21 -21
-8 -8 -8 -8 -8 -7 -7 -7 -7 -7 -7 -7 -7 -7 -7 -7 -8 -8 -8 -8 -9 -10 -11 -14 -18 -22 -26 -27 -28 -30 -31 -31 -30 -28 -27 -26 -26 -27 -26 -25 -25 -24 -22
-8 -8 -8 -9 -10 -10 -11 -10 -9 -9 -8 -8 -9 -9 -9 -9 -9 -9 -10 -12 -16 -17 -22 -25 -26 -26 -27 -27 -28 -30 -32 -31 -29 -30 -30 -29 -27 -27 -28 -27 -26 -26 -25
-8 -8 -8 -9 -9 -10 -11 -14 -18 -19 -14 -11 -10 -10 -10 -11 -12 -14 -16 -18 -21 -21 -24 -24 -25 -26 -27 -28 -28 -29 -30 -31 -30 -30 -30 -30 -29 -28 -28 -28 -28 -27 -26
-10 -11 -12 -12 -12 -13 -14 -15 -16 -18 -22 -25 -26 -23 -19 -16 -18 -21 -20 -21 -23 -24 -24 -24 -24 -25 -27 -28 -30 -29 -30 -30 -32 -31 -30 -30 -31 -30 -28 -27 -26 -24 -24
-12 -12 -12 -13 -13 -14 -14 -15 -16 -18 -19 -20 -19 -19 -21 -21 -20 -21 -22 -23 -23 -24 -23 -23 -24 -25 -27 -29 -30 -30 -30 -30 -30 -30 -30 -30 -30 -28 -25 -25 -24 -23 -22
-13 -13 -13 -12 -13 -13 -13 -15 -16 -19 -27 -25 -19 -19 -23 -23 -24 -24 -24 -25 -25 -24 -24 -25 -26 -27 -29 -29 -29 -30 -31 -31 -31 -31 -31 -30 -30 -28 -26 -24 -23 -21 -21
-14 -14 -14 -13 -13 -14 -15 -15 -16 -16 -18 -21 -22 -21 -22 -22 -22 -22 -23 -24 -25 -25 -25 -25 -26 -28 -29 -30 -30 -31 -31 -31 -30 -30 -30 -29 -29 -29 -28 -27 -25 -22 -23
-13 -14 -14 -16 -14 -15 -15 -14 -15 -15 -16 -17 -17 -18 -19 -20 -20 -22 -23 -26 -27 -28 -30 -30 -30 -31 -31 -31 -30 -30 -30 -30 -30 -29 -29 -29 -28 -28 -28 -27 -27 -26 -24
-14 -14 -14 -15 -14 -14 -14 -16 -16 -16 -16 -16 -17 -17 -18 -19 -20 -21 -22 -24 -26 -29 -30 -30 -30 -30 -31 -30 -30 -29 -29 -29 -29 -28 -28 -28 -28 -28 -27 -26 -26 -24 -23
-16 -15 -15 -15 -15 -15 -16 -16 -16 -16 -17 -17 -17 -18 -18 -20 -20 -21 -22 -23 -26 -28 -29 -30 -30 -30 -29 -29 -29 -28 -28 -27 -27 -27 -27 -27 -27 -27 -27 -27 -27 -27 -27
-18 -16 -16 -16 -16 -16 -17 -17 -17 -17 -17 -18 -18 -18 -18 -19 -20 -21 -21 -23 -24 -25 -26 -27 -28 -28 -28 -28 -27 -27 -28 -28 -27 -27 -26 -26 -26 -26 -26 -27 -27 -27 -26

GFSGL_850_dewp_093.txt.gz
Dewpoint
6 7 8 7 10 10 8 8 7 8 8 8 8 9 9 9 9 9 9 9 9 10 10 10 9 9 8 7 7 6 8 7 7 8 8 8 7 7 7 7 7 6 7
9 9 9 8 10 9 10 9 8 8 8 8 8 9 10 9 8 9 8 9 9 10 10 10 10 9 8 8 7 8 8 7 7 5 7 8 7 6 6 5 6 6 6
8 9 9 10 10 9 9 9 9 8 8 8 8 9 9 9 9 9 9 9 9 9 9 9 9 9 9 8 8 9 8 8 6 6 7 6 6 5 4 5 5 7 6
9 8 10 10 10 9 9 9 9 9 8 8 7 7 8 9 9 9 9 9 9 9 9 9 9 9 9 9 7 8 8 7 6 6 6 5 5 6 7 7 6 5 5
8 8 9 10 10 9 9 8 8 8 7 7 7 7 8 9 9 9 9 9 9 9 9 9 9 9 9 8 8 8 8 8 8 8 7 6 7 7 7 7 7 7 7
5 7 8 8 10 9 9 9 8 8 8 7 7 6 8 8 8 8 9 9 9 9 9 9 9 9 8 8 8 8 8 8 7 7 7 7 7 7 7 7 7 7 6
3 4 6 7 9 10 9 9 9 9 8 7 6 6 8 8 8 8 8 9 9 9 9 9 9 8 8 8 8 8 8 8 8 7 7 7 7 7 7 7 6 6 6
2 2 2 2 4 8 8 8 8 8 8 8 7 7 8 8 8 8 8 8 8 8 8 8 8 8 8 8 8 8 8 7 7 7 7 6 6 7 6 6 5 5 4
0 0 1 1 1 2 4 5 6 6 7 6 6 7 7 8 8 8 7 8 8 7 7 7 6 7 6 6 7 7 7 6 6 6 6 5 4 4 4 3 3 3 2
-2 -1 -0 0 1 1 1 1 0 2 3 2 2 3 3 5 4 4 5 6 6 5 5 5 4 5 4 4 4 4 4 3 2 2 2 2 1 0 -1 -2 -2 -2 -3
-3 -2 -1 -1 -1 -1 -0 -0 0 0 0 -0 -0 -1 -1 1 1 1 2 2 2 1 0 1 1 1 2 2 1 1 1 0 1 -0 -2 -2 -3 -5 -6 -7 -8 -8 -8
-3 -3 -3 -2 -2 -2 -2 -2 -2 -1 -1 -1 -1 -1 -1 -2 -1 -1 -0 0 0 0 -1 -2 -2 -1 -0 -1 -1 -1 -2 -3 -3 -5 -6 -7 -8 -9 -9 -9 -10 -11 -12
-4 -4 -5 -4 -4 -4 -3 -3 -3 -3 -3 -3 -3 -3 -3 -3 -3 -3 -2 -2 -2 -1 -3 -4 -4 -4 -4 -5 -5 -6 -7 -8 -8 -9 -9 -10 -11 -12 -13 -15 -16 -17 -19
-5 -5 -5 -5 -5 -5 -5 -4 -4 -4 -4 -4 -5 -6 -5 -5 -5 -5 -5 -4 -4 -4 -4 -5 -5 -6 -6 -7 -7 -8 -9 -9 -10 -12 -14 -16 -19 -21 -21 -23 -25 -26 -26
-6 -6 -6 -6 -6 -6 -6 -6 -6 -6 -6 -5 -6 -6 -6 -6 -7 -6 -5 -5 -5 -5 -5 -5 -5 -5 -6 -8 -9 -11 -15 -19 -21 -25 -28 -28 -26 -25 -26 -26 -27 -27 -28
-8 -7 -7 -7 -6 -6 -6 -6 -7 -7 -7 -7 -6 -6 -6 -6 -6 -6 -6 -6 -7 -7 -8 -9 -15 -19 -21 -24 -26 -28 -28 -27 -26 -25 -26 -27 -28 -29 -29 -29 -29 -29 -29
-8 -8 -8 -9 -9 -7 -8 -8 -8 -8 -7 -7 -8 -8 -8 -8 -9 -9 -9 -11 -15 -16 -19 -22 -23 -24 -25 -24 -25 -26 -27 -28 -28 -29 -30 -30 -29 -30 -30 -29 -28 -28 -26
-8 -9 -9 -9 -9 -11 -14 -15 -12 -10 -9 -9 -10 -10 -10 -10 -10 -11 -14 -16 -19 -19 -22 -22 -23 -23 -24 -25 -26 -27 -28 -28 -29 -30 -30 -30 -31 -30 -30 -30 -30 -30 -29
-13 -12 -12 -13 -13 -13 -14 -16 -19 -22 -23 -19 -16 -14 -12 -13 -16 -19 -19 -19 -21 -22 -22 -23 -23 -24 -25 -26 -28 -28 -28 -29 -30 -31 -31 -31 -32 -32 -31 -30 -29 -29 -29
-13 -13 -13 -13 -13 -14 -14 -16 -17 -18 -19 -20 -20 -21 -23 -20 -19 -21 -21 -21 -22 -23 -23 -24 -25 -25 -25 -26 -27 -29 -30 -31 -31 -32 -32 -32 -32 -31 -31 -31 -30 -30 -30
-14 -14 -14 -13 -13 -13 -14 -15 -18 -21 -24 -20 -18 -18 -20 -20 -22 -22 -21 -21 -22 -23 -24 -25 -25 -27 -28 -28 -28 -29 -30 -31 -32 -32 -32 -32 -31 -31 -31 -30 -30 -29 -28
-14 -15 -15 -14 -14 -13 -14 -15 -16 -17 -18 -19 -19 -20 -21 -21 -21 -22 -23 -23 -23 -24 -25 -25 -26 -28 -29 -29 -30 -31 -31 -32 -32 -32 -31 -31 -31 -30 -29 -29 -29 -28 -28
-15 -15 -14 -14 -14 -14 -14 -14 -15 -15 -16 -17 -17 -18 -18 -19 -20 -21 -23 -24 -26 -27 -28 -29 -30 -31 -31 -31 -31 -31 -31 -31 -30 -30 -30 -29 -29 -29 -28 -28 -28 -27 -27
-16 -15 -15 -15 -15 -14 -14 -15 -15 -15 -16 -16 -17 -17 -18 -19 -20 -21 -23 -24 -26 -27 -29 -30 -31 -30 -30 -30 -30 -30 -30 -30 -30 -29 -29 -29 -28 -28 -28 -28 -28 -28 -28
-18 -18 -16 -15 -15 -15 -16 -16 -16 -16 -17 -17 -17 -18 -18 -18 -19 -19 -20 -22 -24 -25 -26 -27 -29 -29 -29 -29 -29 -29 -29 -29 -29 -29 -28 -28 -28 -28 -28 -28 -27 -27 -27
-21 -19 -17 -17 -17 -17 -17 -17 -17 -17 -18 -18 -18 -18 -19 -19 -19 -19 -20 -21 -22 -24 -26 -27 -29 -29 -29 -29 -29 -29 -29 -29 -29 -28 -28 -28 -28 -28 -27 -26 -26 -26 -26

GFSGL_850_dewp_096.txt.gz
Dewpoint
12 9 10 11 10 9 8 9 8 7 6 8 9 8 9 9 9 9 9 9 9 9 10 10 10 10 9 9 9 7 6 5 5 3 7 7 6 6 6 6 7 8 8
11 10 8 6 8 6 10 10 9 7 8 8 8 8 8 9 10 9 9 9 9 9 9 9 10 9 9 9 8 7 6 6 6 7 8 7 7 7 8 8 7 7 7
9 10 10 8 8 8 11 8 8 8 9 9 9 9 9 9 9 9 9 9 9 9 8 9 9 9 9 8 8 7 6 7 7 8 7 7 7 7 7 6 6 6 6
8 9 9 10 9 11 10 9 9 9 9 9 9 9 9 9 7 9 9 9 9 9 9 9 9 9 9 8 8 8 7 8 8 8 7 6 7 8 7 6 7 6 6
6 8 9 9 9 10 10 9 9 9 8 8 7 7 7 6 7 8 8 8 9 9 9 9 9 9 9 9 8 7 8 8 8 7 7 7 7 6 6 6 7 7 7
4 5 6 8 8 8 10 9 9 10 9 8 8 7 6 6 8 8 8 9 9 8 9 9 9 9 9 9 8 8 8 8 8 7 7 7 7 7 7 7 7 6 6
3 3 3 5 6 6 7 9 10 9 9 8 7 6 6 6 6 8 8 8 8 9 9 9 8 8 9 8 8 8 8 8 8 8 8 8 7 7 7 7 7 6 6
1 2 3 3 3 5 1 6 8 8 8 8 7 6 6 5 7 8 8 8 8 8 8 8 8 8 8 8 8 8 8 8 7 7 8 7 7 7 7 7 6 6 5
-1 -0 0 2 2 1 2 1 2 5 6 7 6 6 6 6 7 8 7 7 7 7 7 7 7 7 7 7 7 7 7 7 7 7 7 7 7 6 6 5 4 3 3
-3 -2 -1 -1 0 2 0 0 0 1 1 2 3 4 3 5 6 6 5 6 6 6 5 5 4 4 4 5 5 5 6 5 3 5 3 3 3 3 2 2 1 1 0
-4 -3 -2 -2 -2 -2 -1 -0 -1 0 0 -0 0 -0 0 1 1 1 2 3 4 3 2 1 1 0 1 1 2 2 3 2 1 2 1 0 -1 -2 -3 -5 -6 -6 -7
-4 -4 -3 -3 -3 -3 -2 -3 -2 -1 -2 -2 -2 -1 -1 -1 -1 -1 -0 0 0 1 0 -1 -1 -1 -1 -1 0 -0 -0 -1 -1 -2 -4 -5 -7 -8 -9 -10 -10 -10 -11
-5 -4 -4 -4 -4 -4 -4 -3 -3 -3 -3 -4 -4 -4 -4 -4 -4 -3 -2 -2 -2 -1 -2 -3 -3 -2 -3 -3 -3 -3 -3 -5 -6 -7 -8 -9 -10 -11 -13 -14 -15 -17 -21
-5 -5 -5 -5 -5 -5 -5 -5 -5 -5 -5 -5 -5 -5 -5 -5 -5 -4 -4 -4 -4 -4 -4 -4 -4 -4 -4 -5 -5 -6 -6 -7 -8 -11 -12 -14 -16 -20 -24 -28 -33 -33 -33
-6 -6 -6 -6 -6 -6 -6 -6 -6 -6 -6 -6 -6 -6 -6 -6 -6 -6 -6 -5 -6 -5 -5 -5 -5 -5 -5 -6 -6 -7 -8 -15 -19 -23 -27 -29 -30 -29 -29 -29 -32 -33 -32
-8 -8 -9 -7 -7 -7 -7 -7 -7 -7 -7 -7 -7 -7 -7 -7 -7 -6 -6 -7 -7 -7 -6 -6 -7 -9 -12 -14 -19 -23 -26 -28 -29 -28 -30 -30 -30 -31 -33 -32 -32 -31 -31
-8 -9 -8 -9 -9 -8 -8 -8 -8 -8 -7 -7 -8 -8 -7 -8 -9 -10 -15 -19 -21 -19 -22 -24 -26 -26 -26 -26 -26 -27 -29 -29 -30 -31 -31 -31 -30 -31 -30 -30 -30 -31 -31
-12 -12 -12 -11 -12 -15 -17 -13 -10 -10 -9 -10 -9 -10 -10 -10 -12 -16 -21 -20 -22 -23 -25 -25 -26 -25 -26 -26 -27 -28 -29 -30 -30 -31 -30 -30 -30 -30 -30 -30 -31 -31 -31
-15 -15 -14 -14 -15 -15 -16 -17 -19 -20 -19 -19 -19 -15 -14 -15 -17 -19 -19 -20 -22 -23 -24 -24 -24 -25 -25 -27 -27 -28 -29 -29 -30 -31 -31 -31 -32 -31 -31 -31 -30 -31 -30
-16 -15 -15 -15 -15 -15 -16 -17 -18 -19 -19 -19 -19 -20 -21 -19 -19 -21 -21 -21 -22 -23 -23 -24 -24 -25 -25 -26 -28 -29 -30 -31 -31 -32 -32 -33 -32 -32 -30 -30 -29 -29 -28
-16 -16 -16 -15 -15 -15 -16 -17 -19 -22 -22 -20 -20 -21 -24 -22 -22 -21 -21 -21 -22 -23 -23 -24 -25 -26 -27 -28 -28 -29 -31 -32 -32 -32 -32 -31 -31 -30 -30 -30 -30 -29 -29
-16 -17 -16 -15 -14 -14 -15 -16 -16 -17 -18 -18 -19 -20 -20 -21 -21 -22 -23 -23 -23 -24 -24 -25 -26 -27 -28 -29 -30 -31 -31 -32 -32 -31 -31 -31 -30 -30 -30 -30 -30 -30 -29
-16 -16 -16 -15 -14 -14 -14 -15 -15 -15 -16 -16 -17 -18 -19 -20 -21 -22 -23 -25 -26 -28 -28 -29 -30 -30 -30 -31 -31 -31 -31 -31 -31 -31 -30 -30 -30 -29 -29 -29 -29 -29 -28
-19 -18 -18 -16 -15 -15 -15 -15 -15 -16 -16 -17 -17 -17 -18 -19 -20 -21 -22 -24 -26 -27 -28 -29 -30 -30 -30 -30 -31 -31 -30 -30 -30 -30 -30 -29 -29 -29 -29 -28 -28 -28 -28
-20 -21 -22 -18 -16 -16 -16 -17 -17 -17 -17 -17 -18 -18 -18 -19 -19 -20 -21 -21 -23 -25 -27 -28 -28 -29 -29 -30 -30 -30 -30 -30 -30 -29 -29 -29 -29 -28 -28 -28 -27 -27 -27
-22 -22 -20 -19 -18 -17 -18 -18 -18 -18 -18 -18 -19 -19 -19 -19 -19 -20 -20 -20 -21 -23 -25 -26 -27 -28 -28 -29 -29 -29 -30 -30 -30 -30 -29 -29 -28 -28 -28 -27 -27 -27 -27

GFSGL_850_dewp_099.txt.gz
Dewpoint
10 11 11 11 11 11 12 12 11 7 5 9 11 12 11 8 9 9 9 9 10 9 9 9 9 10 10 10 10 10 9 8 7 7 6 5 5 5 6 6 7 7 7
10 10 10 11 11 11 11 10 9 5 5 10 9 8 8 8 8 9 9 9 9 9 9 9 9 9 10 9 10 9 9 8 7 7 5 5 6 6 6 6 7 7 7
9 10 10 10 10 10 8 8 8 8 7 9 9 9 8 8 8 9 10 9 9 9 9 9 9 9 9 9 9 9 9 8 7 6 6 6 7 7 7 7 7 8 8
6 8 9 10 10 10 10 9 9 8 8 10 8 8 8 8 9 9 9 9 9 9 9 9 8 8 8 9 9 9 8 8 7 6 7 6 7 8 8 7 8 7 7
4 6 7 8 8 9 10 10 10 8 9 9 8 9 9 9 9 9 9 9 9 9 9 9 9 9 9 9 9 8 8 7 7 7 8 8 8 7 7 7 7 7 6
2 3 4 6 7 8 9 8 9 10 10 8 9 9 8 8 7 8 8 8 9 9 8 8 9 8 9 9 8 8 8 7 7 7 8 8 7 6 6 7 7 7 6
0 1 2 2 3 4 6 8 8 7 9 9 9 8 7 6 6 8 8 8 8 8 9 8 8 8 8 8 8 8 8 8 8 8 8 8 7 7 7 7 7 7 7
-1 -1 -0 1 1 2 3 2 3 3 6 8 8 7 6 5 6 8 8 8 8 8 8 8 8 8 8 8 8 8 8 8 8 8 8 8 7 7 7 7 7 6 6
-2 -2 -1 -1 -0 1 2 2 1 0 0 5 6 6 6 6 7 7 6 7 7 7 7 7 7 7 7 7 8 8 7 8 8 7 7 8 7 7 7 6 6 5 4
-4 -3 -2 -1 -1 -1 -0 0 0 1 0 0 2 3 4 4 4 3 5 6 6 6 6 5 6 6 6 6 6 6 6 6 6 6 7 6 6 5 5 5 4 3 3
-4 -4 -3 -3 -2 -2 -1 -1 -1 -0 0 0 0 0 0 1 0 1 2 3 4 4 3 2 2 2 3 2 3 3 3 2 2 2 2 2 2 2 2 1 1 1 1
-5 -4 -4 -4 -4 -3 -3 -2 -2 -2 -2 -2 -2 -2 -1 -2 -1 -1 -1 0 -0 1 0 -1 -1 -0 -0 0 1 0 -0 -1 -1 -0 -1 -1 -1 -2 -2 -1 -2 -5 -6
-5 -5 -5 -5 -5 -4 -4 -4 -4 -4 -4 -4 -3 -4 -5 -4 -4 -4 -3 -2 -2 -2 -3 -3 -2 -2 -2 -2 -2 -2 -3 -4 -4 -5 -7 -9 -10 -11 -13 -12 -13 -15 -16
-6 -6 -6 -6 -6 -6 -6 -5 -6 -5 -5 -5 -5 -5 -6 -5 -5 -5 -4 -4 -4 -4 -5 -4 -4 -4 -3 -3 -4 -5 -5 -5 -6 -7 -9 -11 -13 -16 -19 -24 -28 -30 -33
-8 -7 -7 -7 -6 -6 -7 -7 -7 -7 -6 -6 -6 -6 -6 -6 -6 -6 -5 -5 -5 -5 -5 -5 -5 -5 -5 -6 -6 -6 -6 -10 -14 -15 -17 -19 -23 -27 -30 -30 -31 -32 -34
-9 -9 -9 -8 -8 -8 -7 -7 -7 -8 -7 -7 -7 -7 -7 -7 -7 -8 -9 -9 -7 -6 -6 -6 -6 -6 -6 -7 -8 -10 -18 -22 -25 -27 -28 -28 -29 -30 -31 -32 -33 -33 -34
-13 -13 -12 -14 -14 -9 -8 -8 -9 -9 -8 -8 -9 -9 -9 -10 -11 -16 -20 -20 -19 -16 -15 -17 -19 -21 -23 -25 -27 -28 -29 -28 -28 -29 -30 -31 -31 -32 -32 -34 -35 -35 -35
-17 -16 -17 -16 -16 -17 -19 -18 -15 -12 -12 -11 -12 -11 -11 -12 -17 -21 -23 -22 -24 -24 -26 -26 -26 -25 -26 -27 -28 -29 -30 -30 -30 -31 -31 -32 -32 -33 -33 -33 -33 -33 -33
-18 -17 -16 -16 -16 -17 -17 -18 -19 -20 -21 -22 -22 -19 -19 -20 -23 -25 -22 -22 -24 -25 -26 -26 -26 -26 -27 -28 -29 -29 -30 -31 -32 -32 -33 -32 -33 -32 -32 -32 -32 -33 -33
-19 -18 -16 -16 -16 -17 -18 -19 -21 -20 -20 -20 -20 -22 -22 -20 -21 -22 -22 -23 -24 -24 -24 -25 -25 -26 -27 -28 -30 -30 -31 -31 -32 -32 -32 -32 -32 -32 -31 -31 -31 -31 -31
-18 -18 -17 -15 -16 -16 -17 -18 -18 -19 -19 -19 -20 -23 -26 -22 -22 -22 -21 -21 -22 -22 -23 -24 -25 -26 -27 -28 -29 -30 -31 -32 -32 -32 -32 -32 -32 -31 -31 -31 -31 -30 -30
-18 -18 -18 -17 -16 -15 -15 -16 -16 -16 -17 -18 -18 -19 -20 -21 -22 -22 -23 -23 -23 -23 -24 -25 -26 -27 -29 -30 -30 -31 -32 -32 -32 -32 -32 -31 -31 -31 -31 -30 -30 -29 -29
-20 -20 -19 -18 -16 -15 -15 -15 -15 -16 -16 -17 -17 -18 -19 -20 -21 -22 -23 -24 -25 -26 -26 -27 -28 -29 -29 -30 -31 -31 -31 -31 -31 -31 -31 -31 -30 -30 -30 -30 -29 -29 -29
-23 -22 -22 -21 -18 -16 -16 -16 -16 -16 -17 -17 -17 -18 -18 -19 -20 -21 -22 -23 -25 -26 -26 -27 -28 -29 -30 -30 -30 -30 -30 -31 -31 -30 -30 -30 -30 -29 -29 -29 -29 -29 -29
-25 -25 -24 -22 -19 -18 -17 -17 -17 -17 -17 -18 -18 -18 -19 -19 -19 -20 -20 -21 -22 -24 -25 -27 -28 -28 -29 -29 -29 -30 -30 -30 -30 -30 -30 -29 -29 -29 -29 -28 -28 -28 -28
-22 -22 -22 -21 -20 -19 -19 -18 -18 -18 -18 -19 -19 -19 -19 -19 -19 -20 -20 -20 -21 -22 -24 -25 -26 -27 -27 -28 -29 -29 -30 -30 -30 -30 -30 -29 -29 -29 -28 -28 -28 -28 -27

GFSGL_850_dewp_102.txt.gz
Dewpoint
7 9 10 10 10 11 11 11 11 11 11 10 7 9 10 11 11 10 11 11 8 9 10 9 9 9 9 9 9 10 9 9 9 9 9 9 8 7 7 7 6 6 7
5 7 9 10 10 11 11 11 11 11 11 10 8 6 6 10 11 11 11 10 8 10 10 10 10 9 9 9 10 10 9 9 10 9 8 8 7 6 7 7 7 8 7
4 6 8 9 10 10 10 10 11 10 10 8 6 4 4 10 10 9 9 9 10 10 9 9 9 9 10 9 9 9 9 9 9 9 8 8 7 7 6 7 8 7 7
1 4 6 8 9 10 10 10 10 9 6 7 6 4 7 8 9 10 9 9 9 9 9 9 9 9 9 9 9 9 9 9 9 8 8 7 7 6 7 7 8 8 7
1 4 5 6 8 7 9 10 10 10 10 9 8 9 8 8 9 8 9 9 9 9 9 9 9 8 9 8 9 8 9 9 8 8 8 7 6 7 8 8 8 8 8
-0 -0 1 3 5 6 7 9 9 9 9 10 10 8 8 8 8 9 9 9 8 8 9 9 9 8 8 9 8 9 9 8 8 8 7 7 7 7 8 8 8 7 6
-1 -1 0 1 1 3 4 5 4 7 7 8 9 9 8 8 9 9 8 8 8 8 9 9 9 8 8 8 9 8 8 8 8 8 7 7 7 6 6 7 8 8 7
-2 -2 -1 -0 1 1 1 2 2 2 4 4 6 8 9 8 7 8 8 8 8 8 8 8 8 8 8 8 8 8 8 8 8 8 7 7 7 7 8 7 7 7 7
-3 -3 -3 -2 -1 -1 0 0 1 1 1 1 2 2 7 6 7 7 8 7 7 7 7 8 8 8 8 7 7 8 8 8 7 8 7 7 8 7 8 7 7 7 5
-4 -4 -4 -3 -2 -2 -2 -2 -1 0 1 0 0 -2 2 3 4 6 5 6 6 5 5 6 6 6 6 6 5 6 7 7 7 6 7 7 7 8 7 7 6 6 6
-5 -4 -4 -4 -4 -4 -3 -3 -3 -2 -1 -0 -0 -1 -1 0 0 1 2 3 3 2 2 3 3 3 4 4 4 5 5 5 5 5 5 6 6 4 4 3 3 2 3
-5 -5 -5 -5 -4 -4 -4 -4 -4 -4 -3 -3 -3 -3 -3 -3 -3 -1 -0 0 -0 0 -1 -1 -0 0 1 2 2 2 2 1 1 1 1 1 1 1 1 0 0 0 0
-6 -6 -6 -6 -5 -5 -5 -5 -5 -5 -5 -5 -5 -5 -5 -4 -4 -4 -3 -3 -2 -2 -2 -2 -2 -2 -1 -1 -1 -2 -1 -1 -1 -1 -2 -3 -3 -3 -2 -2 -2 -2 -2
-7 -7 -7 -6 -6 -6 -6 -6 -6 -6 -6 -6 -6 -6 -6 -6 -5 -5 -4 -4 -4 -4 -5 -5 -5 -3 -3 -3 -4 -4 -4 -4 -4 -4 -5 -5 -6 -7 -7 -6 -6 -8 -12
-9 -8 -8 -8 -9 -8 -7 -7 -7 -7 -6 -6 -7 -6 -6 -7 -7 -6 -6 -5 -5 -5 -5 -5 -5 -5 -5 -6 -6 -6 -6 -6 -6 -6 -7 -8 -13 -18 -24 -29 -32 -33 -35
-10 -11 -11 -9 -9 -9 -9 -9 -9 -8 -8 -7 -7 -8 -8 -9 -10 -11 -8 -6 -6 -6 -6 -6 -6 -6 -7 -7 -7 -7 -7 -7 -7 -7 -7 -7 -8 -8 -8 -10 -14 -23 -29
-16 -11 -11 -12 -10 -10 -10 -10 -10 -10 -11 -11 -11 -11 -12 -15 -19 -23 -23 -18 -11 -8 -8 -8 -8 -8 -8 -8 -9 -10 -11 -13 -15 -18 -25 -28 -30 -31 -31 -33 -33 -34 -35
-14 -16 -11 -12 -12 -11 -11 -11 -12 -13 -14 -19 -20 -18 -19 -22 -25 -24 -24 -23 -23 -24 -23 -19 -21 -23 -22 -21 -22 -23 -24 -25 -26 -27 -28 -29 -29 -29 -29 -29 -26 -27 -29
-24 -20 -12 -12 -13 -14 -12 -12 -12 -12 -12 -13 -13 -16 -22 -22 -22 -21 -21 -22 -23 -24 -25 -25 -25 -25 -25 -27 -28 -29 -29 -29 -30 -30 -30 -30 -28 -28 -29 -31 -32 -32 -27
-12 -21 -16 -12 -12 -12 -12 -12 -12 -12 -13 -13 -14 -17 -14 -14 -15 -20 -20 -17 -17 -18 -21 -22 -24 -26 -27 -28 -29 -29 -30 -30 -30 -31 -31 -30 -28 -27 -29 -28 -25 -24 -22
-12 -12 -13 -12 -12 -13 -12 -13 -13 -13 -13 -14 -15 -20 -22 -15 -15 -15 -15 -16 -15 -16 -17 -19 -22 -25 -26 -27 -29 -30 -30 -31 -31 -31 -32 -32 -31 -28 -26 -23 -25 -25 -24
-13 -13 -13 -13 -13 -13 -13 -13 -14 -14 -14 -15 -15 -16 -20 -16 -16 -16 -17 -20 -20 -19 -18 -19 -21 -25 -27 -29 -29 -31 -31 -32 -32 -32 -32 -32 -30 -30 -27 -26 -27 -25 -25
-15 -15 -14 -14 -14 -15 -14 -14 -15 -15 -15 -15 -16 -16 -17 -17 -17 -18 -18 -21 -22 -24 -24 -23 -25 -26 -28 -29 -30 -31 -31 -32 -32 -32 -31 -30 -27 -26 -21 -20 -26 -20 -20
-16 -16 -16 -16 -16 -16 -16 -15 -15 -16 -16 -16 -16 -17 -17 -18 -18 -19 -20 -22 -24 -25 -26 -26 -27 -28 -29 -30 -30 -30 -31 -31 -31 -31 -31 -30 -29 -29 -23 -24 -25 -29 -28
-17 -17 -17 -17 -17 -17 -17 -17 -16 -17 -17 -17 -17 -17 -18 -18 -19 -19 -20 -20 -22 -22 -24 -26 -27 -28 -28 -29 -29 -30 -30 -30 -30 -30 -30 -30 -29 -29 -29 -27 -24 -24 -28
-18 -18 -18 -18 -18 -18 -18 -18 -18 -18 -18 -18 -18 -18 -18 -19 -19 -19 -20 -21 -20 -21 -22 -22 -25 -26 -26 -27 -28 -28 -29 -30 -30 -30 -29 -29 -29 -28 -28 -28 -28 -21 -24

GFSGL_850_dewp_105.txt.gz
Dewpoint
4 6 8 9 10 11 11 11 11 11 11 11 12 12 11 11 10 6 4 8 11 12 11 8 7 10 10 10 10 10 10 10 10 10 9 9 9 9 9 8 5 4 5
2 5 6 7 9 10 10 11 11 11 10 11 11 11 11 11 8 6 7 6 9 11 10 8 10 11 10 10 10 9 9 9 10 10 9 8 9 9 9 7 6 6 6
2 3 5 6 7 9 10 11 11 10 11 11 11 11 10 8 7 6 5 6 9 10 10 9 9 10 9 10 10 10 9 10 10 10 9 9 9 9 8 8 8 8 7
1 1 4 4 4 7 8 9 11 11 11 10 11 11 10 10 9 7 9 10 10 9 9 10 10 9 9 9 9 9 9 9 9 9 9 9 9 9 8 7 8 8 8
0 0 1 0 2 4 6 7 9 10 9 10 10 10 10 10 9 5 6 8 9 10 10 10 10 10 10 9 9 9 9 9 9 9 9 9 8 8 7 7 8 8 8
-1 -1 -1 0 2 3 4 5 7 7 9 9 9 9 10 10 9 6 7 10 10 9 9 8 9 9 9 9 9 9 9 9 9 8 8 8 8 8 6 7 7 7 7
-2 -2 -2 -1 0 1 1 2 5 4 6 8 8 9 9 9 10 10 9 9 9 9 9 9 8 8 9 9 8 8 9 9 8 8 8 8 8 8 8 7 7 7 6
-3 -3 -3 -2 -2 -1 -1 -0 0 1 1 2 3 4 5 9 9 9 9 9 9 8 8 8 8 8 8 8 8 7 8 8 8 8 8 8 8 8 7 7 6 7 6
-4 -4 -4 -4 -3 -2 -2 -1 -1 -0 0 -0 0 0 -1 4 5 7 8 8 8 8 7 7 8 8 8 8 8 8 8 8 8 7 7 7 7 7 7 7 7 7 5
-5 -5 -5 -5 -4 -4 -4 -3 -3 -2 -3 -2 -1 -0 -1 0 -0 1 6 7 7 6 6 6 7 6 6 6 6 7 7 7 7 7 7 7 7 7 7 7 7 7 7
-5 -5 -5 -5 -5 -5 -5 -4 -4 -4 -3 -3 -3 -2 -2 -1 -1 -0 0 2 3 3 3 3 3 3 4 4 4 4 5 5 5 5 6 7 7 7 6 6 6 6 6
-6 -6 -6 -5 -5 -5 -5 -5 -5 -5 -5 -5 -5 -5 -5 -3 -3 -3 -2 -1 -1 -0 -0 -1 -1 0 2 2 2 3 3 3 3 3 4 3 3 3 3 3 3 3 2
-7 -7 -6 -7 -6 -6 -6 -5 -5 -6 -5 -5 -5 -5 -6 -6 -6 -4 -4 -3 -3 -3 -4 -3 -2 -2 -2 -1 -1 -2 -1 -0 0 0 0 -1 -1 -1 -1 -1 -1 -0 -0
-7 -7 -7 -8 -7 -8 -7 -7 -7 -6 -6 -6 -6 -6 -6 -6 -6 -5 -5 -5 -5 -5 -7 -6 -4 -4 -3 -4 -4 -4 -4 -3 -3 -3 -3 -4 -4 -4 -4 -4 -4 -4 -3
-10 -9 -8 -8 -8 -8 -8 -9 -9 -9 -8 -8 -8 -9 -8 -7 -7 -6 -6 -5 -5 -6 -6 -6 -6 -6 -6 -6 -6 -6 -6 -6 -6 -6 -6 -6 -6 -5 -5 -6 -6 -7 -5
-10 -10 -9 -9 -9 -9 -9 -9 -11 -12 -13 -12 -11 -13 -15 -17 -19 -16 -9 -6 -6 -6 -6 -6 -7 -7 -7 -8 -8 -8 -8 -8 -8 -8 -8 -8 -10 -12 -14 -16 -15 -16 -18
-10 -9 -10 -10 -9 -9 -9 -9 -9 -10 -11 -20 -20 -21 -22 -25 -25 -24 -23 -18 -12 -9 -8 -7 -8 -8 -9 -9 -9 -9 -9 -9 -9 -9 -9 -9 -9 -8 -9 -10 -12 -14 -17
-11 -11 -10 -10 -11 -10 -10 -10 -10 -10 -10 -11 -14 -20 -23 -24 -24 -21 -21 -19 -21 -21 -18 -16 -17 -17 -15 -14 -13 -12 -11 -12 -12 -12 -13 -16 -19 -20 -22 -22 -23 -25 -25
-11 -12 -11 -11 -11 -11 -10 -10 -11 -11 -11 -11 -12 -13 -13 -13 -15 -18 -15 -13 -12 -14 -13 -13 -14 -15 -15 -16 -20 -20 -17 -15 -14 -14 -13 -13 -15 -16 -19 -20 -21 -21 -20
-10 -11 -11 -11 -11 -11 -11 -11 -11 -11 -12 -12 -13 -20 -20 -12 -12 -13 -13 -13 -13 -13 -14 -14 -14 -15 -15 -15 -14 -15 -14 -16 -15 -14 -14 -13 -13 -14 -15 -16 -17 -16 -16
-12 -12 -12 -12 -12 -12 -12 -12 -12 -12 -13 -13 -13 -16 -20 -14 -14 -14 -14 -15 -15 -15 -15 -15 -15 -15 -16 -16 -15 -17 -16 -16 -17 -18 -18 -17 -16 -14 -14 -14 -15 -17 -18
-13 -13 -13 -13 -13 -13 -13 -13 -13 -13 -13 -14 -14 -14 -15 -15 -15 -15 -16 -17 -17 -17 -17 -16 -16 -17 -17 -17 -17 -19 -21 -19 -18 -17 -21 -21 -18 -18 -16 -16 -16 -20 -22
-14 -14 -14 -15 -14 -14 -13 -13 -13 -14 -14 -14 -14 -15 -15 -16 -16 -17 -17 -18 -18 -19 -19 -18 -18 -18 -21 -25 -25 -21 -19 -26 -27 -22 -18 -18 -16 -16 -16 -16 -16 -16 -17
-15 -14 -15 -14 -15 -15 -15 -15 -14 -14 -15 -15 -15 -15 -16 -16 -17 -17 -18 -19 -19 -19 -20 -20 -23 -25 -24 -22 -22 -28 -31 -31 -31 -30 -25 -18 -18 -17 -17 -17 -18 -19 -24
-15 -15 -15 -16 -16 -16 -16 -16 -16 -16 -16 -16 -16 -16 -16 -17 -17 -17 -18 -19 -20 -20 -20 -20 -21 -22 -27 -27 -28 -29 -30 -30 -30 -30 -30 -25 -21 -20 -19 -18 -18 -19 -20
-16 -16 -16 -16 -16 -16 -17 -17 -17 -17 -17 -17 -17 -17 -17 -17 -17 -18 -18 -19 -20 -20 -20 -20 -21 -23 -25 -23 -27 -28 -28 -29 -29 -29 -29 -27 -24 -20 -23 -20 -25 -19 -20

GFSGL_850_dewp_108.txt.gz
Dewpoint
1 1 3 4 6 7 8 10 11 11 10 10 11 11 12 11 11 11 11 12 11 10 10 9 9 11 11 10 10 10 10 10 10 9 9 9 9 9 9 9 9 9 9
0 1 2 3 5 6 8 9 9 9 8 10 11 10 12 12 11 11 11 11 10 9 7 10 7 11 11 10 10 10 10 10 10 9 10 10 9 8 9 9 9 9 8
-0 0 1 2 3 5 7 8 9 9 7 9 9 9 9 9 11 11 11 9 8 5 5 7 10 10 10 9 10 11 10 10 9 9 9 10 10 9 9 9 9 9 8
-1 -1 -0 1 2 3 4 6 6 8 9 10 11 10 7 10 11 11 11 7 6 7 6 7 7 10 9 9 10 10 9 10 10 9 10 9 10 10 9 9 9 8 7
-2 -2 -2 -0 1 2 2 3 5 6 7 8 10 10 10 10 10 10 10 9 7 6 6 6 10 9 9 10 10 10 9 9 9 9 9 9 9 9 9 9 8 8 7
-3 -3 -2 -1 -0 0 0 1 2 4 6 4 7 10 9 10 10 10 9 9 10 7 6 8 9 9 9 10 10 9 9 9 9 9 9 9 9 9 9 9 8 8 7
-4 -4 -3 -3 -2 -2 -1 -0 0 1 2 4 4 6 8 8 10 10 10 10 10 10 9 9 9 9 9 9 8 8 9 9 9 9 9 9 9 8 8 8 8 8 7
-5 -5 -4 -4 -4 -3 -2 -2 -2 -2 -0 0 1 1 2 3 7 8 9 10 9 9 9 9 9 9 8 8 8 9 9 8 8 8 8 8 8 8 8 8 8 8 7
-5 -5 -5 -5 -5 -5 -4 -4 -4 -3 -3 -2 -1 -0 1 0 1 2 5 7 8 8 8 8 8 8 8 8 8 8 8 7 7 8 8 8 8 8 8 8 7 7 6
-5 -5 -5 -5 -5 -5 -5 -5 -5 -5 -4 -3 -3 -3 -2 -1 -0 -1 0 1 4 4 5 6 7 7 7 7 8 7 7 6 6 7 7 7 7 7 7 7 8 7 7
-6 -6 -6 -5 -5 -5 -5 -5 -5 -5 -5 -4 -4 -3 -4 -4 -3 -2 -1 -0 -1 -0 -0 2 4 4 5 4 5 5 5 5 5 5 6 6 7 7 7 6 7 7 7
-7 -7 -7 -7 -7 -6 -6 -6 -6 -5 -5 -5 -5 -5 -5 -4 -5 -4 -4 -3 -2 -2 -3 -3 -1 -1 0 0 1 2 2 3 2 3 3 4 4 4 5 6 5 4 5
-7 -8 -8 -8 -8 -9 -8 -8 -8 -7 -7 -7 -6 -6 -6 -6 -6 -5 -5 -4 -4 -5 -5 -5 -4 -3 -3 -2 -3 -3 -2 -1 -0 -0 0 0 -0 0 1 1 1 2 2
-10 -8 -8 -9 -9 -10 -12 -13 -14 -13 -12 -13 -13 -13 -9 -7 -7 -7 -6 -6 -6 -6 -6 -6 -5 -4 -4 -5 -4 -4 -4 -3 -2 -2 -3 -4 -4 -4 -2 -2 -1 -1 -1
-9 -11 -9 -9 -9 -9 -9 -9 -11 -12 -19 -18 -17 -19 -21 -20 -11 -7 -7 -7 -6 -6 -6 -6 -6 -6 -6 -6 -6 -6 -6 -7 -6 -6 -6 -6 -5 -6 -5 -5 -5 -5 -5
-10 -9 -11 -10 -10 -10 -10 -9 -10 -10 -11 -17 -22 -24 -21 -21 -21 -21 -16 -10 -8 -7 -6 -7 -7 -7 -7 -8 -8 -8 -8 -8 -8 -8 -7 -7 -7 -6 -6 -6 -6 -6 -6
-11 -10 -10 -11 -10 -10 -10 -11 -11 -10 -10 -12 -15 -17 -19 -23 -21 -19 -19 -21 -22 -16 -12 -9 -9 -9 -9 -9 -9 -9 -9 -9 -9 -9 -9 -9 -9 -9 -8 -8 -8 -8 -9
-15 -11 -11 -12 -12 -12 -12 -12 -12 -12 -12 -12 -15 -16 -12 -12 -14 -19 -15 -18 -21 -19 -18 -17 -16 -16 -14 -12 -11 -11 -11 -10 -10 -10 -10 -11 -11 -11 -11 -10 -11 -11 -11
-11 -13 -10 -11 -12 -11 -12 -12 -12 -13 -13 -13 -15 -22 -14 -12 -13 -13 -14 -14 -13 -14 -15 -16 -16 -16 -15 -16 -18 -15 -14 -14 -13 -14 -13 -12 -12 -12 -14 -19 -18 -18 -20
-12 -12 -12 -12 -12 -13 -13 -12 -13 -13 -13 -13 -14 -16 -19 -14 -14 -14 -15 -14 -14 -14 -14 -14 -15 -15 -15 -15 -14 -14 -14 -15 -14 -14 -13 -13 -14 -18 -23 -22 -19 -18 -18
-13 -14 -14 -13 -13 -13 -14 -12 -13 -13 -13 -15 -13 -14 -17 -16 -15 -15 -15 -16 -16 -16 -15 -15 -15 -15 -16 -16 -16 -17 -16 -16 -17 -16 -16 -14 -13 -14 -15 -16 -16 -18 -20
-14 -14 -14 -14 -14 -15 -14 -14 -14 -15 -15 -14 -15 -15 -15 -17 -17 -17 -17 -17 -17 -17 -17 -17 -17 -17 -18 -17 -17 -17 -17 -17 -17 -18 -18 -17 -16 -16 -16 -16 -19 -19 -19
-15 -15 -15 -15 -16 -16 -15 -16 -15 -15 -15 -15 -15 -16 -16 -17 -17 -17 -18 -18 -18 -19 -19 -20 -19 -19 -20 -20 -21 -19 -20 -21 -18 -19 -18 -16 -16 -16 -17 -16 -16 -17 -19
-16 -16 -16 -16 -16 -16 -17 -17 -17 -16 -16 -17 -16 -15 -16 -17 -17 -17 -17 -18 -20 -19 -19 -20 -22 -22 -24 -22 -24 -25 -26 -28 -29 -22 -19 -17 -17 -16 -16 -17 -18 -17 -19
-16 -16 -17 -17 -17 -17 -17 -18 -18 -18 -18 -17 -17 -18 -18 -18 -18 -19 -17 -18 -19 -20 -20 -20 -20 -21 -23 -25 -26 -27 -28 -29 -29 -28 -22 -21 -20 -18 -18 -18 -19 -22 -24
-17 -17 -17 -17 -17 -17 -18 -18 -19 -18 -19 -18 -20 -18 -19 -18 -19 -18 -18 -18 -19 -19 -21 -20 -20 -21 -22 -23 -23 -25 -27 -28 -28 -28 -27 -26 -22 -22 -20 -21 -19 -19 -22

GFSGL_850_dewp_111.txt.gz
Dewpoint
-0 1 1 2 3 3 4 5 6 7 8 10 10 10 8 8 8 9 9 10 10 10 10 7 7 5 6 7 5 9 9 10 10 9 10 9 9 8 9 9 9 9 9
-1 -0 0 1 1 2 3 4 6 7 8 9 10 9 9 8 8 9 8 10 9 11 10 9 8 8 9 8 8 9 8 9 10 10 10 9 9 9 8 8 9 9 9
-2 -1 -1 -0 0 1 2 3 4 5 7 8 9 7 7 8 9 10 11 11 11 10 10 9 5 9 7 8 8 9 8 9 10 10 10 10 9 10 10 9 9 9 8
-2 -2 -2 -1 -1 -1 1 1 3 4 5 7 8 9 7 9 10 10 10 10 11 11 9 8 6 6 5 9 9 8 8 9 9 9 9 10 9 9 10 9 9 9 9
-3 -3 -3 -3 -3 -1 -1 0 1 2 3 4 5 6 8 9 8 7 9 10 10 10 10 7 7 7 5 9 10 9 9 8 9 9 10 9 9 9 9 9 9 9 9
-4 -4 -4 -4 -4 -3 -2 -2 -0 0 0 1 2 5 6 7 9 8 7 10 10 10 8 8 9 10 8 9 8 9 9 9 9 9 9 9 9 9 9 9 9 9 8
-4 -4 -5 -4 -4 -4 -4 -3 -3 -2 -2 -0 -0 1 3 5 7 7 9 10 10 9 9 9 8 10 9 9 9 9 9 8 9 8 9 9 8 9 9 9 8 8 9
-5 -5 -5 -4 -4 -4 -4 -4 -4 -4 -4 -2 -2 -1 0 1 2 6 4 8 7 8 8 8 8 9 9 9 9 9 8 8 8 8 8 8 9 8 8 8 9 8 8
-6 -5 -5 -4 -4 -4 -5 -5 -5 -5 -4 -4 -4 -3 -2 -2 -0 1 1 2 -1 4 4 7 8 8 8 8 8 8 8 8 8 8 8 8 8 8 8 8 8 7 6
-7 -7 -6 -6 -6 -5 -5 -5 -5 -5 -5 -5 -5 -5 -4 -3 -2 -1 0 0 0 -1 -2 -0 2 5 7 8 8 7 7 7 7 7 7 8 7 8 8 8 8 8 6
-8 -8 -8 -8 -8 -8 -8 -7 -7 -6 -5 -5 -5 -5 -6 -6 -5 -3 -2 -1 -1 -1 -2 -2 -2 -1 1 3 6 6 5 5 5 5 6 7 7 7 7 7 7 6 7
-8 -9 -10 -11 -13 -13 -13 -12 -13 -14 -14 -9 -6 -6 -6 -6 -6 -6 -5 -4 -3 -3 -3 -4 -4 -4 -3 -0 1 2 2 2 2 3 3 4 4 5 5 5 5 4 4
-9 -9 -9 -10 -11 -12 -15 -17 -22 -22 -18 -20 -22 -19 -12 -7 -6 -6 -6 -6 -5 -6 -6 -5 -4 -4 -4 -3 -3 -2 -1 -1 -0 0 1 1 1 1 2 2 2 2 3
-12 -12 -11 -11 -12 -11 -11 -12 -14 -16 -25 -25 -24 -21 -20 -21 -17 -10 -7 -7 -6 -6 -6 -6 -6 -5 -4 -4 -4 -4 -4 -3 -2 -2 -3 -2 -2 -2 -2 -1 -0 0 -0
-12 -14 -13 -12 -11 -11 -11 -11 -10 -11 -13 -15 -14 -19 -17 -13 -11 -15 -16 -10 -7 -7 -6 -6 -6 -6 -6 -6 -6 -6 -6 -6 -6 -6 -5 -5 -4 -4 -4 -4 -3 -2 -1
-13 -13 -13 -12 -12 -11 -12 -11 -11 -11 -13 -18 -15 -13 -12 -13 -12 -14 -19 -21 -17 -11 -9 -8 -8 -8 -8 -9 -8 -8 -8 -7 -7 -7 -6 -6 -6 -5 -5 -5 -5 -4 -5
-17 -13 -12 -13 -12 -12 -12 -12 -12 -12 -13 -16 -19 -13 -12 -13 -14 -15 -15 -18 -20 -21 -20 -17 -13 -11 -10 -10 -10 -10 -10 -9 -9 -8 -8 -8 -7 -7 -7 -7 -7 -7 -7
-15 -12 -11 -11 -12 -12 -12 -12 -13 -13 -14 -15 -17 -18 -14 -13 -15 -16 -15 -17 -19 -18 -17 -17 -16 -16 -16 -14 -12 -11 -11 -10 -10 -10 -9 -9 -9 -9 -8 -8 -8 -8 -8
-12 -13 -12 -12 -13 -14 -13 -13 -14 -14 -14 -15 -16 -17 -18 -16 -17 -18 -19 -17 -15 -15 -14 -15 -16 -15 -15 -14 -15 -14 -13 -13 -12 -12 -11 -11 -10 -10 -10 -9 -9 -9 -9
-14 -14 -13 -14 -14 -14 -13 -13 -14 -14 -14 -15 -16 -16 -17 -18 -19 -18 -19 -20 -18 -16 -15 -15 -15 -16 -16 -16 -14 -14 -15 -14 -13 -13 -13 -15 -17 -14 -13 -14 -14 -12 -12
-16 -15 -14 -15 -16 -15 -15 -15 -14 -14 -16 -15 -15 -15 -17 -18 -18 -19 -19 -20 -21 -20 -19 -17 -18 -17 -17 -17 -17 -17 -16 -16 -15 -14 -13 -13 -14 -16 -17 -17 -17 -18 -20
-19 -17 -16 -17 -17 -17 -17 -16 -15 -15 -15 -15 -15 -15 -16 -17 -18 -19 -19 -19 -20 -21 -21 -21 -19 -19 -20 -20 -18 -18 -17 -17 -17 -17 -16 -14 -14 -14 -15 -15 -16 -18 -20
-18 -18 -18 -17 -17 -17 -18 -18 -18 -17 -17 -17 -17 -16 -16 -16 -17 -17 -18 -18 -19 -20 -22 -22 -22 -22 -22 -22 -21 -21 -19 -19 -17 -17 -17 -17 -16 -16 -16 -17 -18 -18 -18
-17 -17 -17 -17 -17 -18 -18 -19 -19 -20 -19 -19 -18 -19 -19 -17 -17 -17 -18 -18 -19 -20 -21 -22 -22 -22 -22 -23 -25 -26 -26 -26 -24 -17 -17 -16 -16 -16 -17 -16 -17 -17 -17
-16 -16 -17 -17 -17 -16 -17 -16 -17 -17 -20 -21 -22 -21 -20 -20 -20 -20 -18 -19 -19 -19 -21 -21 -21 -21 -22 -23 -23 -25 -27 -28 -28 -22 -18 -18 -17 -17 -17 -17 -18 -18 -19
-17 -18 -18 -18 -18 -18 -18 -18 -18 -18 -18 -17 -18 -21 -21 -22 -21 -21 -21 -20 -19 -20 -20 -21 -21 -21 -22 -22 -22 -22 -23 -27 -27 -25 -23 -21 -19 -18 -18 -18 -19 -20 -22

GFSGL_850_dewp_114.txt.gz
Dewpoint
-1 -1 -0 0 0 1 2 2 3 3 4 6 6 7 8 8 10 7 8 6 6 7 7 7 7 8 8 7 7 7 8 9 10 8 8 8 9 8 9 8 8 7 7
-2 -2 -2 -1 -0 0 1 1 2 3 4 5 6 7 8 9 10 10 7 7 8 8 9 7 8 8 8 8 7 6 6 8 9 8 8 8 9 9 9 9 9 8 8
-2 -2 -2 -2 -2 -1 -0 0 1 2 3 4 5 6 7 8 8 8 9 8 6 7 8 9 8 8 8 9 7 6 7 8 9 6 8 8 9 9 9 9 10 10 9
-3 -3 -3 -3 -3 -3 -2 -1 -0 0 1 2 3 4 5 6 8 8 8 8 8 9 9 10 9 9 6 5 5 6 6 8 9 8 8 8 9 9 9 9 9 9 9
-4 -4 -4 -4 -4 -3 -3 -3 -2 -1 -1 -0 1 2 4 4 6 8 8 7 5 6 10 11 10 9 6 8 8 7 8 9 9 8 8 9 9 9 9 9 9 9 9
-5 -4 -4 -4 -4 -4 -4 -4 -3 -3 -2 -2 -1 -0 1 2 3 6 7 7 7 8 10 11 10 10 9 7 7 8 8 9 8 8 8 8 8 9 9 9 9 9 9
-5 -5 -4 -4 -4 -3 -3 -4 -4 -4 -4 -4 -3 -3 -2 -1 1 3 4 7 8 8 9 9 9 8 7 7 7 8 10 9 9 8 7 9 8 9 9 8 8 8 9
-5 -5 -5 -5 -4 -4 -3 -4 -4 -5 -5 -5 -5 -5 -4 -3 -1 0 1 3 4 6 5 6 8 9 9 9 9 9 8 9 9 9 9 9 8 8 8 8 7 9 9
-7 -8 -8 -8 -8 -7 -6 -6 -5 -5 -5 -5 -5 -4 -5 -6 -4 -1 0 0 1 1 1 0 4 5 8 7 8 9 9 9 9 9 9 8 7 8 8 8 8 8 8
-9 -11 -12 -13 -14 -12 -14 -15 -10 -7 -6 -6 -6 -6 -6 -5 -5 -4 -2 -1 -0 -1 0 0 0 0 3 4 5 6 7 8 8 8 7 7 8 8 8 8 8 8 8
-8 -11 -12 -14 -16 -19 -20 -18 -18 -19 -20 -16 -10 -7 -6 -6 -6 -5 -4 -4 -3 -3 -3 -2 -1 -1 -0 0 0 2 4 4 7 7 7 7 7 7 7 7 7 7 7
-10 -11 -13 -14 -14 -16 -18 -21 -24 -24 -24 -22 -21 -21 -19 -12 -7 -7 -6 -6 -5 -4 -5 -5 -4 -3 -1 -1 -1 -2 -0 -1 1 4 4 4 5 5 6 6 5 6 6
-13 -14 -14 -14 -14 -16 -17 -17 -19 -22 -23 -21 -21 -18 -16 -19 -22 -14 -8 -7 -6 -6 -5 -5 -5 -4 -4 -3 -3 -3 -2 -2 -2 -0 1 2 2 2 2 3 4 4 3
-16 -15 -14 -14 -13 -13 -14 -14 -15 -18 -18 -15 -14 -16 -15 -13 -16 -21 -20 -13 -9 -7 -6 -6 -6 -5 -5 -5 -4 -4 -4 -4 -3 -3 -4 -2 -3 -1 -1 -0 1 1 1
-16 -13 -12 -12 -12 -12 -12 -11 -12 -15 -17 -12 -12 -12 -13 -13 -12 -13 -19 -21 -16 -11 -9 -8 -8 -8 -8 -7 -7 -6 -7 -6 -6 -6 -5 -5 -4 -4 -3 -3 -2 -2 -1
-13 -13 -13 -13 -14 -13 -13 -13 -13 -14 -17 -18 -15 -13 -14 -14 -14 -14 -17 -19 -22 -21 -21 -17 -11 -10 -10 -10 -9 -9 -8 -8 -8 -7 -7 -6 -5 -5 -5 -5 -4 -4 -3
-15 -15 -16 -15 -13 -13 -13 -14 -15 -16 -17 -18 -19 -16 -14 -16 -20 -20 -18 -18 -21 -22 -22 -19 -17 -17 -13 -11 -11 -11 -10 -10 -9 -8 -8 -7 -7 -7 -6 -6 -6 -6 -6
-16 -14 -13 -14 -14 -13 -13 -14 -14 -15 -16 -17 -19 -19 -18 -20 -22 -24 -24 -23 -24 -21 -18 -17 -17 -16 -15 -15 -14 -13 -12 -11 -11 -10 -10 -10 -9 -8 -8 -8 -7 -7 -8
-16 -15 -15 -16 -17 -15 -15 -15 -15 -16 -16 -16 -17 -17 -18 -19 -22 -23 -24 -25 -23 -22 -19 -18 -17 -17 -17 -16 -15 -15 -14 -13 -13 -13 -12 -11 -11 -10 -9 -9 -9 -9 -8
-19 -17 -18 -19 -20 -18 -17 -16 -16 -16 -16 -15 -15 -16 -17 -19 -20 -20 -21 -22 -23 -23 -23 -22 -21 -20 -19 -18 -17 -17 -16 -15 -14 -14 -14 -15 -16 -13 -13 -11 -10 -10 -10
-19 -18 -18 -19 -19 -18 -18 -17 -17 -16 -17 -17 -16 -16 -16 -17 -18 -19 -19 -19 -20 -22 -23 -23 -23 -25 -23 -21 -19 -18 -17 -16 -16 -15 -14 -14 -14 -15 -15 -16 -17 -18 -20
-19 -19 -19 -18 -19 -19 -19 -19 -20 -20 -19 -19 -18 -18 -18 -18 -18 -18 -19 -19 -19 -20 -22 -22 -23 -23 -24 -25 -22 -21 -19 -18 -17 -17 -16 -15 -14 -14 -14 -15 -16 -18 -20
-18 -18 -18 -18 -17 -18 -18 -17 -17 -18 -20 -21 -21 -22 -21 -20 -19 -19 -18 -19 -20 -20 -21 -22 -22 -22 -23 -24 -25 -26 -26 -25 -20 -18 -17 -16 -16 -16 -15 -16 -16 -17 -19
-17 -17 -18 -18 -18 -18 -17 -17 -17 -18 -18 -17 -18 -19 -20 -21 -22 -22 -22 -21 -21 -21 -21 -22 -22 -22 -22 -23 -23 -24 -26 -28 -26 -22 -18 -17 -17 -16 -16 -16 -17 -17 -17
-18 -18 -20 -19 -19 -18 -19 -19 -19 -19 -19 -19 -18 -18 -18 -18 -20 -20 -22 -22 -23 -23 -23 -23 -22 -22 -21 -23 -23 -23 -23 -26 -27 -26 -19 -18 -18 -17 -17 -17 -17 -17 -17
-18 -18 -19 -19 -20 -20 -21 -21 -21 -21 -20 -19 -19 -18 -18 -18 -19 -20 -19 -19 -20 -21 -23 -24 -24 -22 -22 -22 -22 -23 -24 -24 -26 -26 -22 -19 -19 -19 -18 -18 -18 -20 -20

GFSGL_850_dewp_117.txt.gz
Dewpoint
-2 -2 -2 -2 -1 -1 -0 0 1 1 2 3 3 4 5 5 6 7 8 9 9 7 9 9 8 8 6 6 7 7 8 8 8 9 8 7 7 6 6 8 8 8 8
-3 -3 -2 -2 -2 -2 -1 -1 0 1 1 1 2 3 4 5 6 7 8 9 9 8 8 8 6 8 8 7 6 6 8 8 9 9 9 9 8 7 8 8 8 8 7
-3 -3 -3 -3 -3 -3 -3 -2 -1 -0 -0 0 1 2 3 4 5 6 7 9 10 10 8 8 7 7 8 9 9 9 8 8 8 7 7 9 9 8 9 9 8 9 8
-4 -4 -3 -4 -4 -3 -3 -3 -2 -2 -1 -1 -1 -0 1 2 4 5 6 8 9 9 10 10 8 9 9 9 9 10 9 8 8 7 9 9 9 8 8 9 9 9 9
-4 -4 -4 -3 -3 -3 -4 -4 -3 -3 -3 -3 -2 -2 -2 -1 -0 2 5 6 7 8 8 9 9 9 9 8 10 10 9 9 7 8 9 9 9 8 9 8 9 9 9
-4 -4 -4 -4 -3 -4 -3 -3 -4 -4 -4 -3 -3 -3 -3 -3 -2 -0 2 2 3 6 7 7 6 6 6 9 9 9 7 7 7 6 7 8 9 8 8 8 9 8 9
-5 -6 -7 -6 -6 -5 -5 -4 -4 -4 -4 -3 -3 -3 -4 -4 -3 -1 -0 -0 -0 1 3 4 6 7 7 9 8 8 8 7 7 7 8 7 9 8 8 7 8 9 8
-7 -9 -11 -11 -12 -11 -8 -7 -6 -6 -5 -5 -4 -4 -4 -4 -3 -3 -2 -2 -2 -2 0 1 2 4 5 7 8 8 8 8 8 9 9 9 9 8 8 7 7 8 8
-12 -14 -16 -18 -16 -15 -18 -19 -17 -14 -11 -9 -8 -6 -5 -4 -4 -3 -2 -2 -3 -3 -2 -0 1 1 1 5 5 8 8 8 9 9 9 9 9 8 9 8 9 9 8
-12 -13 -15 -17 -20 -22 -23 -22 -21 -20 -20 -20 -21 -20 -16 -10 -7 -5 -5 -4 -3 -3 -3 -3 -3 -1 0 1 1 4 3 5 6 8 8 9 9 8 9 8 8 8 8
-12 -14 -16 -17 -17 -19 -21 -22 -23 -22 -22 -22 -21 -22 -23 -22 -18 -11 -7 -6 -6 -6 -5 -5 -5 -4 -2 -1 -1 1 0 0 1 3 5 5 8 8 8 7 8 8 8
-15 -16 -17 -18 -19 -21 -23 -24 -25 -25 -25 -23 -23 -23 -22 -24 -25 -22 -13 -8 -7 -6 -6 -6 -5 -4 -4 -3 -3 -3 -1 -1 -0 1 0 2 3 5 5 6 6 7 7
-17 -17 -16 -17 -18 -19 -21 -22 -24 -24 -23 -20 -22 -23 -22 -22 -23 -24 -24 -20 -11 -8 -8 -7 -6 -5 -5 -5 -5 -4 -4 -3 -2 -1 -1 -2 -2 -1 2 2 3 5 4
-16 -15 -15 -16 -15 -15 -16 -17 -20 -20 -18 -13 -17 -20 -21 -21 -16 -18 -22 -23 -23 -21 -13 -9 -9 -8 -7 -7 -6 -6 -7 -7 -6 -5 -5 -4 -3 -3 -2 -1 -0 1 2
-16 -15 -14 -14 -14 -15 -15 -16 -18 -18 -18 -15 -14 -17 -17 -19 -15 -14 -16 -21 -21 -22 -23 -22 -21 -15 -10 -9 -9 -9 -8 -8 -8 -7 -6 -6 -5 -4 -4 -3 -3 -2 -1
-16 -16 -16 -16 -16 -17 -17 -16 -17 -17 -19 -18 -15 -15 -19 -18 -26 -27 -25 -24 -24 -23 -25 -23 -21 -20 -19 -15 -12 -11 -11 -10 -10 -9 -8 -8 -7 -7 -6 -5 -4 -4 -4
-18 -18 -19 -20 -19 -16 -16 -17 -18 -18 -18 -19 -19 -16 -16 -20 -25 -27 -28 -28 -29 -29 -26 -22 -20 -19 -18 -16 -16 -15 -14 -12 -11 -10 -10 -9 -9 -8 -8 -7 -7 -7 -6
-18 -18 -20 -18 -16 -16 -17 -16 -16 -17 -18 -18 -18 -18 -18 -20 -23 -26 -28 -30 -31 -30 -28 -25 -23 -22 -19 -19 -18 -16 -16 -15 -15 -15 -13 -11 -10 -10 -9 -9 -9 -8 -8
-24 -21 -21 -21 -21 -22 -21 -20 -20 -20 -20 -19 -18 -19 -18 -19 -20 -22 -24 -25 -25 -26 -26 -27 -26 -26 -24 -22 -19 -18 -17 -16 -14 -14 -15 -17 -14 -11 -11 -10 -10 -9 -9
-26 -23 -25 -26 -26 -25 -25 -24 -23 -22 -21 -20 -19 -19 -19 -20 -20 -20 -20 -21 -22 -22 -23 -25 -25 -26 -26 -25 -23 -21 -20 -19 -18 -16 -14 -14 -15 -16 -15 -13 -11 -11 -10
-26 -26 -25 -24 -24 -23 -23 -22 -21 -22 -22 -22 -22 -23 -22 -21 -21 -20 -20 -20 -20 -21 -21 -23 -24 -25 -26 -26 -26 -26 -24 -20 -18 -18 -17 -15 -14 -14 -15 -16 -17 -18 -13
-24 -22 -22 -22 -21 -20 -19 -18 -18 -19 -19 -20 -20 -20 -21 -22 -23 -23 -22 -22 -22 -22 -23 -24 -23 -23 -24 -25 -25 -26 -27 -28 -26 -20 -18 -17 -16 -15 -15 -15 -15 -17 -21
-20 -20 -21 -22 -20 -19 -19 -18 -18 -19 -19 -19 -19 -19 -19 -19 -20 -21 -22 -23 -23 -24 -24 -25 -24 -22 -22 -23 -24 -24 -25 -26 -28 -25 -20 -17 -17 -16 -16 -16 -16 -17 -19
-19 -20 -22 -23 -22 -21 -21 -21 -21 -21 -20 -20 -20 -19 -18 -19 -19 -20 -21 -22 -21 -22 -22 -25 -26 -24 -23 -23 -23 -24 -24 -24 -26 -27 -22 -18 -18 -17 -17 -17 -16 -16 -16
-19 -21 -24 -24 -23 -23 -23 -24 -24 -25 -25 -23 -21 -20 -19 -19 -19 -19 -19 -20 -20 -20 -21 -22 -25 -25 -24 -24 -23 -23 -24 -24 -25 -26 -25 -20 -19 -19 -18 -18 -17 -17 -17
-23 -26 -27 -25 -26 -28 -29 -29 -29 -29 -28 -27 -25 -24 -21 -20 -20 -20 -20 -20 -20 -20 -20 -21 -23 -24 -25 -23 -23 -23 -23 -24 -24 -25 -26 -23 -21 -20 -19 -19 -19 -19 -19

GFSGL_850_dewp_120.txt.gz
Dewpoint
-3 -3 -3 -3 -3 -2 -2 -2 -1 -1 -1 -0 0 0 1 2 3 3 4 5 7 8 8 8 8 8 9 10 10 9 9 9 10 9 9 8 9 8 7 7 7 7 6
-3 -3 -3 -3 -3 -3 -3 -3 -2 -2 -2 -1 -1 -0 0 1 2 2 3 5 6 7 8 7 8 8 9 9 10 9 9 9 9 9 9 9 8 7 7 8 7 7 7
-4 -3 -3 -3 -3 -3 -4 -3 -3 -3 -2 -2 -1 -1 -1 0 1 2 3 4 5 6 7 7 8 9 9 9 9 9 9 8 7 8 8 8 9 8 7 8 8 7 7
-4 -4 -3 -3 -3 -4 -4 -4 -4 -4 -4 -3 -3 -3 -3 -1 -1 0 1 3 4 5 6 7 8 8 9 9 9 9 8 9 9 8 9 9 8 6 5 9 9 8 8
-4 -4 -4 -4 -4 -4 -4 -4 -4 -4 -4 -4 -4 -3 -4 -3 -2 -1 -0 1 2 3 4 5 6 7 8 9 9 9 8 9 9 10 9 9 8 6 8 9 9 8 8
-6 -7 -8 -8 -7 -6 -6 -6 -5 -5 -4 -4 -4 -3 -4 -4 -3 -2 -2 -1 -0 0 1 2 2 4 6 7 7 8 9 8 9 9 9 9 8 8 7 9 9 9 9
-5 -7 -9 -14 -16 -16 -15 -14 -14 -13 -11 -9 -7 -5 -4 -4 -3 -3 -3 -3 -2 -2 -2 -1 -0 1 2 4 5 7 9 9 9 9 9 9 8 7 6 9 9 7 7
-12 -17 -20 -19 -18 -19 -19 -19 -19 -19 -20 -20 -20 -17 -14 -10 -6 -5 -4 -3 -3 -3 -3 -3 -3 -2 -1 1 2 3 7 8 8 8 8 8 8 8 7 7 8 8 7
-14 -16 -17 -19 -21 -22 -22 -22 -21 -21 -21 -21 -23 -24 -23 -20 -16 -12 -8 -6 -5 -5 -5 -4 -4 -3 -2 -1 -1 1 1 5 5 7 8 8 9 9 8 8 9 8 9
-14 -16 -17 -20 -22 -24 -23 -23 -24 -26 -26 -27 -25 -23 -24 -23 -23 -22 -18 -12 -9 -7 -5 -6 -5 -5 -4 -2 -1 -0 0 1 1 2 3 6 6 7 8 9 9 8 9
-15 -17 -19 -21 -23 -24 -25 -29 -29 -29 -29 -30 -31 -30 -30 -29 -24 -24 -24 -22 -13 -10 -8 -7 -6 -6 -5 -4 -4 -4 -4 -2 -1 -0 0 1 2 5 5 7 8 8 9
-15 -17 -19 -21 -24 -25 -27 -29 -28 -29 -30 -32 -34 -34 -34 -32 -32 -29 -25 -23 -22 -20 -11 -9 -8 -8 -6 -5 -5 -5 -4 -4 -3 -3 -1 0 1 -0 1 3 3 6 7
-16 -18 -19 -20 -21 -22 -26 -27 -28 -28 -28 -29 -31 -33 -33 -33 -34 -34 -33 -29 -25 -24 -22 -20 -14 -10 -9 -8 -7 -6 -5 -5 -6 -6 -6 -5 -4 -3 -1 -1 -1 3 5
-19 -19 -18 -20 -20 -20 -22 -22 -24 -21 -23 -25 -27 -27 -27 -30 -31 -32 -34 -33 -33 -30 -27 -25 -25 -23 -22 -16 -11 -9 -8 -8 -8 -8 -7 -7 -6 -5 -4 -3 -2 -1 0
-21 -21 -20 -17 -17 -18 -20 -20 -20 -19 -17 -16 -16 -20 -20 -23 -22 -29 -30 -31 -32 -31 -31 -32 -32 -28 -27 -25 -23 -20 -14 -11 -10 -9 -8 -8 -7 -6 -6 -5 -4 -3 -3
-24 -22 -19 -18 -19 -20 -21 -21 -21 -20 -17 -16 -16 -16 -19 -16 -18 -28 -29 -30 -31 -32 -34 -32 -30 -28 -25 -22 -22 -21 -19 -18 -15 -14 -10 -9 -9 -8 -8 -7 -7 -7 -6
-23 -21 -21 -21 -23 -23 -22 -22 -21 -20 -21 -21 -20 -20 -17 -17 -23 -28 -29 -29 -30 -32 -31 -30 -29 -28 -27 -26 -23 -21 -20 -18 -17 -16 -17 -12 -11 -10 -9 -9 -9 -8 -8
-23 -24 -25 -25 -23 -21 -20 -22 -23 -24 -25 -25 -25 -24 -24 -23 -24 -27 -28 -30 -30 -29 -28 -27 -27 -27 -27 -27 -27 -25 -23 -21 -20 -17 -16 -16 -15 -12 -11 -11 -10 -10 -9
-24 -25 -26 -27 -26 -25 -25 -26 -27 -27 -28 -28 -29 -28 -27 -26 -27 -27 -26 -27 -26 -26 -26 -26 -26 -26 -26 -26 -27 -28 -28 -25 -21 -19 -17 -15 -15 -16 -16 -14 -11 -11 -10
-25 -27 -27 -26 -26 -25 -24 -24 -25 -25 -26 -25 -24 -23 -23 -23 -24 -25 -26 -26 -25 -25 -26 -26 -25 -25 -25 -26 -26 -26 -27 -29 -28 -23 -20 -18 -16 -15 -15 -16 -17 -14 -11
-26 -26 -26 -26 -27 -24 -22 -23 -23 -24 -24 -22 -21 -20 -20 -20 -21 -22 -24 -24 -24 -25 -26 -26 -25 -25 -25 -25 -25 -26 -26 -26 -28 -27 -21 -18 -17 -16 -16 -15 -16 -18 -20
-25 -25 -27 -28 -27 -25 -24 -25 -27 -27 -25 -24 -23 -21 -19 -19 -19 -20 -21 -23 -23 -23 -22 -24 -26 -26 -25 -25 -25 -25 -25 -25 -26 -28 -26 -20 -17 -17 -16 -16 -16 -17 -19
-24 -26 -27 -28 -27 -25 -26 -28 -29 -28 -27 -26 -26 -24 -23 -20 -19 -19 -19 -20 -21 -20 -21 -22 -24 -25 -26 -25 -25 -24 -24 -25 -25 -25 -26 -23 -19 -18 -18 -17 -16 -16 -17
-26 -27 -29 -30 -29 -29 -30 -31 -31 -31 -31 -30 -28 -27 -25 -22 -21 -20 -20 -20 -20 -20 -20 -20 -21 -23 -24 -25 -25 -25 -25 -25 -25 -25 -26 -25 -21 -19 -19 -18 -17 -17 -16
-28 -30 -31 -32 -32 -32 -32 -32 -31 -31 -30 -30 -30 -29 -28 -27 -26 -23 -21 -21 -21 -21 -21 -20 -21 -21 -22 -23 -24 -25 -24 -24 -24 -25 -25 -26 -24 -21 -20 -19 -19 -18 -19
-30 -32 -32 -32 -32 -32 -32 -32 -31 -31 -31 -30 -30 -29 -29 -29 -28 -28 -28 -27 -24 -22 -22 -22 -21 -21 -21 -21 -22 -23 -23 -24 -24 -24 -24 -24 -26 -24 -21 -20 -20 -19 -20

GFSGL_850_dewp_123.txt.gz
Dewpoint
-3 -3 -3 -3 -3 -3 -3 -3 -2 -2 -1 -1 -1 -1 -1 -0 1 2 2 3 3 5 6 6 7 7 7 7 7 7 8 9 9 10 9 10 8 7 7 7 6 6 6
-4 -3 -3 -3 -4 -4 -4 -4 -3 -3 -3 -2 -3 -3 -2 -2 -1 -0 1 1 3 4 5 5 6 7 8 8 8 8 8 9 9 9 9 10 8 8 8 8 7 8 7
-4 -4 -3 -4 -4 -4 -4 -4 -4 -4 -3 -3 -3 -4 -4 -3 -3 -2 -1 0 1 2 2 4 5 6 7 8 8 9 8 8 8 9 9 9 9 8 8 8 8 7 7
-4 -4 -5 -5 -5 -5 -4 -4 -4 -4 -4 -4 -4 -4 -4 -4 -3 -3 -2 -1 -0 0 1 2 2 4 5 7 8 8 8 8 9 9 9 9 9 8 7 8 9 8 8
-6 -8 -10 -9 -8 -8 -9 -9 -8 -7 -6 -5 -4 -3 -4 -4 -4 -3 -3 -4 -3 -2 -1 -0 0 1 2 3 5 7 8 8 9 9 9 9 9 9 8 8 9 7 8
-6 -7 -9 -11 -16 -17 -18 -18 -19 -18 -18 -17 -15 -10 -6 -6 -6 -4 -4 -4 -4 -3 -3 -2 -1 -0 1 1 2 3 5 6 8 9 8 9 9 9 9 9 9 8 8
-16 -19 -19 -19 -20 -20 -20 -20 -20 -21 -22 -23 -22 -21 -20 -15 -10 -7 -6 -5 -5 -5 -5 -4 -3 -2 -1 -0 1 1 1 2 4 7 7 9 9 9 9 9 8 7 7
-16 -18 -20 -21 -21 -21 -21 -23 -25 -26 -26 -25 -25 -24 -23 -23 -24 -19 -14 -10 -8 -7 -6 -5 -5 -4 -3 -2 -1 -0 -0 1 1 3 3 4 7 8 9 9 6 6 8
-17 -19 -22 -24 -24 -25 -26 -28 -29 -31 -32 -33 -31 -32 -30 -31 -29 -27 -25 -23 -18 -11 -9 -7 -6 -5 -5 -4 -3 -2 -2 -1 -1 -0 -1 -1 3 7 9 8 8 8 8
-19 -20 -22 -24 -25 -27 -28 -29 -31 -33 -33 -33 -34 -34 -34 -32 -32 -31 -29 -27 -26 -24 -18 -12 -8 -7 -6 -5 -5 -5 -4 -4 -3 -1 -1 -0 2 4 6 5 8 8 8
-18 -19 -20 -23 -26 -28 -30 -31 -33 -34 -34 -35 -35 -35 -35 -36 -35 -35 -34 -33 -29 -27 -25 -23 -20 -12 -9 -7 -6 -6 -6 -5 -4 -3 -2 -1 -1 0 1 1 2 5 6
-18 -19 -21 -24 -26 -29 -32 -33 -32 -33 -34 -34 -34 -35 -36 -36 -37 -36 -35 -35 -33 -32 -28 -26 -24 -24 -22 -16 -9 -8 -7 -6 -5 -5 -5 -5 -4 -3 -2 -1 -0 1 2
-17 -19 -21 -23 -26 -29 -31 -30 -26 -25 -27 -28 -24 -25 -26 -32 -34 -34 -35 -35 -35 -35 -33 -32 -31 -30 -28 -26 -24 -22 -13 -10 -9 -8 -7 -7 -7 -6 -4 -2 -2 -1 0
-19 -20 -21 -23 -25 -27 -22 -17 -14 -14 -14 -15 -15 -15 -16 -21 -26 -30 -32 -33 -34 -35 -35 -35 -35 -35 -34 -31 -29 -27 -24 -21 -15 -11 -10 -8 -7 -6 -6 -5 -4 -3 -2
-21 -22 -22 -23 -24 -23 -21 -15 -15 -15 -15 -15 -16 -16 -16 -17 -18 -28 -31 -32 -33 -34 -35 -36 -36 -36 -36 -35 -33 -30 -27 -24 -21 -19 -14 -11 -10 -9 -8 -8 -7 -6 -6
-24 -24 -24 -25 -24 -23 -22 -23 -25 -23 -16 -16 -16 -16 -17 -17 -21 -30 -31 -31 -32 -32 -34 -32 -32 -31 -31 -30 -31 -31 -30 -26 -22 -19 -17 -17 -12 -11 -10 -9 -8 -8 -8
-28 -28 -27 -27 -26 -27 -28 -28 -27 -26 -25 -19 -21 -18 -18 -20 -25 -30 -31 -31 -32 -33 -31 -28 -27 -27 -28 -28 -28 -28 -29 -29 -25 -22 -18 -16 -17 -14 -12 -11 -11 -10 -9
-31 -30 -28 -27 -27 -27 -26 -26 -26 -26 -24 -23 -24 -24 -24 -25 -26 -28 -30 -31 -29 -26 -20 -21 -23 -24 -24 -25 -27 -28 -28 -29 -30 -26 -21 -19 -17 -16 -16 -15 -13 -11 -11
-29 -28 -27 -26 -26 -25 -25 -26 -25 -25 -24 -22 -23 -26 -26 -25 -25 -26 -27 -27 -24 -21 -20 -20 -21 -21 -25 -24 -25 -26 -27 -28 -28 -29 -24 -20 -18 -17 -16 -16 -17 -15 -12
-27 -26 -25 -25 -26 -27 -27 -27 -28 -28 -27 -25 -26 -26 -26 -23 -24 -23 -23 -23 -23 -20 -21 -20 -21 -23 -25 -25 -26 -27 -26 -26 -27 -28 -28 -22 -19 -17 -17 -16 -16 -18 -17
-25 -25 -27 -28 -28 -28 -29 -30 -30 -30 -30 -29 -28 -26 -25 -22 -21 -20 -20 -20 -21 -21 -21 -22 -22 -23 -24 -25 -26 -26 -26 -26 -26 -26 -27 -27 -21 -19 -18 -18 -17 -16 -18
-24 -27 -28 -30 -29 -30 -31 -31 -31 -32 -32 -32 -31 -30 -28 -27 -25 -24 -22 -21 -20 -20 -20 -20 -20 -21 -23 -23 -24 -25 -25 -25 -26 -26 -26 -26 -24 -21 -20 -19 -18 -17 -16
-26 -28 -29 -30 -31 -31 -32 -32 -33 -33 -33 -32 -32 -31 -30 -30 -29 -28 -25 -23 -22 -21 -21 -20 -20 -20 -21 -21 -22 -23 -23 -24 -25 -25 -25 -25 -26 -23 -21 -20 -19 -19 -17
-28 -30 -31 -32 -32 -32 -32 -32 -33 -32 -32 -31 -31 -30 -30 -30 -30 -29 -29 -28 -27 -25 -23 -22 -22 -21 -21 -21 -21 -21 -22 -23 -23 -24 -24 -25 -25 -26 -24 -21 -20 -19 -18
-31 -32 -32 -32 -32 -32 -32 -32 -32 -32 -31 -31 -30 -30 -30 -29 -29 -29 -29 -29 -29 -29 -29 -28 -28 -26 -24 -22 -22 -22 -22 -22 -22 -24 -24 -25 -25 -25 -26 -23 -21 -20 -19
-32 -33 -33 -32 -32 -32 -32 -32 -31 -31 -30 -30 -29 -29 -29 -29 -29 -29 -29 -29 -29 -29 -28 -28 -28 -29 -29 -28 -28 -25 -22 -22 -22 -22 -24 -24 -25 -25 -25 -25 -22 -21 -21

GFSGL_850_dewp_126.txt.gz
Dewpoint
-3 -3 -3 -4 -4 -4 -4 -4 -3 -4 -3 -3 -3 -3 -2 -2 -1 -1 -0 1 0 1 1 2 3 3 5 6 7 7 8 8 9 9 9 8 9 10 10 10 10 10 10
-4 -3 -3 -4 -4 -5 -4 -4 -4 -5 -5 -3 -3 -3 -3 -3 -2 -2 -2 -2 -1 -1 -1 -0 1 3 4 6 7 7 8 8 8 8 7 9 9 9 10 10 11 9 8
-4 -4 -4 -5 -5 -5 -5 -5 -5 -4 -4 -3 -3 -3 -3 -3 -3 -3 -3 -3 -3 -3 -2 -2 -1 1 3 4 6 7 8 8 9 9 8 8 8 8 9 10 10 10 8
-6 -7 -8 -9 -10 -11 -11 -10 -8 -7 -6 -5 -5 -5 -5 -4 -4 -4 -4 -4 -4 -4 -3 -3 -2 -1 0 2 3 5 6 7 8 8 9 9 8 8 9 9 10 9 9
-5 -6 -6 -11 -17 -17 -18 -16 -14 -13 -11 -10 -9 -8 -8 -7 -6 -5 -5 -5 -5 -4 -4 -4 -3 -3 -2 -1 0 2 3 4 5 7 7 8 9 9 9 9 9 8 7
-10 -14 -16 -18 -19 -20 -20 -20 -18 -15 -15 -13 -11 -9 -11 -14 -11 -10 -8 -7 -6 -6 -5 -5 -4 -4 -2 -2 -2 -2 -1 1 2 2 3 4 7 7 8 9 9 9 9
-15 -19 -20 -20 -21 -22 -24 -26 -24 -24 -24 -22 -20 -15 -18 -25 -25 -21 -17 -13 -11 -10 -10 -8 -7 -5 -4 -3 -2 -2 -2 -1 -1 -1 -0 0 2 4 5 7 8 9 9
-17 -21 -23 -24 -24 -26 -29 -31 -30 -28 -29 -30 -27 -23 -25 -33 -33 -32 -28 -25 -22 -20 -18 -15 -12 -9 -6 -5 -5 -4 -3 -3 -3 -3 -3 -3 -2 -0 1 5 8 8 9
-22 -24 -25 -27 -28 -29 -30 -31 -31 -28 -28 -33 -34 -34 -32 -35 -37 -38 -37 -30 -27 -27 -25 -24 -24 -19 -12 -8 -7 -6 -5 -4 -3 -3 -3 -2 -2 -2 -1 1 4 5 8
-22 -23 -25 -28 -30 -31 -29 -30 -29 -26 -24 -24 -30 -34 -35 -36 -37 -38 -38 -37 -30 -27 -26 -27 -27 -25 -24 -21 -13 -9 -8 -6 -5 -4 -3 -3 -2 -3 -2 -2 -0 1 3
-20 -23 -26 -27 -28 -28 -25 -26 -24 -26 -26 -21 -16 -25 -32 -36 -37 -37 -37 -37 -36 -34 -32 -31 -31 -29 -28 -27 -25 -23 -14 -10 -8 -7 -5 -4 -3 -3 -4 -3 -3 -1 -0
-20 -24 -26 -27 -25 -24 -20 -16 -18 -15 -14 -12 -13 -13 -15 -26 -35 -35 -36 -36 -36 -36 -35 -35 -35 -35 -34 -33 -32 -29 -27 -25 -22 -12 -10 -8 -7 -6 -5 -5 -4 -4 -3
-21 -24 -26 -26 -24 -16 -13 -12 -12 -12 -12 -13 -12 -13 -13 -14 -17 -32 -35 -34 -35 -35 -35 -35 -36 -36 -36 -36 -35 -34 -32 -29 -25 -24 -18 -11 -10 -8 -7 -6 -5 -4 -4
-12 -12 -12 -17 -14 -13 -13 -13 -13 -13 -12 -13 -13 -14 -14 -15 -16 -22 -25 -29 -33 -32 -28 -30 -33 -33 -34 -35 -35 -35 -33 -30 -23 -19 -20 -20 -14 -10 -10 -9 -8 -7 -6
-14 -13 -13 -14 -14 -15 -23 -17 -13 -15 -15 -14 -14 -15 -15 -16 -18 -28 -32 -33 -31 -27 -23 -25 -28 -29 -30 -29 -26 -24 -24 -29 -27 -19 -20 -21 -20 -18 -12 -11 -10 -9 -9
-14 -14 -16 -14 -15 -15 -15 -14 -27 -22 -18 -20 -16 -16 -16 -17 -24 -27 -21 -20 -20 -18 -16 -17 -17 -17 -17 -18 -18 -18 -18 -19 -19 -17 -16 -17 -19 -15 -14 -14 -12 -11 -10
-15 -19 -25 -16 -17 -16 -15 -16 -15 -15 -19 -23 -20 -17 -17 -17 -18 -18 -18 -17 -17 -17 -17 -17 -17 -18 -18 -18 -19 -18 -18 -18 -18 -18 -17 -17 -17 -16 -15 -14 -13 -13 -11
-32 -31 -26 -25 -21 -15 -15 -15 -15 -15 -15 -15 -16 -18 -18 -18 -18 -18 -18 -17 -16 -17 -17 -17 -17 -18 -18 -19 -18 -19 -19 -19 -19 -19 -18 -18 -18 -17 -16 -16 -15 -14 -13
-31 -30 -30 -28 -24 -17 -15 -15 -15 -15 -15 -15 -16 -17 -18 -17 -17 -18 -18 -17 -17 -17 -18 -18 -18 -18 -18 -19 -19 -19 -19 -19 -20 -20 -19 -19 -19 -18 -17 -16 -15 -15 -14
-31 -31 -25 -16 -15 -15 -15 -16 -16 -16 -16 -16 -17 -23 -21 -17 -17 -18 -19 -19 -19 -19 -19 -19 -19 -19 -19 -20 -20 -20 -20 -20 -20 -20 -20 -20 -20 -19 -18 -17 -16 -16 -15
-17 -27 -29 -19 -16 -16 -17 -18 -17 -17 -18 -18 -18 -26 -31 -19 -19 -19 -20 -20 -20 -20 -21 -21 -21 -21 -21 -21 -21 -21 -21 -20 -21 -21 -21 -21 -20 -19 -19 -18 -17 -17 -16
-19 -22 -22 -24 -27 -30 -21 -23 -21 -19 -20 -20 -19 -20 -30 -20 -20 -21 -21 -22 -22 -22 -22 -22 -22 -22 -23 -23 -22 -22 -22 -21 -22 -22 -22 -22 -21 -20 -20 -19 -19 -18 -17
-26 -27 -28 -28 -30 -32 -32 -32 -32 -28 -25 -23 -21 -22 -26 -27 -26 -24 -26 -28 -28 -28 -28 -29 -27 -25 -27 -26 -23 -24 -23 -23 -23 -23 -23 -22 -22 -21 -21 -20 -20 -19 -19
-27 -28 -30 -32 -32 -33 -33 -33 -32 -32 -31 -30 -28 -29 -31 -30 -29 -30 -30 -30 -29 -29 -29 -29 -29 -29 -29 -29 -28 -25 -25 -23 -23 -24 -22 -23 -22 -22 -22 -22 -21 -20 -20
-30 -31 -32 -32 -33 -33 -32 -32 -32 -31 -30 -30 -30 -31 -31 -30 -30 -30 -29 -29 -29 -29 -29 -28 -28 -28 -28 -28 -28 -28 -28 -28 -23 -23 -23 -23 -23 -23 -22 -22 -22 -21 -20
-32 -32 -33 -33 -32 -32 -32 -31 -31 -30 -30 -30 -30 -31 -30 -30 -30 -30 -29 -29 -29 -28 -28 -28 -28 -28 -28 -28 -28 -28 -28 -28 -25 -23 -23 -24 -23 -23 -23 -23 -23 -22 -21